[[{"header":{"parameterUnit":"m.s-1","parameterCategory":1,"la1":31.0,"la2":29.5877,"lo1":-88.7671,"lo2":-86.6584,"dy":0.0162,"dx":0.0185,"nx":115,"ny":88,"refTime":"2023-10-10T12:00:00:Z","depth":0,"parameterNumber":2,"parameterNumberName":"U-component_of_WINDS"},"data":[0.0,0.0,0.0,0.0,0.0,0.0,0.0,0.0,0.0,0.0,0.0,0.0,0.0,0.0,0.0,0.0,0.0,0.0,0.0,0.0,0.0,0.0,0.0,0.0,0.0,0.0,0.0,0.0,0.0,0.0,0.0,0.0,0.0,0.0,0.0,0.0,0.0,0.0,0.0,0.0,0.0,0.0,0.0,0.0,0.0,0.0,0.0,0.0,0.0,0.0,0.0,0.0,0.0,0.0,0.0,0.0,0.0,0.0,0.0,0.0,0.0,0.0,0.0,0.0,0.0,0.0,0.0,0.0,0.0,0.0,0.0,0.0,0.0,0.0,0.0,0.0,0.0,0.0,0.0,0.0,0.0,0.0,0.0,0.0,0.0,0.0,0.0,0.0,0.0,0.0,0.0,0.0,0.0,0.0,0.0,0.0,0.0,0.0,0.0,0.0,0.0,0.0,0.0,0.0,0.0,0.0,0.0,0.0,0.0,0.0,0.0,0.0,0.0,0.0,0.0,0.0,0.0,0.0,0.0,0.0,0.0,0.0,0.0,0.0,0.0,0.0,0.0,0.0,0.0,0.0,0.0,0.0,0.0,0.0,0.0,0.0,0.0,0.0,0.0,0.0,0.0,0.0,0.0,0.0,0.0,0.0,0.0,0.0,0.0,0.0,0.0,0.0,0.0,0.0,0.0,0.0,0.0,0.0,0.0,0.0,0.0,0.0,0.0,0.0,0.0,0.0,0.0,0.0,0.0,0.0,0.0,0.0,0.0,0.0,0.0,0.0,0.0,0.0,0.0,0.0,0.0,0.0,0.0,0.0,0.0,0.0,0.0,0.0,0.0,0.0,0.0,0.0,0.0,0.0,0.0,0.0,0.0,0.0,0.0,0.0,0.0,0.0,0.0,0.0,0.0,0.0,0.0,0.0,0.0,0.0,0.0,0.0,0.0,0.0,0.0,0.0,0.0,0.0,0.0,0.0,0.0,0.0,0.0,0.0,0.0,0.0,0.0,0.0,0.0,0.0,0.0,0.0,0.0,0.0,0.0,0.0,0.0,0.0,0.0,0.0,0.0,0.0,0.0,0.0,0.0,0.0,0.0,0.0,0.0,0.0,0.0,0.0,0.0,0.0,0.0,0.0,0.0,0.0,0.0,0.0,0.0,0.0,0.0,0.0,0.0,0.0,0.0,0.0,0.0,0.0,0.0,0.0,0.0,0.0,0.0,0.0,0.0,0.0,0.0,0.0,0.0,0.0,0.0,0.0,0.0,0.0,0.0,0.0,0.0,0.0,0.0,0.0,0.0,0.0,0.0,0.0,0.0,0.0,0.0,0.0,0.0,0.0,0.0,0.0,0.0,0.0,0.0,0.0,0.0,0.0,0.0,0.0,0.0,0.0,0.0,0.0,0.0,0.0,0.0,0.0,0.0,0.0,0.0,0.0,0.0,0.0,0.0,0.0,0.0,0.0,0.0,0.0,0.0,0.0,0.0,0.0,0.0,0.0,0.0,0.0,0.0,0.0,0.0,0.0,0.0,0.0,0.0,0.0,0.0,0.0,0.0,0.0,0.0,0.0,0.0,0.0,0.0,0.0,0.0,0.0,0.0,0.0,0.0,0.0,0.0,0.0,0.0,0.0,0.0,0.0,0.0,0.0,0.0,0.0,0.0,0.0,0.0,0.0,0.0,0.0,0.0,0.0,0.0,0.0,0.0,0.0,0.0,0.0,0.0,0.0,0.0,0.0,0.0,0.0,0.0,0.0,0.0,0.0,0.0,0.0,0.0,0.0,0.0,0.0,0.0,0.0,0.0,0.0,0.0,0.0,0.0,0.0,0.0,0.0,0.0,0.0,0.0,0.0,0.0,0.0,0.0,0.0,0.0,0.0,0.0,0.0,0.0,0.0,0.0,0.0,0.0,0.0,0.0,0.0,0.0,0.0,0.0,0.0,0.0,0.0,0.0,0.0,0.0,0.0,0.0,0.0,0.0,0.0,0.0,0.0,0.0,0.0,0.0,0.0,0.0,0.0,0.0,0.0,0.0,0.0,0.0,0.0,0.0,0.0,0.0,0.0,0.0,0.0,0.0,0.0,0.0,0.0,0.0,0.0,0.0,0.0,0.0,0.0,0.0,0.0,0.0,0.0,0.0,0.0,0.0,0.0,0.0,0.0,0.0,0.0,0.0,0.0,0.0,0.0,0.0,0.0,0.0,0.0,0.0,0.0,0.0,0.0,0.0,0.0,0.0,0.0,0.0,0.0,0.0,0.0,0.0,0.0,0.0,0.0,0.0,0.0,0.0,0.0,0.0,0.0,0.0,0.0,0.0,0.0,0.0,0.0,0.0,0.0,0.0,0.0,0.0,0.0,0.0,0.0,0.0,0.0,0.0,0.0,0.0,0.0,0.0,0.0,0.0,0.0,0.0,0.0,0.0,0.0,0.0,0.0,0.0,0.0,0.0,0.0,0.0,0.0,0.0,0.0,0.0,0.0,0.0,0.0,0.0,0.0,0.0,0.0,0.0,0.0,0.0,0.0,0.0,0.0,0.0,0.0,0.0,0.0,0.0,0.0,0.0,0.0,0.0,0.0,0.0,0.0,0.0,0.0,0.0,0.0,0.0,0.0,0.0,0.0,0.0,0.0,0.0,0.0,0.0,0.0,0.0,0.0,0.0,0.0,0.0,0.0,0.0,0.0,0.0,0.0,0.0,0.0,0.0,0.0,0.0,0.0,0.0,0.0,0.0,0.0,0.0,0.0,0.0,0.0,0.0,0.0,0.0,0.0,0.0,0.0,0.0,0.0,0.0,0.0,0.0,0.0,0.0,0.0,0.0,0.0,0.0,0.0,0.0,0.0,0.0,0.0,0.0,0.0,0.0,0.0,0.0,0.0,0.0,0.0,0.0,0.0,0.0,0.0,0.0,0.0,0.0,0.0,0.0,0.0,0.0,0.0,0.0,0.0,0.0,0.0,0.0,0.0,0.0,0.0,0.0,0.0,0.0,0.0,0.0,0.0,0.0,0.0,0.0,0.0,0.0,0.0,0.0,0.0,0.0,0.0,0.0,0.0,0.0,0.0,0.0,0.0,0.0,0.0,0.0,0.0,0.0,0.0,0.0,0.0,0.0,0.0,0.0,0.0,0.0,0.0,0.0,0.0,0.0,0.0,0.0,0.0,0.0,0.0,0.0,0.0,0.0,0.0,0.0,0.0,0.0,0.0,0.0,0.0,0.0,0.0,0.0,0.0,0.0,0.0,0.0,0.0,0.0,0.0,0.0,0.0,0.0,0.0,0.0,0.0,0.0,0.0,0.0,0.0,0.0,0.0,0.0,0.0,0.0,0.0,0.0,0.0,0.0,0.0,0.0,0.0,0.0,0.0,0.0,0.0,0.0,0.0,0.0,0.0,0.0,0.0,0.0,0.0,0.0,0.0,0.0,0.0,0.0,0.0,0.0,0.0,0.0,0.0,0.0,0.0,0.0,0.0,0.0,0.0,0.0,0.0,0.0,0.0,0.0,0.0,0.0,0.0,0.0,0.0,0.0,0.0,0.0,0.0,0.0,0.0,0.0,0.0,0.0,0.0,0.0,0.0,0.0,0.0,0.0,0.0,0.0,0.0,0.0,0.0,0.0,0.0,0.0,0.0,0.0,0.0,0.0,0.0,0.0,0.0,0.0,0.0,0.0,0.0,0.0,0.0,0.0,0.0,0.0,0.0,0.0,0.0,0.0,0.0,0.0,0.0,0.0,0.0,0.0,0.0,0.0,0.0,0.0,0.0,0.0,0.0,0.0,0.0,0.0,0.0,0.0,0.0,0.0,0.0,0.0,0.0,0.0,0.0,0.0,0.0,0.0,0.0,0.0,0.0,0.0,0.0,0.0,0.0,0.0,0.0,0.0,0.0,0.0,0.0,0.0,0.0,0.0,0.0,0.0,0.0,0.0,0.0,0.0,0.0,0.0,0.0,0.0,0.0,0.0,0.0,0.0,0.0,0.0,0.0,0.0,0.0,0.0,0.0,0.0,0.0,0.0,0.0,0.0,0.0,0.0,0.0,0.0,0.0,0.0,0.0,0.0,0.0,0.0,0.0,0.0,0.0,0.0,0.0,0.0,0.0,0.0,0.0,0.0,0.0,0.0,0.0,0.0,0.0,0.0,0.0,0.0,0.0,0.0,0.0,0.0,0.0,0.0,0.0,0.0,0.0,0.0,0.0,0.0,0.0,0.0,0.0,0.0,0.0,0.0,0.0,0.0,0.0,0.0,0.0,0.0,0.0,0.0,0.0,0.0,0.0,-2.5217,0.0,0.0,0.0,0.0,0.0,0.0,0.0,0.0,0.0,0.0,0.0,0.0,0.0,0.0,0.0,0.0,0.0,0.0,0.0,0.0,0.0,0.0,0.0,0.0,0.0,0.0,0.0,0.0,0.0,0.0,0.0,0.0,0.0,0.0,0.0,0.0,0.0,0.0,0.0,0.0,0.0,0.0,0.0,0.0,0.0,0.0,0.0,0.0,0.0,0.0,0.0,0.0,0.0,0.0,0.0,0.0,0.0,0.0,0.0,0.0,0.0,0.0,0.0,0.0,0.0,0.0,0.0,0.0,0.0,0.0,0.0,0.0,0.0,0.0,0.0,0.0,0.0,0.0,0.0,0.0,0.0,0.0,0.0,0.0,0.0,0.0,0.0,0.0,0.0,0.0,0.0,0.0,0.0,0.0,0.0,0.0,0.0,0.0,0.0,0.0,0.0,0.0,0.0,0.0,0.0,0.0,0.0,0.0,0.0,0.0,-2.5088,-2.5094,-2.5144,-2.5144,-2.5156,0.0,0.0,0.0,0.0,0.0,0.0,0.0,0.0,0.0,0.0,0.0,0.0,0.0,0.0,0.0,0.0,0.0,0.0,0.0,0.0,0.0,0.0,0.0,0.0,0.0,0.0,0.0,0.0,0.0,0.0,0.0,0.0,0.0,0.0,0.0,0.0,0.0,0.0,0.0,0.0,0.0,0.0,0.0,0.0,0.0,0.0,0.0,0.0,0.0,0.0,0.0,0.0,0.0,0.0,0.0,0.0,0.0,0.0,0.0,0.0,0.0,0.0,0.0,0.0,0.0,0.0,0.0,0.0,0.0,0.0,0.0,0.0,0.0,0.0,0.0,0.0,0.0,0.0,0.0,0.0,0.0,0.0,0.0,0.0,0.0,0.0,0.0,0.0,0.0,0.0,0.0,0.0,0.0,0.0,0.0,0.0,0.0,0.0,0.0,0.0,0.0,0.0,0.0,0.0,0.0,0.0,0.0,0.0,0.0,0.0,0.0,0.0,-2.5044,-2.5076,-2.507,0.0,0.0,0.0,0.0,0.0,0.0,0.0,0.0,0.0,0.0,0.0,0.0,0.0,0.0,0.0,0.0,0.0,0.0,0.0,0.0,0.0,0.0,0.0,0.0,0.0,0.0,0.0,0.0,0.0,0.0,0.0,0.0,0.0,0.0,0.0,0.0,0.0,0.0,0.0,0.0,0.0,0.0,0.0,0.0,0.0,0.0,0.0,0.0,0.0,0.0,0.0,0.0,0.0,0.0,0.0,0.0,0.0,0.0,0.0,0.0,0.0,0.0,0.0,0.0,0.0,0.0,0.0,0.0,0.0,0.0,0.0,0.0,0.0,0.0,0.0,0.0,0.0,0.0,0.0,0.0,0.0,0.0,0.0,0.0,0.0,0.0,0.0,0.0,0.0,0.0,0.0,0.0,0.0,0.0,0.0,0.0,0.0,0.0,0.0,0.0,0.0,0.0,0.0,0.0,0.0,0.0,0.0,0.0,0.0,0.0,-2.4823,-2.4842,-2.4884,0.0,-2.5012,0.0,0.0,0.0,0.0,0.0,0.0,0.0,0.0,0.0,0.0,0.0,0.0,0.0,0.0,0.0,0.0,0.0,0.0,0.0,0.0,0.0,0.0,0.0,0.0,0.0,0.0,0.0,0.0,0.0,0.0,0.0,0.0,0.0,0.0,0.0,0.0,0.0,0.0,0.0,0.0,0.0,0.0,0.0,0.0,0.0,0.0,0.0,0.0,0.0,0.0,0.0,0.0,0.0,0.0,0.0,0.0,0.0,0.0,0.0,0.0,0.0,0.0,0.0,0.0,0.0,0.0,0.0,0.0,0.0,0.0,0.0,0.0,0.0,0.0,0.0,0.0,0.0,0.0,0.0,0.0,0.0,0.0,0.0,0.0,0.0,0.0,0.0,0.0,0.0,0.0,0.0,0.0,0.0,0.0,0.0,0.0,0.0,0.0,0.0,0.0,0.0,0.0,0.0,0.0,0.0,0.0,0.0,0.0,0.0,0.0,-2.4813,-2.4813,-2.4842,-2.4837,0.0,0.0,0.0,0.0,0.0,0.0,0.0,0.0,0.0,0.0,0.0,0.0,0.0,0.0,0.0,0.0,0.0,0.0,0.0,0.0,0.0,0.0,0.0,0.0,0.0,0.0,0.0,0.0,0.0,0.0,0.0,0.0,0.0,0.0,0.0,0.0,0.0,0.0,0.0,0.0,0.0,0.0,0.0,0.0,0.0,0.0,0.0,0.0,0.0,0.0,0.0,0.0,0.0,0.0,0.0,0.0,0.0,0.0,0.0,0.0,0.0,0.0,0.0,0.0,0.0,0.0,0.0,0.0,0.0,0.0,0.0,0.0,0.0,0.0,0.0,0.0,0.0,0.0,0.0,0.0,0.0,0.0,0.0,0.0,0.0,0.0,0.0,0.0,0.0,0.0,0.0,0.0,0.0,0.0,0.0,0.0,0.0,0.0,0.0,0.0,0.0,0.0,0.0,0.0,0.0,0.0,0.0,0.0,0.0,0.0,-2.4753,-2.4753,-2.4787,-2.4783,-2.4783,-2.4798,0.0,0.0,0.0,0.0,0.0,0.0,0.0,0.0,0.0,0.0,0.0,0.0,0.0,0.0,0.0,0.0,0.0,0.0,0.0,0.0,0.0,0.0,0.0,0.0,0.0,0.0,0.0,0.0,0.0,0.0,0.0,0.0,0.0,0.0,0.0,0.0,0.0,0.0,0.0,0.0,0.0,0.0,0.0,0.0,0.0,0.0,0.0,0.0,0.0,0.0,0.0,0.0,0.0,0.0,0.0,0.0,0.0,0.0,0.0,0.0,0.0,0.0,0.0,0.0,0.0,0.0,0.0,0.0,0.0,0.0,0.0,0.0,0.0,0.0,0.0,0.0,0.0,0.0,0.0,0.0,0.0,0.0,0.0,0.0,0.0,0.0,0.0,0.0,0.0,0.0,0.0,0.0,0.0,0.0,0.0,0.0,0.0,0.0,0.0,0.0,0.0,0.0,0.0,0.0,0.0,0.0,0.0,0.0,-2.4717,-2.4669,-2.465,-2.4735,-2.4729,-2.4723,0.0,0.0,0.0,0.0,0.0,0.0,0.0,0.0,0.0,0.0,0.0,0.0,0.0,0.0,0.0,0.0,0.0,0.0,0.0,0.0,0.0,0.0,0.0,0.0,0.0,0.0,0.0,0.0,0.0,0.0,0.0,0.0,0.0,0.0,0.0,0.0,0.0,0.0,0.0,0.0,0.0,0.0,0.0,0.0,0.0,0.0,0.0,0.0,0.0,0.0,0.0,0.0,0.0,0.0,0.0,0.0,0.0,0.0,0.0,0.0,0.0,0.0,0.0,0.0,0.0,0.0,0.0,0.0,0.0,0.0,0.0,0.0,0.0,0.0,0.0,0.0,0.0,0.0,0.0,0.0,0.0,0.0,0.0,0.0,0.0,0.0,0.0,0.0,0.0,0.0,0.0,0.0,0.0,0.0,0.0,0.0,0.0,0.0,0.0,0.0,0.0,0.0,0.0,0.0,0.0,0.0,0.0,0.0,0.0,-2.54,-2.5887,-2.5906,-2.5437,-2.5398,-2.5171,0.0,0.0,0.0,0.0,0.0,0.0,0.0,0.0,0.0,0.0,0.0,0.0,0.0,0.0,0.0,0.0,0.0,0.0,0.0,0.0,0.0,0.0,0.0,0.0,0.0,0.0,0.0,0.0,0.0,0.0,0.0,0.0,0.0,0.0,0.0,0.0,0.0,0.0,0.0,0.0,0.0,0.0,0.0,0.0,0.0,0.0,0.0,0.0,0.0,0.0,0.0,0.0,0.0,0.0,0.0,0.0,0.0,0.0,0.0,0.0,0.0,0.0,0.0,0.0,0.0,0.0,0.0,0.0,0.0,0.0,0.0,0.0,0.0,0.0,0.0,0.0,0.0,0.0,0.0,0.0,0.0,0.0,0.0,0.0,0.0,0.0,0.0,0.0,0.0,0.0,0.0,0.0,0.0,0.0,0.0,0.0,0.0,0.0,0.0,0.0,0.0,0.0,0.0,0.0,0.0,0.0,0.0,0.0,0.0,-2.6115,0.0,-2.6711,-2.6225,-2.5926,-2.5534,0.0,0.0,0.0,0.0,0.0,0.0,0.0,0.0,0.0,0.0,0.0,0.0,0.0,0.0,0.0,0.0,0.0,0.0,0.0,0.0,0.0,0.0,0.0,0.0,0.0,0.0,0.0,0.0,0.0,0.0,0.0,0.0,0.0,0.0,0.0,0.0,0.0,0.0,0.0,0.0,0.0,0.0,0.0,0.0,0.0,0.0,0.0,0.0,0.0,0.0,0.0,0.0,0.0,0.0,0.0,0.0,0.0,0.0,0.0,0.0,0.0,0.0,0.0,0.0,0.0,0.0,0.0,0.0,0.0,0.0,0.0,0.0,0.0,0.0,0.0,0.0,0.0,0.0,0.0,0.0,0.0,0.0,0.0,0.0,0.0,0.0,0.0,0.0,0.0,0.0,0.0,0.0,0.0,0.0,0.0,0.0,0.0,0.0,0.0,0.0,0.0,0.0,0.0,0.0,0.0,0.0,0.0,0.0,-2.619,-2.6879,-2.6953,-2.7028,-2.6991,-2.6264,-2.5835,0.0,0.0,0.0,0.0,0.0,0.0,0.0,0.0,0.0,0.0,0.0,0.0,0.0,0.0,0.0,0.0,0.0,0.0,0.0,0.0,0.0,0.0,0.0,0.0,0.0,0.0,0.0,0.0,0.0,0.0,0.0,0.0,0.0,0.0,0.0,0.0,0.0,0.0,0.0,0.0,0.0,0.0,0.0,0.0,0.0,0.0,0.0,0.0,0.0,0.0,0.0,0.0,0.0,0.0,0.0,0.0,0.0,0.0,0.0,0.0,0.0,0.0,0.0,0.0,0.0,0.0,0.0,0.0,0.0,0.0,0.0,0.0,0.0,0.0,0.0,0.0,0.0,0.0,0.0,0.0,0.0,0.0,0.0,0.0,0.0,0.0,0.0,0.0,0.0,0.0,0.0,0.0,0.0,0.0,0.0,0.0,0.0,0.0,0.0,0.0,0.0,0.0,0.0,0.0,0.0,0.0,0.0,0.0,0.0,-2.7734,-2.8329,-2.8347,-2.7791,-2.7512,-2.686,0.0,0.0,0.0,0.0,0.0,0.0,0.0,0.0,0.0,0.0,0.0,0.0,0.0,0.0,0.0,0.0,0.0,0.0,0.0,0.0,0.0,0.0,0.0,0.0,0.0,0.0,0.0,0.0,0.0,0.0,0.0,0.0,0.0,0.0,0.0,0.0,0.0,0.0,0.0,0.0,0.0,0.0,0.0,0.0,0.0,0.0,0.0,0.0,0.0,0.0,0.0,0.0,0.0,0.0,0.0,0.0,0.0,0.0,0.0,0.0,0.0,0.0,0.0,0.0,0.0,0.0,0.0,0.0,0.0,0.0,0.0,0.0,0.0,0.0,0.0,0.0,0.0,0.0,0.0,0.0,0.0,0.0,0.0,0.0,0.0,0.0,0.0,0.0,0.0,0.0,0.0,0.0,0.0,0.0,0.0,0.0,0.0,0.0,0.0,0.0,0.0,0.0,0.0,0.0,0.0,0.0,0.0,0.0,0.0,-2.8526,-2.9047,-2.9084,-2.8528,-2.8211,-2.7431,-2.6078,0.0,0.0,0.0,0.0,0.0,0.0,0.0,0.0,0.0,0.0,0.0,0.0,0.0,0.0,0.0,0.0,0.0,0.0,0.0,0.0,0.0,0.0,0.0,0.0,0.0,0.0,0.0,0.0,0.0,0.0,0.0,0.0,0.0,0.0,0.0,0.0,0.0,0.0,0.0,0.0,0.0,0.0,0.0,0.0,0.0,0.0,0.0,0.0,0.0,0.0,0.0,0.0,0.0,0.0,0.0,0.0,0.0,0.0,0.0,0.0,0.0,0.0,0.0,0.0,0.0,0.0,0.0,0.0,0.0,0.0,0.0,0.0,0.0,0.0,0.0,0.0,0.0,0.0,0.0,0.0,0.0,0.0,0.0,0.0,0.0,0.0,0.0,0.0,0.0,0.0,0.0,0.0,0.0,0.0,0.0,0.0,0.0,0.0,0.0,0.0,0.0,0.0,0.0,0.0,0.0,0.0,0.0,0.0,-2.9326,-2.9326,-2.9311,-2.9181,-2.8458,-2.7643,0.0,0.0,0.0,0.0,0.0,0.0,0.0,0.0,0.0,0.0,0.0,0.0,0.0,0.0,0.0,0.0,0.0,0.0,0.0,0.0,0.0,0.0,0.0,0.0,0.0,0.0,0.0,0.0,0.0,0.0,0.0,0.0,0.0,0.0,0.0,0.0,0.0,0.0,0.0,0.0,0.0,0.0,0.0,0.0,0.0,0.0,0.0,0.0,0.0,0.0,0.0,0.0,0.0,0.0,0.0,0.0,0.0,0.0,0.0,0.0,0.0,0.0,0.0,0.0,0.0,0.0,0.0,0.0,0.0,0.0,0.0,0.0,0.0,0.0,0.0,0.0,0.0,0.0,0.0,0.0,0.0,0.0,0.0,0.0,0.0,0.0,0.0,0.0,0.0,0.0,0.0,0.0,0.0,0.0,0.0,0.0,0.0,0.0,0.0,0.0,0.0,0.0,0.0,0.0,0.0,0.0,0.0,0.0,0.0,-3.079,-3.0827,-3.0304,-2.9252,-2.9015,-2.8473,0.0,0.0,0.0,0.0,0.0,0.0,0.0,0.0,0.0,0.0,0.0,0.0,0.0,0.0,0.0,0.0,0.0,0.0,0.0,0.0,0.0,0.0,0.0,0.0,0.0,0.0,0.0,0.0,0.0,0.0,0.0,0.0,0.0,0.0,0.0,0.0,0.0,0.0,0.0,0.0,0.0,0.0,0.0,0.0,0.0,0.0,0.0,0.0,0.0,0.0,0.0,0.0,0.0,0.0,0.0,0.0,0.0,0.0,0.0,0.0,0.0,0.0,0.0,0.0,0.0,0.0,0.0,0.0,0.0,0.0,0.0,0.0,0.0,0.0,0.0,0.0,0.0,0.0,0.0,0.0,0.0,0.0,0.0,0.0,0.0,0.0,0.0,0.0,0.0,0.0,0.0,0.0,0.0,0.0,0.0,0.0,0.0,0.0,0.0,0.0,0.0,0.0,0.0,0.0,0.0,0.0,0.0,0.0,-3.0521,-3.1359,-3.1327,-3.0748,-2.9572,-2.9605,-2.903,0.0,0.0,0.0,0.0,0.0,0.0,0.0,0.0,0.0,0.0,0.0,0.0,0.0,0.0,0.0,0.0,0.0,0.0,0.0,0.0,0.0,0.0,0.0,0.0,0.0,0.0,0.0,0.0,0.0,0.0,0.0,0.0,0.0,0.0,0.0,0.0,0.0,0.0,0.0,0.0,0.0,0.0,0.0,0.0,0.0,0.0,0.0,0.0,0.0,0.0,0.0,0.0,0.0,0.0,0.0,0.0,0.0,0.0,0.0,0.0,0.0,0.0,0.0,0.0,0.0,0.0,0.0,0.0,0.0,0.0,0.0,0.0,0.0,0.0,0.0,0.0,0.0,0.0,0.0,0.0,0.0,0.0,0.0,0.0,0.0,0.0,0.0,0.0,0.0,0.0,0.0,0.0,0.0,0.0,0.0,0.0,0.0,0.0,0.0,0.0,0.0,0.0,0.0,0.0,0.0,0.0,0.0,0.0,-3.0567,-3.1539,-3.148,-3.1052,-3.0159,-3.0155,-2.9447,0.0,0.0,0.0,0.0,0.0,0.0,0.0,0.0,0.0,0.0,0.0,0.0,0.0,0.0,0.0,0.0,0.0,0.0,0.0,0.0,0.0,0.0,0.0,0.0,0.0,0.0,0.0,0.0,0.0,0.0,0.0,0.0,0.0,0.0,0.0,0.0,0.0,0.0,0.0,0.0,0.0,0.0,0.0,0.0,0.0,0.0,0.0,0.0,0.0,0.0,0.0,0.0,0.0,0.0,0.0,0.0,0.0,0.0,0.0,0.0,0.0,0.0,0.0,0.0,0.0,0.0,0.0,0.0,0.0,0.0,0.0,0.0,0.0,0.0,0.0,0.0,0.0,0.0,0.0,0.0,0.0,0.0,0.0,0.0,0.0,0.0,0.0,0.0,0.0,0.0,0.0,0.0,0.0,0.0,0.0,0.0,0.0,0.0,0.0,0.0,0.0,0.0,0.0,0.0,0.0,0.0,0.0,0.0,-3.1654,-3.3068,-3.3076,-3.2402,-3.0979,-3.0367,-2.9582,0.0,0.0,0.0,0.0,0.0,0.0,0.0,0.0,0.0,0.0,0.0,0.0,0.0,0.0,0.0,0.0,0.0,0.0,0.0,0.0,0.0,0.0,0.0,0.0,0.0,0.0,0.0,0.0,0.0,0.0,0.0,0.0,0.0,0.0,0.0,0.0,0.0,0.0,0.0,0.0,0.0,0.0,0.0,0.0,0.0,0.0,0.0,0.0,-2.8661,0.0,0.0,0.0,0.0,0.0,0.0,0.0,0.0,0.0,0.0,0.0,0.0,0.0,0.0,0.0,0.0,0.0,0.0,0.0,0.0,0.0,0.0,0.0,0.0,0.0,0.0,0.0,0.0,0.0,0.0,0.0,0.0,0.0,0.0,0.0,0.0,0.0,0.0,0.0,0.0,0.0,0.0,0.0,0.0,0.0,0.0,0.0,0.0,0.0,0.0,0.0,0.0,0.0,0.0,0.0,0.0,0.0,0.0,0.0,-3.1901,-3.3476,-3.3509,-3.269,-3.1148,-3.0613,-2.986,0.0,0.0,0.0,0.0,0.0,0.0,0.0,0.0,0.0,0.0,0.0,0.0,0.0,0.0,0.0,0.0,0.0,0.0,0.0,0.0,0.0,0.0,0.0,0.0,0.0,0.0,0.0,0.0,0.0,0.0,0.0,0.0,0.0,0.0,0.0,0.0,0.0,0.0,0.0,0.0,0.0,0.0,0.0,0.0,0.0,0.0,0.0,0.0,0.0,0.0,0.0,0.0,0.0,0.0,0.0,0.0,0.0,0.0,0.0,0.0,0.0,0.0,0.0,0.0,0.0,0.0,0.0,0.0,0.0,0.0,0.0,0.0,0.0,0.0,0.0,0.0,0.0,0.0,0.0,0.0,0.0,0.0,0.0,0.0,0.0,0.0,0.0,0.0,0.0,0.0,0.0,0.0,0.0,0.0,0.0,0.0,0.0,0.0,0.0,0.0,0.0,0.0,0.0,0.0,0.0,0.0,0.0,-3.093,-3.1737,-3.3198,-3.328,-3.2505,-3.0936,-3.0826,-3.0116,-2.8674,0.0,0.0,0.0,0.0,0.0,0.0,0.0,0.0,0.0,0.0,0.0,0.0,0.0,0.0,0.0,0.0,0.0,0.0,0.0,0.0,0.0,0.0,0.0,0.0,0.0,0.0,0.0,0.0,0.0,0.0,0.0,0.0,0.0,0.0,0.0,0.0,0.0,0.0,-2.7718,-2.912,0.0,0.0,0.0,0.0,0.0,0.0,0.0,0.0,-3.1823,0.0,0.0,0.0,0.0,0.0,0.0,0.0,0.0,0.0,0.0,0.0,0.0,0.0,0.0,0.0,0.0,0.0,0.0,0.0,0.0,0.0,0.0,0.0,0.0,0.0,0.0,0.0,0.0,0.0,0.0,0.0,0.0,0.0,0.0,0.0,0.0,0.0,0.0,0.0,0.0,0.0,0.0,0.0,0.0,0.0,0.0,0.0,0.0,0.0,0.0,0.0,0.0,0.0,0.0,0.0,0.0,-2.9791,-3.0549,-3.1343,-3.2216,-3.2823,-3.2397,-3.0887,-3.0797,-3.0032,-2.8416,0.0,0.0,0.0,0.0,0.0,0.0,0.0,0.0,0.0,0.0,0.0,0.0,0.0,0.0,0.0,0.0,0.0,0.0,0.0,0.0,0.0,0.0,0.0,0.0,0.0,0.0,0.0,0.0,0.0,0.0,0.0,0.0,0.0,0.0,0.0,0.0,0.0,0.0,0.0,-2.9856,-3.0326,0.0,0.0,0.0,0.0,0.0,0.0,0.0,0.0,-3.1485,0.0,0.0,0.0,0.0,0.0,0.0,0.0,0.0,0.0,0.0,0.0,0.0,0.0,0.0,0.0,0.0,0.0,0.0,0.0,0.0,0.0,0.0,0.0,0.0,0.0,0.0,0.0,0.0,0.0,0.0,0.0,0.0,0.0,0.0,0.0,0.0,0.0,0.0,0.0,0.0,0.0,0.0,0.0,0.0,0.0,0.0,0.0,0.0,0.0,0.0,0.0,0.0,0.0,0.0,0.0,-2.9475,-3.043,-3.1204,-3.1882,-3.2217,-3.1816,-3.0641,-3.0154,-2.9312,0.0,0.0,0.0,0.0,0.0,0.0,0.0,0.0,0.0,0.0,0.0,0.0,0.0,0.0,0.0,0.0,0.0,0.0,0.0,0.0,0.0,0.0,0.0,0.0,0.0,0.0,0.0,0.0,0.0,0.0,0.0,0.0,0.0,0.0,0.0,0.0,0.0,0.0,0.0,0.0,-3.0272,-3.0844,-3.1279,0.0,0.0,0.0,0.0,0.0,0.0,-3.3111,-3.2767,0.0,0.0,0.0,0.0,0.0,0.0,0.0,0.0,0.0,0.0,0.0,0.0,0.0,0.0,0.0,0.0,0.0,0.0,0.0,0.0,0.0,0.0,0.0,0.0,0.0,0.0,0.0,0.0,0.0,0.0,0.0,0.0,0.0,0.0,0.0,0.0,0.0,0.0,0.0,0.0,0.0,0.0,0.0,0.0,0.0,0.0,0.0,0.0,0.0,0.0,0.0,0.0,0.0,0.0,0.0,-2.914,-3.0055,-3.0807,-3.1464,-3.1457,-3.1062,-3.0379,-2.9526,-2.86,0.0,0.0,0.0,0.0,0.0,0.0,0.0,0.0,0.0,0.0,0.0,0.0,0.0,0.0,0.0,0.0,0.0,0.0,0.0,0.0,0.0,0.0,0.0,0.0,0.0,0.0,0.0,0.0,0.0,0.0,0.0,0.0,0.0,0.0,0.0,0.0,0.0,0.0,0.0,0.0,0.0,-3.1334,-3.1722,-3.2379,0.0,0.0,0.0,0.0,-3.408,-3.4221,0.0,0.0,0.0,0.0,0.0,0.0,0.0,0.0,0.0,0.0,0.0,0.0,0.0,0.0,0.0,0.0,0.0,0.0,0.0,0.0,0.0,0.0,0.0,0.0,0.0,0.0,0.0,0.0,0.0,0.0,0.0,0.0,0.0,0.0,0.0,0.0,0.0,0.0,0.0,0.0,0.0,0.0,0.0,0.0,0.0,0.0,0.0,0.0,0.0,0.0,0.0,0.0,0.0,0.0,0.0,0.0,-2.8113,-2.9052,-2.9787,-3.0437,-3.0442,-3.0393,-3.0211,-2.9435,-2.8282,0.0,0.0,0.0,0.0,0.0,0.0,0.0,0.0,0.0,0.0,0.0,0.0,0.0,0.0,0.0,0.0,0.0,0.0,0.0,0.0,0.0,0.0,0.0,0.0,0.0,0.0,0.0,0.0,0.0,0.0,0.0,0.0,0.0,0.0,0.0,0.0,0.0,0.0,0.0,0.0,0.0,-3.1664,-3.3195,-3.3551,-3.3713,0.0,0.0,-3.3938,-3.408,-3.4105,0.0,0.0,0.0,0.0,0.0,0.0,0.0,0.0,0.0,0.0,0.0,0.0,0.0,0.0,0.0,0.0,0.0,0.0,0.0,0.0,0.0,0.0,0.0,0.0,0.0,0.0,0.0,0.0,0.0,0.0,0.0,0.0,0.0,0.0,0.0,0.0,0.0,0.0,0.0,0.0,0.0,0.0,0.0,0.0,0.0,0.0,0.0,0.0,0.0,0.0,0.0,0.0,0.0,0.0,0.0,-2.6239,-2.7783,-2.8641,-2.9188,-2.9449,-2.9449,-2.9404,-2.9358,-2.8526,-2.7731,0.0,0.0,0.0,0.0,0.0,0.0,0.0,0.0,0.0,0.0,0.0,0.0,0.0,0.0,0.0,0.0,0.0,0.0,0.0,0.0,0.0,0.0,0.0,0.0,0.0,0.0,0.0,0.0,0.0,0.0,0.0,0.0,0.0,0.0,0.0,0.0,0.0,0.0,0.0,0.0,0.0,0.0,-3.3414,-3.368,0.0,0.0,0.0,-3.3972,-3.4023,0.0,0.0,0.0,0.0,0.0,0.0,0.0,0.0,0.0,0.0,0.0,0.0,0.0,0.0,0.0,0.0,0.0,0.0,0.0,0.0,0.0,0.0,0.0,0.0,0.0,0.0,0.0,0.0,0.0,0.0,0.0,0.0,0.0,0.0,0.0,0.0,0.0,0.0,0.0,0.0,0.0,0.0,0.0,0.0,0.0,0.0,0.0,0.0,0.0,0.0,0.0,0.0,0.0,0.0,0.0,0.0,0.0,-2.7607,-2.825,-2.8623,-2.8788,-2.8596,-2.8516,-2.8612,-2.7802,0.0,0.0,0.0,0.0,0.0,0.0,0.0,0.0,0.0,0.0,0.0,0.0,0.0,0.0,0.0,0.0,0.0,0.0,0.0,0.0,0.0,0.0,0.0,0.0,0.0,0.0,0.0,-2.4983,0.0,0.0,0.0,0.0,0.0,0.0,0.0,0.0,0.0,0.0,0.0,0.0,0.0,0.0,-3.1799,-3.3377,-3.3643,-3.3753,0.0,0.0,-3.3921,-3.3972,-3.3947,-3.3887,0.0,0.0,0.0,0.0,0.0,0.0,0.0,0.0,0.0,0.0,0.0,0.0,0.0,0.0,0.0,0.0,0.0,0.0,0.0,0.0,0.0,0.0,0.0,0.0,0.0,0.0,0.0,0.0,0.0,0.0,0.0,0.0,0.0,0.0,0.0,0.0,0.0,0.0,0.0,0.0,0.0,0.0,0.0,0.0,0.0,0.0,0.0,0.0,0.0,0.0,0.0,0.0,0.0,0.0,0.0,-2.7474,-2.7579,-2.7979,-2.8659,-2.7979,-2.7882,-2.8479,-2.769,-2.6871,0.0,0.0,0.0,0.0,0.0,0.0,0.0,0.0,0.0,0.0,0.0,0.0,0.0,0.0,0.0,0.0,0.0,0.0,0.0,0.0,0.0,0.0,0.0,0.0,0.0,0.0,0.0,0.0,0.0,0.0,0.0,0.0,0.0,0.0,0.0,0.0,0.0,0.0,0.0,0.0,0.0,-3.2405,-3.3449,-3.3661,-3.3753,0.0,0.0,-3.3895,-3.3895,-3.386,-3.3762,-3.3615,0.0,0.0,0.0,0.0,0.0,0.0,0.0,0.0,0.0,0.0,0.0,0.0,0.0,0.0,0.0,0.0,0.0,0.0,0.0,0.0,0.0,0.0,0.0,0.0,0.0,0.0,0.0,0.0,0.0,0.0,0.0,0.0,0.0,0.0,0.0,0.0,0.0,0.0,0.0,0.0,0.0,0.0,0.0,0.0,0.0,0.0,0.0,0.0,0.0,0.0,0.0,0.0,0.0,-2.6165,-2.7244,-2.7261,-2.74,-2.7693,-2.7417,-2.7353,-2.7581,-2.7209,-2.6853,0.0,0.0,0.0,0.0,0.0,0.0,0.0,0.0,0.0,0.0,0.0,0.0,0.0,0.0,0.0,0.0,0.0,0.0,0.0,0.0,0.0,0.0,0.0,0.0,0.0,0.0,0.0,0.0,-2.8781,-2.8963,-2.9101,0.0,0.0,0.0,0.0,0.0,0.0,0.0,0.0,0.0,0.0,-3.2401,-3.3468,-3.3633,0.0,0.0,-3.386,-3.386,-3.386,-3.3815,-3.3753,-3.3633,-3.3208,0.0,0.0,0.0,0.0,0.0,0.0,0.0,0.0,0.0,0.0,0.0,0.0,0.0,0.0,0.0,0.0,0.0,0.0,0.0,0.0,0.0,0.0,0.0,0.0,0.0,0.0,0.0,0.0,0.0,0.0,0.0,0.0,0.0,0.0,0.0,0.0,0.0,0.0,0.0,0.0,0.0,0.0,0.0,0.0,0.0,0.0,0.0,0.0,0.0,0.0,0.0,0.0,-2.6304,-2.707,-2.707,-2.707,-2.7087,-2.707,-2.7055,-2.7007,-2.6942,-2.6876,0.0,0.0,0.0,0.0,0.0,0.0,0.0,0.0,0.0,0.0,0.0,0.0,0.0,0.0,0.0,0.0,0.0,0.0,0.0,0.0,0.0,0.0,0.0,0.0,0.0,0.0,0.0,0.0,-2.9917,-2.9828,-2.9369,0.0,0.0,0.0,0.0,0.0,0.0,0.0,0.0,0.0,0.0,-3.2624,-3.3458,-3.3605,-3.3661,-3.3762,-3.3807,-3.3807,-3.3807,-3.378,-3.3726,-3.3633,0.0,0.0,0.0,0.0,0.0,0.0,0.0,0.0,0.0,0.0,0.0,0.0,0.0,0.0,0.0,0.0,0.0,0.0,0.0,0.0,0.0,0.0,0.0,0.0,0.0,0.0,0.0,-2.6712,0.0,0.0,-2.6162,0.0,0.0,0.0,0.0,0.0,0.0,0.0,0.0,0.0,0.0,0.0,0.0,0.0,0.0,0.0,0.0,0.0,0.0,0.0,0.0,0.0,0.0,-2.6258,-2.7007,-2.7024,-2.7024,-2.7024,-2.7024,-2.7024,-2.7009,-2.6926,-2.6876,-2.6876,0.0,0.0,0.0,0.0,0.0,0.0,0.0,0.0,0.0,0.0,0.0,0.0,0.0,0.0,0.0,0.0,0.0,0.0,0.0,0.0,0.0,0.0,0.0,0.0,0.0,0.0,-3.1408,-3.1529,-3.1038,0.0,0.0,0.0,0.0,0.0,0.0,0.0,0.0,0.0,0.0,-3.257,-3.319,-3.3549,-3.3605,-3.3661,-3.378,-3.3807,-3.3807,-3.3807,-3.3771,-3.3671,0.0,0.0,0.0,0.0,0.0,0.0,0.0,0.0,0.0,0.0,0.0,0.0,0.0,0.0,0.0,0.0,0.0,0.0,0.0,0.0,0.0,0.0,0.0,0.0,0.0,0.0,0.0,-2.8824,-2.8182,0.0,0.0,0.0,0.0,0.0,0.0,0.0,0.0,0.0,0.0,0.0,-2.8258,-2.8395,0.0,0.0,0.0,0.0,0.0,0.0,0.0,0.0,0.0,0.0,0.0,0.0,-2.6571,-2.6909,-2.6926,-2.7147,-2.7624,-2.7181,-2.7114,-2.7521,-2.7029,-2.6775,-2.6759,0.0,0.0,0.0,0.0,0.0,0.0,0.0,0.0,0.0,0.0,0.0,0.0,0.0,0.0,0.0,0.0,0.0,0.0,0.0,0.0,0.0,0.0,0.0,0.0,0.0,-2.9647,0.0,0.0,0.0,0.0,0.0,0.0,0.0,0.0,0.0,0.0,0.0,-3.1749,-3.2469,-3.2862,-3.3208,-3.3491,-3.3538,-3.3577,0.0,0.0,0.0,0.0,0.0,0.0,0.0,0.0,0.0,0.0,0.0,0.0,0.0,0.0,-3.3341,-3.2692,-3.2163,-3.1859,-3.1923,0.0,0.0,0.0,0.0,0.0,0.0,0.0,0.0,0.0,0.0,0.0,0.0,0.0,0.0,-3.0415,0.0,-2.9239,0.0,0.0,0.0,0.0,0.0,0.0,0.0,0.0,-2.7958,-2.8265,-2.8912,-2.9041,-2.8939,0.0,-2.8679,-2.7775,0.0,0.0,0.0,0.0,0.0,0.0,0.0,0.0,-2.6877,-2.7165,-2.7233,-2.7589,-2.8285,-2.7623,-2.7385,-2.7791,-2.708,-2.6708,-2.6708,-2.6101,-2.5665,0.0,0.0,0.0,0.0,0.0,0.0,0.0,0.0,0.0,0.0,0.0,0.0,0.0,0.0,0.0,0.0,0.0,0.0,0.0,0.0,0.0,0.0,0.0,-3.0667,0.0,0.0,0.0,0.0,0.0,0.0,0.0,0.0,0.0,-3.0976,-3.1507,-3.2122,-3.2813,-3.3042,-3.3286,-3.3785,0.0,0.0,0.0,0.0,0.0,0.0,0.0,-3.543,-3.5337,-3.5747,-3.6035,-3.5859,-3.5702,-3.5645,-3.59,0.0,0.0,-3.4592,-3.4059,-3.3702,-3.3784,-3.3834,-3.3817,-3.3817,-3.3834,-3.3898,0.0,0.0,0.0,0.0,0.0,0.0,0.0,0.0,-3.1634,-3.1396,0.0,-3.017,0.0,0.0,0.0,0.0,-2.7771,-2.7717,0.0,0.0,-2.86,-2.89,-2.9541,-3.0141,-2.9926,-2.9022,-2.9681,-2.9501,-2.8507,-2.7348,0.0,0.0,0.0,0.0,0.0,0.0,-2.7097,-2.7789,-2.7823,-2.8195,-2.8975,-2.8212,-2.7806,-2.7772,-2.7097,-2.6708,-2.6708,-2.6555,-2.615,-2.548,-2.5144,0.0,0.0,0.0,0.0,0.0,0.0,0.0,0.0,0.0,0.0,0.0,0.0,0.0,0.0,0.0,0.0,0.0,0.0,0.0,0.0,-3.1456,0.0,0.0,0.0,0.0,0.0,0.0,0.0,0.0,0.0,0.0,-3.1184,-3.198,-3.2672,-3.2884,0.0,0.0,0.0,0.0,-3.503,-3.5937,-3.6095,-3.6124,-3.6237,-3.6285,-3.6274,-3.615,0.0,0.0,-3.6012,-3.5994,-3.6253,-3.6884,-3.6435,-3.5824,-3.5663,-3.5504,-3.5432,-3.5432,-3.5397,-3.5486,-3.5486,-3.5457,-3.5593,-3.5367,0.0,0.0,0.0,0.0,-3.3949,-3.3421,-3.2678,-3.2514,-3.1935,-3.1111,-3.074,0.0,0.0,0.0,0.0,0.0,0.0,-2.9238,-2.9297,-2.923,-2.9524,-3.0137,-3.0142,-3.0014,-2.9749,-2.9804,-2.9403,-2.8624,-2.8226,-2.7777,-2.7291,0.0,0.0,0.0,0.0,-2.8163,-2.8347,-2.8364,-2.8716,-2.9475,-2.8749,-2.8112,-2.7576,-2.6976,-2.6606,-2.6572,-2.652,-2.6333,-2.603,-2.541,0.0,0.0,0.0,0.0,0.0,0.0,0.0,0.0,0.0,0.0,0.0,0.0,0.0,0.0,0.0,0.0,0.0,0.0,0.0,-3.0589,-3.1654,-3.2232,0.0,0.0,0.0,0.0,0.0,0.0,0.0,0.0,0.0,-3.1706,-3.2127,-3.2541,0.0,0.0,-3.402,-3.4447,-3.5064,-3.5592,-3.5903,-3.5951,0.0,-3.606,-3.6625,-3.6991,-3.6973,-3.743,-3.7783,-3.7752,-3.7721,-3.7749,-3.7954,-3.7808,-3.7662,-3.7507,-3.6536,-3.5851,-3.5779,-3.5841,-3.5854,-3.5872,-3.5872,-3.5939,-3.6708,-3.5495,-3.5116,-3.4888,-3.4747,-3.4583,-3.4101,-3.3401,-3.3227,-3.271,-3.1944,-3.1477,-3.113,-3.0853,-3.0349,0.0,0.0,0.0,-2.9781,-2.992,-2.9762,-3.0082,-3.0666,-3.0475,-3.032,-3.0241,-3.0106,-2.9752,-2.9241,-2.9241,-2.8876,-2.8163,0.0,0.0,-2.7952,-2.8352,-2.8758,-2.9025,-2.9042,-2.941,-3.0151,-2.9159,-2.8256,-2.752,-2.6889,-2.6554,-2.6485,-2.6434,-2.6399,-2.6279,-2.5791,-2.539,0.0,0.0,0.0,0.0,0.0,0.0,0.0,0.0,0.0,0.0,0.0,-2.3594,-2.4683,0.0,0.0,0.0,-2.8201,-2.9593,-3.0905,-3.169,0.0,0.0,0.0,0.0,0.0,0.0,0.0,-3.15,-3.1614,-3.1765,-3.1912,-3.2108,-3.2371,-3.2659,-3.3529,-3.4318,-3.4789,0.0,-3.6331,-3.6735,-3.6821,-3.6903,-3.6929,-3.7393,-3.7765,-3.7796,-3.8162,-3.8491,-3.851,-3.8478,-3.8446,-3.8415,-3.8382,-3.8382,-3.8382,-3.758,-3.6911,-3.6898,-3.6929,-3.6942,-3.6942,-3.6924,-3.6973,-3.7966,-3.631,-3.5381,-3.4848,-3.4666,-3.4473,-3.4264,-3.3972,-3.3762,-3.3549,-3.3238,-3.2301,-3.1765,-3.1512,-3.0512,0.0,-2.9951,-2.9765,-3.004,-3.0625,-3.0275,-3.0475,-3.1134,-3.0935,-3.0733,-3.0468,-3.0485,-3.0384,-3.0172,-3.0172,-2.9845,-2.919,-2.8837,-2.8643,-2.8572,-2.8643,-2.907,-2.9721,-2.9738,-3.0112,-3.0821,-2.9499,-2.8373,-2.7604,-2.6937,-2.6552,-2.6502,-2.6364,-2.6312,-2.6295,-2.6222,-2.587,-2.5155,0.0,0.0,0.0,0.0,0.0,0.0,0.0,0.0,0.0,0.0,0.0,0.0,0.0,0.0,0.0,-2.9413,0.0,-3.0837,-3.1584,0.0,0.0,0.0,-3.1688,-3.15,-3.1479,-3.15,-3.15,0.0,0.0,-3.1875,-3.2036,-3.2284,-3.251,-3.347,-3.4505,-3.5341,-3.6299,-3.7172,-3.7887,-3.8186,-3.8271,-3.8204,-3.8291,-3.8342,-3.8387,-3.8491,-3.851,-3.851,-3.8491,-3.8478,-3.8446,-3.8415,-3.8415,-3.8415,-3.8423,-3.851,-3.8342,-3.836,-3.8396,-3.8305,-3.8287,-3.83,-3.8573,-3.7959,-3.6295,-3.523,-3.4602,-3.434,-3.4148,-3.3972,-3.3726,-3.3491,-3.3274,-3.2813,-3.2488,-3.2141,-3.1602,-3.132,-3.1337,-3.1119,-3.1018,-3.1074,-3.0959,-3.0886,-3.0814,-3.0651,-3.0526,-3.0401,-3.0316,-3.0205,-3.006,-3.006,-2.9935,-2.9637,-2.9544,-2.9328,-2.8976,-2.9527,-2.993,-3.0095,-3.0095,-3.0219,-3.051,-2.9625,-2.887,-2.8201,-2.7544,-2.6895,-2.6308,-2.6293,-2.6277,-2.6239,-2.6203,-2.6085,-2.5919,-2.532,0.0,0.0,0.0,0.0,0.0,0.0,0.0,0.0,0.0,-2.5864,-2.67,0.0,-2.841,0.0,-2.959,-3.0577,-3.1345,-3.1531,0.0,0.0,-3.1596,-3.1483,-3.1368,-3.1445,-3.15,-3.15,-3.1559,-3.1654,-3.1837,-3.2449,-3.296,-3.3195,-3.4146,-3.5153,-3.6059,-3.7021,-3.7735,-3.7982,-3.807,-3.8104,-3.8241,-3.8307,-3.8354,-3.8415,-3.8478,-3.851,-3.851,-3.8609,-3.8658,-3.8627,-3.8627,-3.8627,-3.8627,-3.8676,-3.8658,-3.8627,-3.8627,-3.8627,-3.8627,-3.8627,-3.8627,-3.8999,-3.8458,-3.6957,-3.5825,-3.4969,-3.4364,-3.4023,-3.386,-3.3615,-3.3375,-3.3122,-3.2787,-3.2473,-3.2143,-3.191,-3.1726,-3.1542,-3.1423,-3.1269,-3.1112,-3.0935,-3.0773,-3.0609,-3.0384,-3.0231,-3.0146,-3.0017,-2.9902,-2.977,-2.9754,-2.9754,-2.9649,-2.9605,-2.95,-2.9292,-2.9762,-3.0,-2.9984,-3.0103,-3.0189,-3.03,-2.9584,-2.8902,-2.8312,-2.7644,-2.6932,-2.6236,-2.6239,-2.6222,-2.622,-2.6203,-2.6203,-2.6187,-2.5768,-2.5485,0.0,0.0,0.0,0.0,0.0,0.0,0.0,0.0,0.0,0.0,0.0,-2.9433,-2.9867,-3.037,-3.0946,-3.1487,-3.1538,-3.1517,-3.1576,-3.1517,-3.1462,-3.1312,-3.1406,-3.1462,-3.1423,-3.1504,-3.1754,-3.219,-3.2738,-3.3405,-3.4144,-3.4935,-3.5651,-3.6292,-3.7149,-3.781,-3.7845,-3.7933,-3.7967,-3.8088,-3.8207,-3.8274,-3.8354,-3.8368,-3.8433,-3.8446,-3.8528,-3.8609,-3.8609,-3.8658,-3.8707,-3.8707,-3.8707,-3.8707,-3.8707,-3.8707,-3.8707,-3.8707,-3.8707,-3.8707,-3.9346,-3.847,-3.7408,-3.6453,-3.5546,-3.443,-3.3842,-3.3689,-3.3481,-3.3214,-3.2902,-3.2525,-3.2179,-3.18,-3.1763,-3.1542,-3.1295,-3.1173,-3.1072,-3.0935,-3.0651,-3.0485,-3.0384,-3.0087,-2.993,-2.9766,-2.9665,-2.9592,-2.9473,-2.9428,-2.9428,-2.9428,-2.9275,-2.9259,-2.9428,-2.956,-2.9677,-2.9722,-2.9886,-3.0017,-3.013,-2.9508,-2.8911,-2.8286,-2.7564,-2.6932,-2.6313,-2.6198,-2.6168,-2.6168,-2.6168,-2.6168,-2.6203,-2.6203,-2.6165,0.0,-2.6122,0.0,0.0,0.0,0.0,0.0,0.0,0.0,0.0,-2.9597,-3.0408,-3.1206,-3.1295,-3.1312,-3.144,-3.1479,-3.1479,-3.1462,-3.1479,-3.1423,-3.1312,-3.1385,-3.1457,-3.1431,-3.1602,-3.2025,-3.2801,-3.3162,-3.3883,-3.5087,-3.5649,-3.6025,-3.6378,-3.7057,-3.7594,-3.7667,-3.781,-3.7916,-3.7967,-3.8088,-3.8207,-3.8274,-3.8307,-3.834,-3.835,-3.8428,-3.851,-3.851,-3.859,-3.8658,-3.8658,-3.8689,-3.8707,-3.8707,-3.8707,-3.8707,-3.8707,-3.8707,-3.8707,-3.9618,-3.9151,-3.7517,-3.6645,-3.6176,-3.4485,-3.3698,-3.3587,-3.3316,-3.2916,-3.2525,-3.2267,-3.2001,-3.18,-3.1462,-3.1269,-3.119,-3.0935,-3.0733,-3.0609,-3.0485,-3.0258,-2.9941,-2.9837,-2.9738,-2.9547,-2.9457,-2.9305,-2.9183,-2.9059,-2.8982,-2.8936,-2.8873,-2.8936,-2.8936,0.0,0.0,0.0,-2.9621,-2.9798,-2.9853,-2.9767,-2.9361,-2.8788,-2.8103,0.0,-2.6738,-2.6225,-2.6007,-2.6026,-2.6026,0.0,0.0,0.0,0.0,0.0,0.0,0.0,0.0,0.0,0.0,0.0,-2.9098,-2.9282,-2.9582,-3.0448,-3.1038,-3.1213,-3.1213,-3.123,-3.1269,-3.1247,-3.123,-3.1286,-3.1286,-3.123,-3.123,-3.123,-3.1506,-3.2213,-3.2321,-3.2673,-3.3551,-3.4232,-3.4794,-3.5336,-3.5937,-3.6446,-3.6819,-3.7152,-3.741,-3.7594,-3.7775,-3.7899,-3.7916,-3.7985,-3.8036,-3.807,-3.8189,-3.8307,-3.8322,-3.8368,-3.8415,-3.8415,-3.8496,-3.8541,-3.8541,-3.8609,-3.8689,-3.8707,-3.8707,-3.8707,-3.8707,-3.8707,-3.8707,-3.9575,-3.9233,-3.7492,-3.6607,0.0,-3.444,-3.353,-3.3345,-3.3135,-3.2787,-3.2267,-3.2054,-3.1837,-3.1631,-3.1346,-3.1112,-3.0935,-3.0692,-3.0526,-3.0359,-3.0172,-2.9984,-2.9793,-2.9633,-2.9486,-2.9291,-2.9152,-2.9045,-2.8951,-2.8905,-2.8826,-2.881,-2.8732,-2.8747,-2.881,-2.881,-2.892,-2.9198,-2.9305,-2.9502,-2.9649,-2.9665,-2.9355,-2.8747,-2.8408,0.0,0.0,0.0,0.0,0.0,0.0,0.0,0.0,-2.7097,0.0,-2.7531,-2.7619,-2.7822,-2.8168,-2.8576,-2.8979,-2.9383,-2.9845,-3.0206,-3.0398,-3.083,-3.1112,-3.119,-3.119,-3.119,-3.119,-3.119,-3.119,-3.119,-3.119,-3.119,-3.1224,-3.1512,-3.1907,-3.2337,-3.2785,-3.3359,-3.4199,-3.4699,-3.5211,-3.5714,-3.6201,-3.6544,-3.6731,-3.6987,-3.722,-3.7484,-3.7631,-3.7793,-3.781,-3.7881,-3.7933,-3.7985,-3.807,-3.8156,-3.8156,-3.8238,-3.8336,-3.8336,-3.8382,-3.8446,-3.851,-3.8559,-3.8609,-3.8676,-3.8707,-3.8707,-3.8707,-3.8707,-3.8707,-3.9452,-3.9115,-3.7363,-3.6518,-3.6127,-3.4308,-3.3357,-3.3024,0.0,0.0,0.0,-3.1893,-3.1634,-3.144,-3.123,-3.0992,-3.0651,-3.0526,-3.0359,-3.013,-2.9913,-2.9722,-2.9677,-2.938,-2.9167,-2.9045,-2.8936,-2.8842,-2.8747,-2.8747,-2.87,-2.8684,-2.8573,-2.8589,-2.87,-2.8684,-2.8779,-2.8982,-2.9029,-2.9167,-2.9366,-2.9366,-2.9201,-2.8682,-2.8554,-2.826,-2.7798,-2.7729,-2.7729,-2.777,-2.7891,-2.7931,-2.797,-2.797,-2.8076,-2.819,-2.8303,-2.8408,-2.8556,-2.9204,-2.9575,-2.9615,-3.0261,-3.0733,-3.0935,-3.0975,-3.1032,-3.1151,-3.1168,-3.1151,-3.1168,-3.119,-3.119,-3.119,-3.1309,-3.1393,-3.1427,-3.2036,-3.2544,-3.2737,-3.3337,-3.4066,-3.478,-3.507,-3.5385,-3.6053,-3.6318,-3.6461,-3.6544,-3.6829,-3.7087,-3.7299,-3.7466,-3.7594,-3.7649,-3.7757,-3.7864,-3.7864,-3.7933,-3.8002,-3.8036,-3.8138,-3.8223,-3.8274,-3.8354,-3.8401,-3.8446,-3.8478,-3.8559,-3.8658,-3.8676,-3.8707,-3.8707,-3.8707,-3.8707,-3.9376,-3.898,-3.7266,-3.6343,-3.5908,-3.4182,-3.3135,-3.2672,-3.2558,-3.2284,-3.193,-3.1728,-3.1483,-3.1247,-3.1032,-3.079,-3.0526,-3.0316,-3.0087,-2.9853,-2.9754,-2.9531,-2.9213,-2.9167,-2.906,-2.8842,-2.8732,-2.8621,-2.8636,-2.8508,-2.8396,-2.8284,-2.8284,-2.8284,-2.8284,-2.8284,-2.8429,-2.8668,-2.8826,-2.8967,-2.9013,-2.9013,-2.9028,-2.9009,-2.8455,-2.818,-2.8156,-2.7726,-2.7474,-2.7557,-2.7664,-2.7786,-2.781,-2.7963,-2.8289,-2.8878,-2.896,-2.9264,-2.9887,-3.0103,-3.0278,-3.0336,-3.046,-3.0609,-3.0733,-3.0855,-3.0912,-3.0952,-3.0992,-3.1015,-3.1015,-3.1128,-3.1241,-3.1292,-3.1782,-3.2121,-3.2138,-3.278,-3.3457,-3.3998,-3.4295,-3.4711,-3.5399,-3.5613,-3.5744,-3.6088,-3.6225,-3.631,-3.6502,-3.6788,-3.7009,-3.7147,-3.7241,-3.7354,-3.7466,-3.754,-3.7649,-3.7721,-3.7846,-3.7916,-3.7967,-3.8036,-3.807,-3.8207,-3.8274,-3.8289,-3.8322,-3.8433,-3.8478,-3.8559,-3.8609,-3.8707,-3.8689,-3.8707,-3.8707,-3.9264,-3.8775,-3.7128,-3.619,-3.5745,-3.38,-3.2787,-3.2456,-3.2196,-3.1982,-3.1802,-3.1562,-3.1351,-3.119,-3.0814,-3.0609,-3.0443,-3.013,-2.9913,-2.9754,-2.9502,-2.9275,-2.9091,-2.9014,-2.8826,-2.8684,-2.8541,-2.8429,-2.8381,-2.8235,-2.8152,-2.8103,-2.8088,-2.8103,-2.8103,-2.8103,-2.8137,-2.8299,-2.8558,-2.8795,-2.8842,-2.8858,-2.8858,-2.8905,-2.8653,-2.8496,-2.8526,-2.8408,-2.8351,-2.8351,-2.8586,-2.8699,-2.8699,-2.8871,-2.9059,-2.9426,-2.9528,-2.9744,-3.007,-3.0248,-3.0316,-3.0359,-3.0316,-3.0582,-3.1106,-3.0925,-3.0831,-3.0912,-3.0952,-3.1103,-3.1506,-3.1597,-3.1789,-3.2276,-3.2613,-3.284,-3.2983,-3.3541,-3.4134,-3.4472,-3.4861,-3.525,-3.5633,-3.5773,-3.5817,-3.601,-3.6096,-3.6251,-3.6461,-3.6626,-3.6829,-3.7009,-3.7087,-3.7182,-3.7334,-3.741,-3.7466,-3.7522,-3.7649,-3.7757,-3.781,-3.7898,-3.7967,-3.807,-3.8122,-3.8189,-3.8274,-3.8372,-3.8401,-3.851,-3.8559,-3.8609,-3.8658,-3.8707,-3.8707,-3.8971,-3.8427,-3.6883,-3.5841,-3.5006,-3.3286,-3.2456,-3.2319,-3.1946,-3.1763,-3.1651,-3.1389,-3.1196,-3.1032,-3.0651,-3.0384,-3.0231,-2.9941,-2.9694,-2.9547,-2.9229,-2.9075,-2.8998,-2.8826,-2.8684,-2.8525,-2.8396,-2.8299,-2.8152,-2.8054,-2.7955,-2.7955,-2.7905,-2.792,-2.7955,-2.7955,-2.797,-2.8005,-2.8299,-2.8541,-2.8652,-2.8652,-2.87,-2.8747,-2.8747,-2.8747,-2.8794,-2.8967,-2.9045,-2.9045,-2.9275,-2.9412,-2.9428,-2.9563,-2.9653,-2.9681,-2.9814,-2.9902,-2.9973,-3.006,-3.0228,-3.0434,-3.0434,-3.0789,-3.1501,-3.1312,-3.1133,-3.1274,-3.1399,-3.16,-3.2085,-3.2227,-3.2488,-3.3084,-3.3345,-3.3489,-3.3625,-3.4259,-3.4699,-3.481,-3.5267,-3.5622,-3.5622,-3.5684,-3.5773,-3.5834,-3.5993,-3.6208,-3.6377,-3.6419,-3.6568,-3.6788,-3.6908,-3.7027,-3.7182,-3.722,-3.7297,-3.7354,-3.7484,-3.7577,-3.7685,-3.7757,-3.7846,-3.7933,-3.7984,-3.807,-3.8189,-3.8256,-3.8322,-3.8433,-3.8496,-3.8559,-3.8658,-3.8707,-3.8707,-3.8553,-3.7526,-3.6497,-3.4909,-3.3234,-3.2645,-3.2301,-3.2126,-3.191,-3.1614,-3.1286,-3.123,-3.0992,-3.0593,-3.0526,-3.0258,-2.9897,-2.981,-2.9544,-2.9167,-2.9137,-2.8951,-2.8684,-2.8621,-2.8477,-2.8268,-2.825,-2.8152,-2.8005,-2.8005,-2.797,-2.779,-2.769,-2.7755,-2.7806,-2.7836,-2.792,-2.802,-2.8054,-2.8103,-2.8235,-2.8235,-2.8381,-2.8621,-2.8636,-2.8684,-2.8794,-2.8794,-2.8842,-2.8842,-2.9045,-2.9137,-2.9183,-2.9366,-2.9518,-2.9518,-2.9518,-2.9621,-2.9826,-2.9913,-3.0402,-3.1106,-3.1172,-3.1499,-3.2138,-3.2154,-3.2258,-3.2481,-3.2646,-3.264,-3.2807,-3.2877,-3.2971,-3.3249,-3.3751,-3.4147,-3.4314,-3.4919,-3.5419,-3.5476,-3.5509,-3.5639,-3.5622,-3.5639,-3.5667,-3.5773,-3.5888,-3.6079,-3.6208,-3.6251,-3.6293,-3.6502,-3.6626,-3.6806,-3.6987,-3.7027,-3.7105,-3.7259,-3.7297,-3.741,-3.7558,-3.7613,-3.7649,-3.7846,-3.7933,-3.8002,-3.807,-3.8138,-3.8307,-3.8354,-3.8433,-3.8559,-3.8658,-3.8707,-3.8707,-3.8324,-3.7247,-3.6279,-3.465,-3.2793,-3.2387,-3.2161,-3.1893,-3.1617,-3.1368,-3.1055,-3.0855,-3.0675,-3.0485,-3.0215,-2.9984,-2.981,-2.9499,-2.9289,-2.9075,-2.8905,-2.8716,-2.8573,-2.8429,-2.8284,-2.8186,-2.8039,-2.7955,-2.7855,-2.779,-2.774,-2.7735,-2.8015,-2.824,-2.8321,-2.8666,-2.8877,-2.8929,-2.8929,-2.8996,-2.9046,-2.8449,-2.8152,-2.8235,-2.8332,-2.8381,-2.8444,-2.8589,-2.8684,-2.8684,-2.8811,-2.892,-2.892,-2.9137,-2.9275,-2.9291,-2.9795,-3.0156,-3.0215,-3.0679,-3.1112,-3.1465,-3.1465,-3.1803,-3.264,-3.2722,-3.2979,-3.3526,-3.3119,-3.2817,-3.323,-3.3387,-3.3689,-3.4151,-3.4535,-3.4731,-3.4885,-3.5182,-3.5429,-3.552,-3.552,-3.5549,-3.5594,-3.5639,-3.5667,-3.5773,-3.5861,-3.5949,-3.6079,-3.6062,-3.6165,-3.6293,-3.6395,-3.652,-3.6766,-3.6806,-3.6926,-3.7066,-3.7105,-3.7182,-3.7372,-3.7484,-3.754,-3.7703,-3.7792,-3.788,-3.7984,-3.8052,-3.8138,-3.8238,-3.8368,-3.8496,-3.8559,-3.859,-3.8609,-3.7863,-3.6698,-3.5467,-3.4035,-3.2541,-3.2214,-3.1929,-3.1709,-3.1389,-3.1117,-3.0855,-3.0609,-3.0401,-3.0284,-2.9941,-2.9766,-2.9694,-2.9305,-2.9091,-2.8998,-2.8716,-2.8573,-2.8493,-2.8284,-2.8137,-2.8088,-2.789,-2.779,-2.7755,-2.7865,-2.7859,-2.7964,-2.848,-2.8808,-2.8868,-2.9247,-2.9456,-2.9456,-2.9456,-2.951,-2.9445,-2.8809,-2.8399,-2.8566,-2.8652,-2.8702,-2.8702,-2.8935,-2.9033,-2.9049,-2.9195,-2.9292,-2.9292,-2.9469,-2.958,-2.9611,-3.0244,-3.0672,-3.0688,-3.1278,-3.1678,-3.1837,-3.1853,-3.2255,-3.2998,-3.3225,-3.3484,-3.4023,-3.3466,-3.325,-3.3738,-3.3947,-3.4306,-3.488,-3.4994,-3.5041,-3.5182,-3.5245,-3.5291,-3.5446,-3.5492,-3.5537,-3.5594,-3.5622,-3.5622,-3.5711,-3.5728,-3.5817,-3.5888,-3.5932,-3.5993,-3.6122,-3.614,-3.6293,-3.6561,-3.6661,-3.6725,-3.6846,-3.6908,-3.7027,-3.7182,-3.7279,-3.7392,-3.7522,-3.7595,-3.7703,-3.7845,-3.7915,-3.8052,-3.8204,-3.8336,-3.8401,-3.8465,-3.8478,-3.851,-3.6888,-3.5607,-3.3616,-3.268,-3.2388,-3.2018,-3.1726,-3.1483,-3.1291,-3.0935,-3.0568,-3.0443,-3.0172,-2.9837,-2.981,-2.9694,-2.9518,-2.9229,-2.8951,-2.8842,-2.8636,-2.8477,-2.8235,-2.8186,-2.8088,-2.789,-2.779,-2.7771,-2.7715,-2.8218,-2.8547,-2.8607,-2.9044,-2.9302,-2.9262,-2.9296,-2.9142,-2.9315,-2.93,-2.9226,-2.9212,-2.9248,-2.9475,-2.9796,-2.9887,-2.9811,-2.9841,-3.0029,-3.0103,-3.0118,-3.0279,-3.0463,-3.0479,-3.0581,-3.0651,-3.0682,-3.0995,-3.1176,-3.1225,-3.1483,-3.1933,-3.2428,-3.249,-3.2828,-3.347,-3.355,-3.3649,-3.3729,-3.3838,-3.4055,-3.4252,-3.4365,-3.4463,-3.4658,-3.4756,-3.4851,-3.5088,-3.5105,-3.5152,-3.5291,-3.54,-3.5475,-3.5594,-3.5639,-3.5577,-3.5622,-3.5639,-3.5667,-3.5773,-3.5817,-3.5861,-3.5993,-3.6036,-3.6105,-3.6419,-3.652,-3.6561,-3.6684,-3.6788,-3.6851,-3.697,-3.7087,-3.7223,-3.7337,-3.7485,-3.7595,-3.7685,-3.788,-3.8036,-3.8189,-3.8256,-3.8322,-3.8401,-3.8382,-3.8446,-3.629,-3.4598,-3.3117,-3.2371,-3.2196,-3.191,-3.1596,-3.1291,-3.1038,-3.0797,-3.0468,-3.0172,-2.9924,-2.9793,-2.9454,-2.9305,-2.9245,-2.9014,-2.8826,-2.8636,-2.8429,-2.8284,-2.8186,-2.8039,-2.789,-2.779,-2.7725,-2.7784,-2.807,-2.8286,-2.8575,-2.8996,-2.9492,-2.9817,-2.9876,-3.0174,-3.0365,-3.0365,-3.038,-3.038,-3.0336,-3.0437,-3.0552,-3.0663,-3.0123,-2.9863,-2.9863,-3.0008,-3.0046,-3.0046,-3.0241,-3.0345,-3.0345,-3.0567,-3.0736,-3.0834,-3.1279,-3.1601,-3.1663,-3.2107,-3.2505,-3.2725,-3.2772,-3.2924,-3.3335,-3.345,-3.3503,-3.3658,-3.3745,-3.3899,-3.4,-3.43,-3.4497,-3.4546,-3.4578,-3.4643,-3.4787,-3.4835,-3.4947,-3.5135,-3.5308,-3.54,-3.5503,-3.552,-3.5566,-3.5594,-3.5639,-3.5622,-3.5667,-3.5667,-3.5711,-3.58,-3.5888,-3.5949,-3.6148,-3.6268,-3.6353,-3.652,-3.6626,-3.6684,-3.6788,-3.6948,-3.7087,-3.7147,-3.7299,-3.7485,-3.7595,-3.7792,-3.7967,-3.807,-3.8104,-3.8223,-3.8303,-3.8303,-3.8368,-3.5177,-3.3588,-3.2668,-3.2196,-3.1965,-3.1726,-3.1406,-3.1055,-3.0821,-3.0535,-3.0241,-2.9924,-2.9705,-2.9544,-2.9259,-2.8998,-2.8858,-2.8794,-2.8636,-2.8541,-2.8284,-2.8137,-2.8024,-2.789,-2.779,-2.7771,-2.7799,-2.7973,-2.8284,-2.866,-2.9034,-2.9437,-3.0043,-3.0294,-3.0382,-3.0749,-3.0955,-3.0955,-3.0955,-3.094,-3.0955,-3.0955,-3.1014,-3.0955,-3.0517,-3.0223,-3.0278,-3.0483,-3.0607,-3.0591,-3.07,-3.0792,-3.083,-3.099,-3.1164,-3.1316,-3.1809,-3.2058,-3.2089,-3.2578,-3.2897,-3.2897,-3.2897,-3.3005,-3.315,-3.315,-3.3256,-3.3398,-3.3539,-3.3539,-3.3658,-3.3949,-3.425,-3.4349,-3.4399,-3.4448,-3.4594,-3.4691,-3.4835,-3.5058,-3.5198,-3.5291,-3.5383,-3.5492,-3.5537,-3.5566,-3.5577,-3.5639,-3.5639,-3.5622,-3.5622,-3.5711,-3.5728,-3.58,-3.5932,-3.6036,-3.6182,-3.631,-3.652,-3.6561,-3.6602,-3.6788,-3.6908,-3.7009,-3.7164,-3.7354,-3.754,-3.7703,-3.7792,-3.7915,-3.8018,-3.8086,-3.8171,-3.8241,-3.8289,-3.3568,-3.2661,-3.2249,-3.1965,-3.1746,-3.1423,-3.1055,-3.0804,-3.0576,-3.0258,-2.9897,-2.9793,-2.9515,-2.9213,-2.9075,-2.8858,-2.8541,-2.8541,-2.8493,-2.8348,-2.8235,-2.8039,-2.784,-2.779,-2.7735,-2.7694,-2.8062,-2.8231,-2.8361,-2.9307,-2.991,-3.0146,-3.0441,-3.0645,-3.0718,-3.0613,-3.0568,-3.0568,-3.0568,-3.0582,-3.0642,-3.0702,-3.0762,-3.0821,-3.0911,-3.1028,-3.1174,-3.1492,-3.1618,-3.1649,-3.1819,-3.2007,-3.1982,-3.2023,-3.2155,-3.2244,-3.2477,-3.2547,-3.2532,-3.2742,-3.2843,-3.2843,-3.2843,-3.2843,-3.2897,-3.2897,-3.2951,-3.3005,-3.315,-3.3309,-3.3361,-3.3555,-3.3797,-3.405,-3.4084,-3.4201,-3.4448,-3.4594,-3.4787,-3.4994,-3.5105,-3.5152,-3.5291,-3.54,-3.5492,-3.552,-3.5549,-3.5639,-3.5639,-3.5639,-3.5639,-3.5622,-3.5622,-3.5711,-3.5756,-3.5817,-3.601,-3.614,-3.6353,-3.6461,-3.6502,-3.6626,-3.6748,-3.6869,-3.697,-3.7203,-3.7447,-3.7594,-3.7685,-3.7774,-3.788,-3.7949,-3.8054,-3.8106,-3.8207,-3.2836,-3.2422,-3.2037,-3.1783,-3.1559,-3.1308,-3.0975,-3.0576,-3.0401,-3.0087,-2.9793,-2.9454,-2.9259,-2.9029,-2.8763,-2.8541,-2.8411,-2.825,-2.8168,-2.8103,-2.7989,-2.789,-2.779,-2.7604,-2.7675,-2.7906,-2.8075,-2.8557,-2.921,-2.9708,-2.9988,-3.0248,-3.0406,-3.0387,-3.0355,-3.0294,-3.0233,-3.0219,-3.0294,-3.0219,-3.028,-3.0401,-3.0447,-3.0507,-3.0762,-3.0881,-3.0999,-3.1292,-3.1482,-3.1597,-3.1784,-3.194,-3.2038,-3.2038,-3.2094,-3.215,-3.2247,-3.2302,-3.2358,-3.2468,-3.2523,-3.2523,-3.2523,-3.2578,-3.2703,-3.2718,-3.2773,-3.2843,-3.302,-3.3005,-3.3058,-3.3203,-3.345,-3.3797,-3.3899,-3.4,-3.425,-3.4497,-3.4691,-3.4804,-3.4899,-3.4994,-3.5135,-3.5291,-3.54,-3.5508,-3.5549,-3.5577,-3.5622,-3.5639,-3.5639,-3.5639,-3.5622,-3.5622,-3.5667,-3.5728,-3.5861,-3.5993,-3.6165,-3.6335,-3.6377,-3.6419,-3.6585,-3.6708,-3.6851,-3.7048,-3.7297,-3.7447,-3.754,-3.7649,-3.7703,-3.7828,-3.7916,-3.7985,-3.8054,-3.2387,-3.2196,-3.1819,-3.1576,-3.1368,-3.1055,-3.0749,-3.0401,-3.013,-2.987,-2.9515,-2.9243,-2.8982,-2.8826,-2.8541,-2.8299,-2.8152,-2.7955,-2.779,-2.7806,-2.774,-2.769,-2.77,-2.7654,-2.7764,-2.8062,-2.8462,-2.8966,-2.9624,-2.9856,-3.0057,-3.0208,-3.0205,-3.0219,-3.0111,-3.0111,-3.0111,-3.0111,-3.0111,-3.0111,-3.0111,-3.0158,-3.0205,-3.0266,-3.0462,-3.0642,-3.0747,-3.0999,-3.1234,-3.1409,-3.1597,-3.1769,-3.1898,-3.1955,-3.1955,-3.1996,-3.2094,-3.215,-3.215,-3.2191,-3.2247,-3.2247,-3.2247,-3.2302,-3.2413,-3.2484,-3.2539,-3.2664,-3.2773,-3.2788,-3.2827,-3.2951,-3.315,-3.345,-3.3658,-3.3848,-3.405,-3.4349,-3.4594,-3.4691,-3.4787,-3.4883,-3.4994,-3.5135,-3.5245,-3.54,-3.552,-3.5577,-3.5577,-3.5639,-3.5639,-3.5639,-3.5622,-3.5622,-3.5622,-3.5667,-3.5711,-3.5844,-3.5975,-3.6122,-3.6251,-3.6293,-3.6419,-3.6585,-3.6748,-3.6891,-3.7143,-3.7241,-3.7337,-3.7449,-3.7577,-3.7685,-3.7775,-3.7881,-3.7951,-3.2196,-3.1858,-3.1579,-3.1368,-3.1112,-3.0675,-3.0384,-3.0146,-2.9897,-2.956,-2.9167,-2.9045,-2.8811,-2.8493,-2.8348,-2.8088,-2.784,-2.764,-2.7524,-2.7488,-2.7488,-2.7482,-2.7543,-2.7815,-2.8008,-2.828,-2.9,-2.9435,-2.9577,-2.9889,-3.005,-3.0036,-3.005,-3.005,-2.9927,-2.9988,-2.9988,-2.9927,-2.9988,-2.9988,-2.9988,-3.005,-3.005,-3.005,-3.0219,-3.0387,-3.0568,-3.0762,-3.0999,-3.1292,-3.1467,-3.1597,-3.1727,-3.1784,-3.1841,-3.1955,-3.2012,-3.1996,-3.1996,-3.2038,-3.2038,-3.2053,-3.2053,-3.2038,-3.2206,-3.2206,-3.2247,-3.2398,-3.2523,-3.2594,-3.2648,-3.2757,-3.2935,-3.3096,-3.3414,-3.3694,-3.405,-3.4201,-3.4399,-3.4594,-3.4691,-3.4739,-3.4899,-3.5041,-3.5135,-3.5291,-3.5429,-3.5503,-3.5577,-3.5639,-3.5639,-3.5639,-3.5639,-3.5639,-3.5639,-3.5639,-3.5667,-3.5711,-3.58,-3.5949,-3.6079,-3.6182,-3.631,-3.6502,-3.6626,-3.6811,-3.697,-3.7087,-3.7147,-3.7279,-3.7429,-3.754,-3.7613,-3.7703,-3.7775,-3.2001,-3.1654,-3.1406,-3.1112,-3.0814,-3.0493,-3.0199,-2.9897,-2.956,-2.9305,-2.9029,-2.8732,-2.8541,-2.8348,-2.7989,-2.7725,-2.7625,-2.7423,-2.7284,-2.7218,-2.7078,-2.7334,-2.7656,-2.7798,-2.8231,-2.89,-2.9159,-2.9457,-2.99,-3.0011,-2.9927,-2.9741,-2.9741,-2.9602,-2.9415,-2.9415,-2.9352,-2.9352,-2.9366,-2.9429,-2.9415,-2.9665,-2.9741,-2.9727,-2.9974,-3.0205,-3.0387,-3.0642,-3.094,-3.1278,-3.1409,-3.1539,-3.1597,-3.1597,-3.1597,-3.1655,-3.1769,-3.1841,-3.1841,-3.194,-3.2012,-3.2012,-3.194,-3.1996,-3.2038,-3.2038,-3.2094,-3.2247,-3.2302,-3.2358,-3.2468,-3.2594,-3.2757,-3.3043,-3.3309,-3.3607,-3.3899,-3.4101,-3.4201,-3.4399,-3.4594,-3.4707,-3.4804,-3.4947,-3.5152,-3.5291,-3.54,-3.552,-3.5594,-3.5639,-3.5639,-3.5639,-3.5639,-3.5639,-3.5639,-3.5639,-3.5639,-3.5622,-3.5667,-3.5756,-3.5949,-3.6096,-3.6251,-3.6461,-3.6544,-3.6667,-3.6829,-3.693,-3.7066,-3.7143,-3.7259,-3.7372,-3.7372,-3.7447,-3.754,-3.1709,-3.1406,-3.1095,-3.0814,-3.0493,-3.0225,-2.9881,-2.9589,-2.935,-2.9045,-2.8811,-2.8541,-2.825,-2.8039,-2.7725,-2.7524,-2.7423,-2.713,-2.7041,-2.7047,-2.707,-2.7267,-2.7642,-2.7977,-2.8627,-2.9186,-2.9337,-2.9618,-2.9794,-2.9865,-2.9665,-2.9415,-2.9415,-2.9289,-2.9176,-2.9113,-2.9113,-2.9113,-2.9113,-2.9113,-2.9113,-2.9289,-2.9429,-2.9554,-2.9803,-2.9974,-3.0266,-3.0642,-3.094,-3.1219,-3.1351,-3.1424,-3.1482,-3.1467,-3.1467,-3.1467,-3.1597,-3.1655,-3.167,-3.1769,-3.1769,-3.1754,-3.1754,-3.1826,-3.1883,-3.1883,-3.194,-3.2094,-3.215,-3.2247,-3.2358,-3.2468,-3.2703,-3.3005,-3.3203,-3.345,-3.3813,-3.3949,-3.4101,-3.43,-3.4448,-3.4643,-3.4691,-3.4899,-3.5088,-3.5245,-3.5337,-3.5458,-3.5577,-3.5577,-3.5639,-3.5639,-3.5639,-3.5639,-3.5639,-3.5639,-3.5639,-3.5639,-3.5622,-3.5667,-3.5817,-3.601,-3.6165,-3.6335,-3.6419,-3.6544,-3.6708,-3.6788,-3.6869,-3.6987,-3.7105,-3.7182,-3.7182,-3.722,-3.7317,-3.1406,-3.1151,-3.0831,-3.051,-3.0225,-2.9881,-2.9589,-2.9305,-2.9075,-2.8826,-2.8493,-2.8348,-2.8039,-2.761,-2.7524,-2.7372,-2.713,-2.687,-2.6799,-2.6924,-2.7109,-2.7413,-2.7655,-2.8439,-2.8921,-2.9249,-2.9582,-2.958,-2.954,-2.9415,-2.9289,-2.9099,-2.9035,-2.9035,-2.8908,-2.8922,-2.8972,-2.8908,-2.8844,-2.8908,-2.8922,-2.9035,-2.9099,-2.9289,-2.954,-2.9851,-3.0205,-3.0568,-3.0866,-3.1219,-3.1278,-3.1351,-3.1467,-3.1467,-3.1467,-3.1467,-3.1524,-3.1524,-3.1539,-3.1539,-3.1539,-3.1524,-3.1524,-3.1597,-3.1727,-3.1784,-3.1841,-3.1996,-3.2094,-3.2206,-3.2287,-3.2468,-3.2648,-3.2897,-3.3043,-3.3256,-3.3607,-3.3797,-3.4,-3.425,-3.4415,-3.4562,-3.4643,-3.4787,-3.4994,-3.5245,-3.5337,-3.5412,-3.5532,-3.5577,-3.5639,-3.5639,-3.5639,-3.5639,-3.5639,-3.5639,-3.5639,-3.5639,-3.5639,-3.5622,-3.5711,-3.5905,-3.6079,-3.6208,-3.6335,-3.6419,-3.6544,-3.6626,-3.6708,-3.6806,-3.6926,-3.6987,-3.7048,-3.7105,-3.7182,-3.1162,-3.0845,-3.0502,-3.0182,-2.9881,-2.956,-2.9305,-2.9121,-2.8732,-2.8493,-2.8299,-2.7989,-2.7725,-2.7575,-2.7167,-2.6937,-2.6817,-2.6582,-2.6515,-2.6862,-2.7357,-2.7759,-2.7991,-2.8545,-2.8975,-2.9279,-2.9317,-2.9226,-2.9226,-2.9162,-2.8972,-2.8716,-2.8716,-2.8587,-2.8406,-2.8406,-2.8341,-2.8341,-2.8341,-2.8392,-2.8573,-2.8638,-2.878,-2.8972,-2.9352,-2.9789,-3.0097,-3.0326,-3.0568,-3.0881,-3.1176,-3.1336,-3.1467,-3.1467,-3.1467,-3.1467,-3.1467,-3.1467,-3.1467,-3.1467,-3.1467,-3.1467,-3.1467,-3.1539,-3.1539,-3.1597,-3.167,-3.1841,-3.194,-3.215,-3.2342,-3.2382,-3.2578,-3.2843,-3.2951,-3.3165,-3.3555,-3.3694,-3.3848,-3.405,-3.43,-3.4513,-3.4546,-3.4787,-3.4994,-3.5261,-3.5337,-3.5412,-3.5503,-3.5594,-3.5639,-3.5639,-3.5639,-3.5639,-3.5639,-3.5639,-3.5639,-3.5639,-3.5639,-3.5639,-3.5711,-3.5773,-3.5949,-3.6079,-3.6225,-3.6335,-3.6402,-3.6502,-3.6544,-3.6643,-3.6742,-3.6806,-3.6869,-3.6908,-3.6987,-3.0868,-3.0559,-3.0225,-2.9881,-2.956,-2.9289,-2.9029,-2.8763,-2.8429,-2.8201,-2.7989,-2.7575,-2.7321,-2.7218,-2.6803,-2.6606,-2.6447,-2.6193,-2.6231,-2.6665,-2.7207,-2.7774,-2.8188,-2.8491,-2.8872,-2.9275,-2.9226,-2.9035,-2.8908,-2.8844,-2.8716,-2.8406,-2.8406,-2.8276,-2.8145,-2.8079,-2.8145,-2.8145,-2.8079,-2.8145,-2.8262,-2.8379,-2.8638,-2.8908,-2.9352,-2.9741,-3.005,-3.0219,-3.0447,-3.0762,-3.1058,-3.1292,-3.1409,-3.1467,-3.1467,-3.1467,-3.1467,-3.1467,-3.1467,-3.1467,-3.1467,-3.1467,-3.1467,-3.1467,-3.1467,-3.1467,-3.1524,-3.167,-3.1883,-3.2109,-3.2358,-3.2398,-3.2594,-3.2788,-3.2912,-3.3112,-3.3503,-3.3642,-3.3797,-3.4,-3.43,-3.4448,-3.4594,-3.4739,-3.4994,-3.5245,-3.5308,-3.5367,-3.5549,-3.5639,-3.5639,-3.5639,-3.5639,-3.5639,-3.5639,-3.5639,-3.5639,-3.5639,-3.5639,-3.5639,-3.5622,-3.5728,-3.5773,-3.5949,-3.6079,-3.6165,-3.6251,-3.6335,-3.6419,-3.6561,-3.6643,-3.6643,-3.6684,-3.6766,-3.6806,-3.0559,-3.0225,-2.9881,-2.9589,-2.9259,-2.9091,-2.8763,-2.8396,-2.8186,-2.789,-2.7524,-2.7284,-2.7026,-2.6765,-2.6525,-2.6258,-2.6045,-2.6008,-2.6203,-2.6583,-2.7189,-2.7673,-2.816,-2.8379,-2.8597,-2.8908,-2.8844,-2.8716,-2.8587,-2.8522,-2.8406,-2.8145,-2.8079,-2.8,-2.8013,-2.8013,-2.7934,-2.7934,-2.7947,-2.8013,-2.8079,-2.8183,-2.8509,-2.8972,-2.9289,-2.9602,-2.9927,-3.0158,-3.0387,-3.0687,-3.094,-3.1132,-3.1292,-3.1409,-3.1467,-3.1467,-3.1467,-3.1467,-3.1467,-3.1467,-3.1467,-3.1467,-3.1467,-3.1467,-3.1467,-3.1467,-3.1524,-3.1597,-3.1826,-3.2109,-3.2358,-3.2453,-3.2578,-3.2827,-3.2897,-3.3096,-3.345,-3.3658,-3.3797,-3.4,-3.43,-3.4448,-3.4594,-3.4756,-3.5011,-3.5245,-3.5291,-3.5383,-3.5503,-3.5639,-3.5639,-3.5639,-3.5639,-3.5639,-3.5639,-3.5639,-3.5639,-3.5639,-3.5639,-3.5639,-3.5639,-3.5639,-3.5728,-3.5817,-3.5905,-3.6036,-3.6122,-3.6165,-3.6293,-3.6419,-3.6461,-3.6461,-3.652,-3.6643,-3.6643,-3.0326,-3.0017,-2.971,-2.938,-2.9075,-2.8668,-2.8429,-2.8186,-2.7825,-2.7524,-2.7233,-2.6974,-2.6698,-2.6472,-2.6165,-2.5853,-2.5744,-2.5895,-2.6315,-2.6739,-2.7264,-2.78,-2.8109,-2.8168,-2.8289,-2.821,-2.8276,-2.8276,-2.821,-2.8145,-2.8066,-2.7921,-2.7855,-2.7789,-2.7669,-2.7603,-2.7603,-2.7669,-2.7669,-2.7736,-2.7868,-2.8079,-2.8392,-2.8844,-2.9099,-2.9415,-2.9665,-2.9988,-3.0219,-3.0387,-3.0687,-3.0955,-3.1132,-3.1366,-3.1482,-3.1467,-3.1467,-3.1467,-3.1467,-3.1467,-3.1467,-3.1467,-3.1467,-3.1467,-3.1467,-3.1524,-3.1524,-3.164,-3.1826,-3.215,-3.2398,-3.2468,-3.2648,-3.2843,-3.3005,-3.3256,-3.3555,-3.371,-3.3797,-3.4,-3.43,-3.4497,-3.4594,-3.4756,-3.5011,-3.5198,-3.5308,-3.5367,-3.5532,-3.5622,-3.5639,-3.5639,-3.5639,-3.5639,-3.5639,-3.5639,-3.5639,-3.5639,-3.5639,-3.5639,-3.5639,-3.5639,-3.5684,-3.5728,-3.5817,-3.5905,-3.5949,-3.6036,-3.6122,-3.6251,-3.6251,-3.6293,-3.6335,-3.6419,-3.652,-3.006,-2.9754,-2.9425,-2.9075,-2.8716,-2.8429,-2.8152,-2.7825,-2.7473,-2.7181,-2.6922,-2.6553,-2.6272,-2.6096,-2.5853,-2.5536,-2.5464,-2.5629,-2.6107,-2.658,-2.7185,-2.7712,-2.8026,-2.8,-2.7934,-2.7934,-2.7868,-2.7881,-2.7921,-2.7934,-2.7789,-2.759,-2.7523,-2.7456,-2.7268,-2.7281,-2.7281,-2.7335,-2.7403,-2.7469,-2.7656,-2.7947,-2.8276,-2.8651,-2.8972,-2.9226,-2.9602,-2.9927,-3.0172,-3.0326,-3.0628,-3.0895,-3.1073,-3.1249,-3.1424,-3.1467,-3.1467,-3.1467,-3.1467,-3.1467,-3.1467,-3.1467,-3.1467,-3.1467,-3.1467,-3.1524,-3.1597,-3.1769,-3.1925,-3.2191,-3.2398,-3.2508,-3.2703,-3.2897,-3.3112,-3.3361,-3.3607,-3.3761,-3.3899,-3.405,-3.4333,-3.4546,-3.4659,-3.4804,-3.5011,-3.5152,-3.5308,-3.5412,-3.5577,-3.5622,-3.5639,-3.5639,-3.5639,-3.5639,-3.5639,-3.5639,-3.5639,-3.5639,-3.5639,-3.5639,-3.5639,-3.5639,-3.5622,-3.5667,-3.5728,-3.5773,-3.5817,-3.5905,-3.5993,-3.6079,-3.6062,-3.6105,-3.6148,-3.6191,-3.6293,-2.9754,-2.938,-2.9121,-2.8763,-2.8348,-2.8137,-2.7825,-2.7473,-2.7115,-2.6817,-2.6568,-2.6125,-2.5907,-2.5743,-2.5522,-2.5201,-2.4959,-2.536,-2.5895,-2.6299,-2.703,-2.7615,-2.7749,-2.7802,-2.7656,-2.7536,-2.7469,-2.7536,-2.7656,-2.7656,-2.7523,-2.7335,-2.7201,-2.7146,-2.7092,-2.7092,-2.7146,-2.7214,-2.7281,-2.7403,-2.7603,-2.7947,-2.821,-2.8522,-2.8894,-2.9226,-2.9477,-2.9865,-3.0111,-3.0341,-3.0568,-3.0836,-3.1087,-3.119,-3.1351,-3.1482,-3.1467,-3.1467,-3.1467,-3.1467,-3.1467,-3.1467,-3.1467,-3.1467,-3.1524,-3.1597,-3.1655,-3.194,-3.215,-3.2247,-3.2453,-3.2594,-3.2773,-3.2935,-3.3203,-3.345,-3.3658,-3.3848,-3.4066,-3.425,-3.4448,-3.4594,-3.4707,-3.4899,-3.5105,-3.5245,-3.5354,-3.5429,-3.5577,-3.5577,-3.5639,-3.5639,-3.5639,-3.5639,-3.5639,-3.5639,-3.5639,-3.5639,-3.5639,-3.5639,-3.5639,-3.5639,-3.5622,-3.5622,-3.5622,-3.5684,-3.5728,-3.579,-3.5861,-3.5905,-3.5932,-3.5958,-3.6045,-3.6062,-3.6105,-2.9502,-2.9137,-2.8701,-2.8431,-2.8186,-2.7825,-2.7423,-2.7063,-2.687,-2.6486,-2.6071,-2.5893,-2.5743,-2.5481,-2.5188,-2.4905,-2.4972,-2.5602,-2.5977,-2.6192,-2.7025,-2.7512,-2.7456,-2.7403,-2.7335,-2.7201,-2.7146,-2.7146,-2.7335,-2.7323,-2.7268,-2.7079,-2.7011,-2.7024,-2.6956,-2.6956,-2.7024,-2.7079,-2.7201,-2.7469,-2.7723,-2.7934,-2.8131,-2.8444,-2.8766,-2.9099,-2.9317,-2.9797,-3.015,-3.0244,-3.0534,-3.0805,-3.1014,-3.1132,-3.1249,-3.1424,-3.1467,-3.1467,-3.1482,-3.1467,-3.1467,-3.1467,-3.1467,-3.1467,-3.1539,-3.1712,-3.1826,-3.1996,-3.215,-3.2302,-3.2523,-3.2718,-3.2897,-3.3112,-3.3309,-3.3503,-3.3761,-3.3949,-3.4201,-3.4399,-3.4546,-3.4643,-3.4739,-3.4947,-3.5135,-3.5291,-3.5383,-3.5503,-3.5549,-3.5594,-3.5639,-3.5639,-3.5639,-3.5639,-3.5639,-3.5639,-3.5639,-3.5639,-3.5639,-3.5639,-3.5639,-3.5639,-3.5639,-3.5639,-3.5639,-3.5639,-3.5684,-3.5684,-3.5728,-3.5773,-3.58,-3.5888,-3.5975,-3.5975,-3.5975,-2.8967,-2.8716,-2.8431,-2.8155,-2.784,-2.7408,-2.7115,-2.6803,-2.6447,-2.6179,-2.5839,-2.5495,-2.5244,-2.5032,-2.4721,-2.4536,-2.4673,-2.5445,-2.5772,-2.5983,-2.6778,-2.7268,-2.7146,-2.7146,-2.7079,-2.7011,-2.7024,-2.6943,-2.7011,-2.7066,-2.7011,-2.6863,-2.6794,-2.6794,-2.6739,-2.6739,-2.6739,-2.6863,-2.7134,-2.7335,-2.7536,-2.7789,-2.7987,-2.8183,-2.8587,-2.8922,-2.9245,-2.9933,-3.0438,-3.0725,-3.1161,-3.1656,-3.1918,-3.2117,-3.23,-3.2437,-3.2213,-3.1885,-3.1556,-3.1497,-3.1467,-3.1467,-3.1524,-3.1524,-3.167,-3.1841,-3.1996,-3.2094,-3.2247,-3.2413,-3.2594,-3.2788,-3.2989,-3.3203,-3.3466,-3.371,-3.3899,-3.4101,-3.43,-3.4497,-3.4643,-3.4739,-3.4851,-3.4994,-3.5198,-3.5291,-3.5429,-3.552,-3.5594,-3.5594,-3.5639,-3.5639,-3.5639,-3.5639,-3.5639,-3.5639,-3.5639,-3.5639,-3.5639,-3.5639,-3.5639,-3.5639,-3.5639,-3.5639,-3.5639,-3.5639,-3.5639,-3.5639,-3.5684,-3.5684,-3.5667,-3.5756,-3.5844,-3.58,-3.58,-2.8494,-2.8271,-2.8122,-2.781,-2.7423,-2.713,-2.6817,-2.65,-2.6111,-2.5839,-2.555,-2.5174,-2.4778,-2.4549,-2.4363,-2.4261,-2.4281,-2.5091,-2.5381,-2.5807,-2.6411,-2.6934,-2.6943,-2.6943,-2.6875,-2.6875,-2.6807,-2.6807,-2.6739,-2.6739,-2.6807,-2.6658,-2.6658,-2.6589,-2.6521,-2.6521,-2.6589,-2.6714,-2.7079,-2.7214,-2.7403,-2.7656,-2.7868,-2.8131,-2.8419,-2.8862,-2.9375,-3.0015,-3.068,-3.1382,-3.1754,-3.2182,-3.2514,-3.2735,-3.2874,-3.2986,-3.2795,-3.2602,-3.2168,-3.1884,-3.1541,-3.1467,-3.1524,-3.1597,-3.1799,-3.1955,-3.2038,-3.2191,-3.2358,-3.2523,-3.2664,-3.2843,-3.3096,-3.3293,-3.3555,-3.3813,-3.4066,-3.425,-3.4399,-3.4594,-3.4756,-3.4899,-3.4994,-3.5105,-3.5198,-3.5337,-3.5429,-3.552,-3.5549,-3.5594,-3.5577,-3.5577,-3.5577,-3.5577,-3.5594,-3.5594,-3.5639,-3.5594,-3.5594,-3.5594,-3.5594,-3.5639,-3.5639,-3.5639,-3.5639,-3.5639,-3.5639,-3.5639,-3.5639,-3.5622,-3.5622,-3.5622,-3.5622,-3.5639,-3.5639,-2.8137,-2.7675,-2.7625,-2.7423,-2.7063,-2.6884,-2.6447,-2.6056,-2.5893,-2.5564,-2.5061,-2.4778,-2.4536,-2.4305,-2.4157,-2.4054,-2.4001,-2.4919,-2.5192,-2.5666,-2.637,-2.6786,-2.6794,-2.6726,-2.6658,-2.6589,-2.6589,-2.6589,-2.6521,-2.6589,-2.6602,-2.6533,-2.6521,-2.6521,-2.6521,-2.6521,-2.6521,-2.6726,-2.6943,-2.7146,-2.7335,-2.7603,-2.7868,-2.8079,-2.846,-2.8961,-2.9886,-3.0369,-3.1053,-3.1897,-3.2299,-3.258,-3.2975,-3.3201,-3.3406,-3.3458,-3.3451,-3.335,-3.3095,-3.2362,-3.1689,-3.1569,-3.1584,-3.1687,-3.1799,-3.1955,-3.2038,-3.2191,-3.2413,-3.2648,-3.2843,-3.3005,-3.3203,-3.345,-3.3658,-3.3899,-3.4151,-3.4349,-3.4497,-3.4659,-3.4804,-3.4947,-3.5105,-3.5198,-3.5291,-3.5383,-3.5458,-3.5594,-3.5549,-3.5594,-3.5577,-3.5577,-3.5577,-3.5577,-3.5594,-3.5594,-3.5549,-3.5549,-3.5549,-3.5594,-3.5594,-3.5594,-3.5622,-3.5639,-3.5639,-3.5639,-3.5639,-3.5639,-3.5639,-3.5639,-3.5639,-3.5639,-3.5639,-3.5639,-3.5639,-2.7875,-2.7437,-2.7233,-2.7026,-2.6817,-2.6447,-2.6125,-2.5839,-2.5508,-2.5048,-2.4593,-2.4478,-2.4261,-2.4099,-2.3995,-2.3878,-2.3855,-2.4682,-2.4989,-2.542,-2.6092,-2.6569,-2.6589,-2.6589,-2.6533,-2.6521,-2.6521,-2.6521,-2.6521,-2.6521,-2.6521,-2.6521,-2.6521,-2.6521,-2.6521,-2.6521,-2.6521,-2.6671,-2.682,-2.7092,-2.7146,-2.7469,-2.7736,-2.8079,-2.8652,-2.9197,-3.0014,-3.0904,-3.1682,-3.2421,-3.2882,-3.3249,-3.3594,-3.387,-3.4065,-3.4135,-3.4103,-3.4128,-3.3978,-3.323,-3.2602,-3.2168,-3.2123,-3.212,-3.2095,-3.2057,-3.2109,-3.2302,-3.2561,-3.2889,-3.2944,-3.3128,-3.3309,-3.3555,-3.3861,-3.4129,-3.4395,-3.4759,-3.4791,-3.502,-3.4967,-3.4994,-3.5152,-3.5245,-3.5337,-3.5475,-3.5549,-3.5577,-3.5549,-3.5503,-3.5503,-3.5458,-3.5458,-3.5458,-3.5475,-3.5458,-3.5412,-3.5458,-3.5503,-3.5503,-3.5503,-3.5577,-3.5622,-3.5622,-3.5639,-3.5639,-3.5639,-3.5639,-3.5639,-3.5639,-3.5639,-3.5639,-3.5639,-3.5639,-3.5639,-2.764,-2.7196,-2.6803,-2.6606,-2.6553,-2.6125,-2.5784,-2.5564,-2.523,-2.4721,-2.4247,-2.4203,-2.4041,-2.3891,-2.3772,-2.37,-2.3815,-2.4468,-2.481,-2.5365,-2.5904,-2.6433,-2.6521,-2.6521,-2.6521,-2.6521,-2.6521,-2.6521,-2.6521,-2.6521,-2.6521,-2.6521,-2.6521,-2.6521,-2.6521,-2.6521,-2.6521,-2.6602,-2.6739,-2.6956,-2.7011,-2.7268,-2.759,-2.8027,-2.8599,-2.9376,-3.0213,-3.1143,-3.2123,-3.2857,-3.3457,-3.3919,-3.4317,-3.4601,-3.4802,-3.4853,-3.4842,-3.4722,-3.4592,-3.3948,-3.332,-3.2871,-3.2871,-3.2809,-3.2667,-3.2631,-3.2986,-3.3111,-3.3274,-3.3333,-3.3458,-3.392,-3.4254,-3.4633,-3.488,-3.5137,-3.5344,-3.5595,-3.5432,-3.5397,-3.5361,-3.5359,-3.5305,-3.5496,-3.5639,-3.5648,-3.5537,-3.552,-3.5429,-3.5429,-3.5383,-3.5383,-3.5337,-3.5354,-3.5308,-3.5337,-3.5321,-3.5383,-3.5383,-3.5383,-3.5429,-3.5487,-3.5532,-3.5549,-3.5566,-3.5594,-3.5622,-3.5622,-3.5622,-3.5639,-3.5639,-3.5639,-3.5639,-3.5639,-3.5639,-2.7284,-2.6765,-2.6472,-2.6258,-2.6111,-2.5948,-2.555,-2.5118,-2.4948,-2.4607,-2.4112,-2.3995,-2.3819,-2.3628,-2.3522,-2.3463,-2.3619,-2.4293,-2.477,-2.5071,-2.5854,-2.6302,-2.6521,-2.6521,-2.6521,-2.6521,-2.6521,-2.6521,-2.6521,-2.6521,-2.6521,-2.6521,-2.6521,-2.6521,-2.6521,-2.6521,-2.6521,-2.6521,-2.6658,-2.6794,-2.7011,-2.7214,-2.7536,-2.7921,-2.8758,-2.9564,-3.0324,-3.1392,-3.2347,-3.317,-3.363,-3.3937,-3.4196,-3.4549,-3.475,-3.4905,-3.5037,-3.519,-3.5355,-3.4203,-3.3709,-3.3529,-3.3607,-3.3653,-3.3833,-3.3922,-3.3946,-3.3906,-3.4306,-3.4587,-3.4924,-3.5149,-3.5299,-3.5454,-3.5658,-3.5906,-3.61,-3.6237,-3.6075,-3.5993,-3.5943,-3.5859,-3.5754,-3.5733,-3.5894,-3.587,-3.5626,-3.553,-3.5622,-3.571,-3.5813,-3.5682,-3.5716,-3.5532,-3.5532,-3.5328,-3.5291,-3.5291,-3.5291,-3.5291,-3.5337,-3.5367,-3.5429,-3.5492,-3.552,-3.5549,-3.5577,-3.556,-3.5622,-3.5639,-3.5639,-3.5639,-3.5639,-3.5639,-3.5639,-2.713,-2.6727,-2.6258,-2.5948,-2.5784,-2.5453,-2.5174,-2.4948,-2.462,-2.4216,-2.4008,-2.376,-2.3641,-2.345,-2.339,-2.3343,-2.3362,-2.389,-2.4368,-2.4895,-2.5611,-2.6088,-2.6327,-2.6496,-2.6521,-2.6521,-2.6521,-2.6521,-2.6521,-2.6521,-2.6521,-2.6521,-2.6521,-2.6521,-2.6521,-2.6521,-2.6521,-2.6521,-2.6658,-2.6794,-2.7024,-2.7214,-2.7482,-2.7842,-2.8917,-2.9791,-3.0459,-3.1611,-3.2582,-3.3213,-3.3605,-3.3937,-3.4128,-3.4481,-3.475,-3.4868,-3.5082,-3.5294,-3.5394,-3.4951,-3.4622,-3.44,-3.4314,-3.4272,-3.4106,-3.4149,-3.4268,-3.4596,-3.4938,-3.5023,-3.4935,-3.5387,-3.5671,-3.5764,-3.5948,-3.6283,-3.6528,-3.6648,-3.6686,-3.6737,-3.6688,-3.6738,-3.6671,-3.6637,-3.6734,-3.6933,-3.6815,-3.6582,-3.6618,-3.6686,-3.6753,-3.6471,-3.6289,-3.5957,-3.5756,-3.5688,-3.5404,-3.5288,-3.5235,-3.5135,-3.5228,-3.5291,-3.5337,-3.5383,-3.5429,-3.552,-3.5549,-3.5549,-3.5577,-3.5639,-3.5639,-3.5639,-3.5639,-3.5639,-3.5639,-2.687,-2.6515,-2.6056,-2.5674,-2.5453,-2.5118,-2.4892,-2.4664,-2.4229,-2.3936,-2.37,-2.3582,-2.345,-2.333,-2.3271,-2.3271,-2.314,-2.374,-2.4079,-2.4632,-2.531,-2.5762,-2.6088,-2.6377,-2.6521,-2.6521,-2.6521,-2.6521,-2.6521,-2.6521,-2.6521,-2.6521,-2.6521,-2.6521,-2.6521,-2.6521,-2.6521,-2.6521,-2.6589,-2.6726,-2.6943,-2.7172,-2.7452,-2.8168,-2.9143,-3.01,-3.0796,-3.1746,-3.2775,-3.3157,-3.3521,-3.3868,-3.4074,-3.4278,-3.4616,-3.4817,-3.5082,-3.5294,-3.5409,-3.5459,-3.5115,-3.4891,-3.5007,-3.4906,-3.4759,-3.4988,-3.5095,-3.532,-3.5404,-3.5537,-3.5654,-3.6124,-3.6374,-3.6501,-3.6793,-3.7166,-3.738,-3.7535,-3.7543,-3.7581,-3.7483,-3.7551,-3.7601,-3.7702,-3.7719,-3.7902,-3.8069,-3.7769,-3.7469,-3.7402,-3.7402,-3.7153,-3.687,-3.6555,-3.6356,-3.6224,-3.5875,-3.5346,-3.5311,-3.5343,-3.5088,-3.5135,-3.5198,-3.5245,-3.5337,-3.5429,-3.5492,-3.5537,-3.5566,-3.5594,-3.5639,-3.5639,-3.5639,-3.5639,-3.5639,-2.6515,-2.6056,-2.5784,-2.5453,-2.5061,-2.4948,-2.462,-2.4112,-2.3949,-2.37,-2.3403,-2.3403,-2.3271,-2.3138,-2.3138,-2.3138,-2.3188,-2.3678,-2.3929,-2.4318,-2.5034,-2.5423,-2.5824,-2.6269,-2.6471,-2.6521,-2.6521,-2.6521,-2.6521,-2.6521,-2.6521,-2.6521,-2.6521,-2.6521,-2.6521,-2.6521,-2.6521,-2.6521,-2.6521,-2.6658,-2.6875,-2.7024,-2.7485,-2.8268,-2.9217,-3.005,-3.0841,-3.1891,-3.2478,-3.2931,-3.3297,-3.3605,-3.3882,-3.4005,-3.4346,-3.4683,-3.5016,-3.5294,-3.5439,-3.5424,-3.5489,-3.531,-3.5469,-3.5721,-3.5806,-3.5766,-3.5814,-3.6122,-3.635,-3.6582,-3.6857,-3.7212,-3.7572,-3.7801,-3.8044,-3.8284,-3.8488,-3.8553,-3.8447,-3.8388,-3.8242,-3.8228,-3.828,-3.8347,-3.833,-3.8493,-3.8543,-3.8242,-3.7961,-3.7748,-3.768,-3.7614,-3.7382,-3.7184,-3.6969,-3.672,-3.6373,-3.5877,-3.5861,-3.5844,-3.5429,-3.511,-3.5191,-3.5255,-3.5232,-3.5291,-3.54,-3.5492,-3.552,-3.5549,-3.5594,-3.5639,-3.5639,-3.5639,-3.5639,-2.6326,-2.5948,-2.5508,-2.5216,-2.4948,-2.4563,-2.4229,-2.3949,-2.376,-2.3582,-2.3403,-2.3271,-2.3138,-2.3125,-2.3125,-2.3125,-2.3201,-2.3351,-2.3665,-2.413,-2.4695,-2.5184,-2.5661,-2.6101,-2.6364,-2.6521,-2.6521,-2.6521,-2.6521,-2.6521,-2.6521,-2.6521,-2.6521,-2.6521,-2.6521,-2.6521,-2.6521,-2.6521,-2.6521,-2.6658,-2.6807,-2.6943,-2.752,-2.8313,-2.9171,-2.9976,-3.0887,-3.1784,-3.239,-3.2775,-3.3157,-3.3536,-3.3882,-3.4074,-3.4278,-3.4698,-3.4964,-3.5228,-3.5279,-3.5424,-3.5489,-3.5489,-3.5539,-3.5718,-3.5894,-3.6085,-3.6274,-3.6538,-3.6754,-3.6877,-3.706,-3.7405,-3.7759,-3.7992,-3.8221,-3.8504,-3.8655,-3.8756,-3.8722,-3.8727,-3.8652,-3.8705,-3.8739,-3.8772,-3.8788,-3.8999,-3.8978,-3.8661,-3.8447,-3.8183,-3.8104,-3.8038,-3.7854,-3.7672,-3.7373,-3.7107,-3.6763,-3.645,-3.6452,-3.6305,-3.5828,-3.5514,-3.5348,-3.5212,-3.5155,-3.5198,-3.5291,-3.5383,-3.5429,-3.552,-3.5549,-3.5594,-3.5639,-3.5639,-3.5639,-2.6096,-2.5784,-2.5342,-2.4948,-2.462,-2.4229,-2.3891,-2.37,-2.3569,-2.345,-2.3271,-2.3125,-2.3125,-2.3125,-2.3125,-2.3125,-2.3138,-2.3175,-2.3364,-2.364,-2.428,-2.4757,-2.5322,-2.5862,-2.6189,-2.6339,-2.6521,-2.6521,-2.6521,-2.6521,-2.6521,-2.6521,-2.6521,-2.6521,-2.6521,-2.6521,-2.6521,-2.6521,-2.6521,-2.6589,-2.6726,-2.6901,-2.7541,-2.8355,-2.9272,-2.9998,-3.0943,-3.1829,-3.2345,-3.2632,-3.3016,-3.3382,-3.3744,-3.4005,-3.4278,-3.4631,-3.4898,-3.5082,-3.5213,-3.5439,-3.5504,-3.5489,-3.5489,-3.5604,-3.5846,-3.6022,-3.6226,-3.6492,-3.6739,-3.6938,-3.7121,-3.7345,-3.7642,-3.7876,-3.8164,-3.8408,-3.856,-3.8711,-3.8788,-3.8898,-3.8936,-3.8974,-3.9061,-3.9094,-3.9077,-3.8969,-3.8914,-3.8832,-3.8717,-3.8619,-3.8537,-3.8504,-3.8335,-3.8187,-3.7817,-3.7535,-3.7376,-3.713,-3.7105,-3.6861,-3.6286,-3.5778,-3.5449,-3.5167,-3.4963,-3.5058,-3.5232,-3.5245,-3.5291,-3.5383,-3.5475,-3.552,-3.5549,-3.5594,-3.5594,-2.5784,-2.5605,-2.5104,-2.4607,-2.4125,-2.3936,-2.3713,-2.3403,-2.3403,-2.3258,-2.3138,-2.3125,-2.3065,-2.3078,-2.309,-2.3017,-2.3017,-2.303,-2.3042,-2.3128,-2.3791,-2.4355,-2.4868,-2.5372,-2.5988,-2.6302,-2.6521,-2.6521,-2.6521,-2.6521,-2.6521,-2.6521,-2.6521,-2.6521,-2.6521,-2.6521,-2.6521,-2.6521,-2.6521,-2.6521,-2.6739,-2.7016,-2.7593,-2.8718,-2.9463,-3.009,-3.1223,-3.1963,-3.2314,-3.2574,-3.2917,-3.3157,-3.3591,-3.3937,-3.4278,-3.4549,-3.475,-3.4949,-3.5148,-3.5294,-3.5439,-3.5504,-3.5489,-3.5604,-3.5782,-3.5973,-3.6163,-3.6414,-3.6616,-3.6877,-3.706,-3.727,-3.7492,-3.7743,-3.7992,-3.8221,-3.8448,-3.86,-3.8766,-3.8805,-3.886,-3.8914,-3.8914,-3.8914,-3.8931,-3.8805,-3.875,-3.875,-3.8694,-3.8694,-3.8694,-3.8678,-3.8509,-3.8307,-3.8235,-3.7984,-3.8013,-3.7905,-3.7731,-3.7339,-3.6767,-3.6133,-3.5497,-3.5301,-3.5184,-3.5032,-3.506,-3.5138,-3.5215,-3.5291,-3.5337,-3.5429,-3.5475,-3.5549,-3.5594,-2.5619,-2.5118,-2.465,-2.4261,-2.3949,-2.376,-2.3569,-2.3403,-2.3198,-2.315,-2.3138,-2.3078,-2.3017,-2.2969,-2.2969,-2.2909,-2.2848,-2.2848,-2.2787,-2.2997,-2.3455,-2.4041,-2.4678,-2.5231,-2.5875,-2.6276,-2.6521,-2.6521,-2.6521,-2.6521,-2.6521,-2.6521,-2.6521,-2.6521,-2.6521,-2.6521,-2.6521,-2.6521,-2.6521,-2.6521,-2.6589,-2.696,-2.7593,-2.8544,-2.9249,-3.0118,-3.1063,-3.1596,-3.1963,-3.2241,-3.2646,-3.3072,-3.3536,-3.3922,-3.4128,-3.4264,-3.4549,-3.4802,-3.5016,-3.5162,-3.5294,-3.5439,-3.5489,-3.5604,-3.5718,-3.591,-3.61,-3.6289,-3.6538,-3.6739,-3.6999,-3.7134,-3.7358,-3.7567,-3.7817,-3.8049,-3.8278,-3.8448,-3.86,-3.8711,-3.875,-3.875,-3.875,-3.875,-3.8766,-3.8655,-3.856,-3.8448,-3.8335,-3.8262,-3.8319,-3.8375,-3.8319,-3.8214,-3.8262,-3.823,-3.8092,-3.8076,-3.7915,-3.7566,-3.7151,-3.6678,-3.6097,-3.5743,-3.5482,-3.5366,-3.5215,-3.506,-3.5138,-3.5168,-3.5245,-3.5337,-3.5383,-3.5429,-3.5503,-2.5467,-2.4948,-2.4434,-2.4028,-2.376,-2.3582,-2.339,-2.3271,-2.309,-2.3017,-2.303,-2.3017,-2.2909,-2.2787,-2.2787,-2.28,-2.2678,-2.2739,-2.2739,-2.2874,-2.3096,-2.3739,-2.4335,-2.4962,-2.5652,-2.617,-2.6402,-2.6521,-2.6521,-2.6521,-2.6521,-2.6521,-2.6521,-2.6521,-2.6521,-2.6521,-2.6521,-2.6521,-2.6521,-2.6521,-2.6571,-2.7031,-2.7685,-2.8556,-2.9326,-3.0137,-3.089,-3.1508,-3.1817,-3.2255,-3.2646,-3.3002,-3.3382,-3.373,-3.3937,-3.4128,-3.4414,-3.4616,-3.4817,-3.4949,-3.5162,-3.5294,-3.5359,-3.5394,-3.5604,-3.5733,-3.5958,-3.6211,-3.6274,-3.6476,-3.6723,-3.6952,-3.7178,-3.7433,-3.7551,-3.7727,-3.7976,-3.8164,-3.8205,-3.8262,-3.8319,-3.8319,-3.8262,-3.8262,-3.8262,-3.8262,-3.8164,-3.8164,-3.8049,-3.7934,-3.7992,-3.7992,-3.7992,-3.8049,-3.8049,-3.8049,-3.7943,-3.796,-3.7992,-3.7625,-3.7189,-3.7053,-3.6759,-3.6241,-3.5904,-3.5793,-3.5597,-3.543,-3.5048,-3.4965,-3.5074,-3.5198,-3.5245,-3.5291,-3.5429,-2.5201,-2.4848,-2.4287,-2.3878,-2.3569,-2.345,-2.3271,-2.3078,-2.2969,-2.2848,-2.2848,-2.2836,-2.2739,-2.2678,-2.2678,-2.2678,-2.2629,-2.2567,-2.2616,-2.2616,-2.2641,-2.3376,-2.4057,-2.453,-2.5344,-2.5946,-2.6371,-2.6465,-2.6521,-2.6521,-2.6521,-2.6521,-2.6521,-2.6521,-2.6521,-2.6521,-2.6521,-2.6521,-2.6521,-2.6521,-2.6747,-2.7215,-2.7888,-2.8651,-2.9434,-3.0212,-3.1,-3.1434,-3.173,-3.2096,-3.2516,-3.2945,-3.3227,-3.3452,-3.373,-3.3937,-3.421,-3.4414,-3.4616,-3.4817,-3.4949,-3.5082,-3.5148,-3.5279,-3.5409,-3.5604,-3.5831,-3.6006,-3.6085,-3.6274,-3.6523,-3.6769,-3.7013,-3.7254,-3.7373,-3.7476,-3.7669,-3.786,-3.7934,-3.7934,-3.7934,-3.7934,-3.7934,-3.7934,-3.7876,-3.7876,-3.7876,-3.7876,-3.7801,-3.7685,-3.7626,-3.7642,-3.7583,-3.7642,-3.7759,-3.7817,-3.7759,-3.7743,-3.7695,-3.746,-3.7303,-3.7311,-3.7138,-3.6556,-3.6275,-3.6258,-3.6086,-3.5859,-3.5465,-3.507,-3.5199,-3.5359,-3.5088,-3.5182,-3.5291,-2.4791,-2.4229,-2.4008,-2.376,-2.345,-2.339,-2.321,-2.2957,-2.2909,-2.2787,-2.2543,-2.2482,-2.2482,-2.2432,-2.2482,-2.2432,-2.2383,-2.2383,-2.2321,-2.2309,-2.2432,-2.3113,-2.3884,-2.4546,-2.5172,-2.5803,-2.6396,-2.6452,-2.6521,-2.6521,-2.6521,-2.6521,-2.6521,-2.6521,-2.6521,-2.6521,-2.6521,-2.6521,-2.6521,-2.6521,-2.6697,-2.7227,-2.783,-2.8592,-2.9349,-3.009,-3.0742,-3.1185,-3.1434,-3.1803,-3.2228,-3.2646,-3.3002,-3.3227,-3.3452,-3.373,-3.4005,-3.421,-3.4414,-3.4616,-3.475,-3.4935,-3.5001,-3.5148,-3.5294,-3.5424,-3.5589,-3.5752,-3.5958,-3.6226,-3.6414,-3.6585,-3.6831,-3.7029,-3.721,-3.7314,-3.7492,-3.7669,-3.7801,-3.7817,-3.7817,-3.7817,-3.7817,-3.7817,-3.7817,-3.7759,-3.77,-3.7642,-3.7508,-3.7389,-3.7329,-3.7285,-3.7225,-3.721,-3.7314,-3.7524,-3.7539,-3.7508,-3.7476,-3.7404,-3.7472,-3.77,-3.7463,-3.6942,-3.6835,-3.6805,-3.6625,-3.6307,-3.6037,-3.5744,-3.5696,-3.5613,-3.5263,-3.5077,-3.5255]},{"header":{"parameterUnit":"m.s-1","parameterCategory":1,"la1":31.0,"la2":29.5877,"lo1":-88.7671,"lo2":-86.6584,"dy":0.0162,"dx":0.0185,"nx":115,"ny":88,"refTime":"2023-10-10T12:00:00:Z","depth":0,"parameterNumber":3,"parameterNumberName":"V-component_of_WINDS"},"data":[0.0,0.0,0.0,0.0,0.0,0.0,0.0,0.0,0.0,0.0,0.0,0.0,0.0,0.0,0.0,0.0,0.0,0.0,0.0,0.0,0.0,0.0,0.0,0.0,0.0,0.0,0.0,0.0,0.0,0.0,0.0,0.0,0.0,0.0,0.0,0.0,0.0,0.0,0.0,0.0,0.0,0.0,0.0,0.0,0.0,0.0,0.0,0.0,0.0,0.0,0.0,0.0,0.0,0.0,0.0,0.0,0.0,0.0,0.0,0.0,0.0,0.0,0.0,0.0,0.0,0.0,0.0,0.0,0.0,0.0,0.0,0.0,0.0,0.0,0.0,0.0,0.0,0.0,0.0,0.0,0.0,0.0,0.0,0.0,0.0,0.0,0.0,0.0,0.0,0.0,0.0,0.0,0.0,0.0,0.0,0.0,0.0,0.0,0.0,0.0,0.0,0.0,0.0,0.0,0.0,0.0,0.0,0.0,0.0,0.0,0.0,0.0,0.0,0.0,0.0,0.0,0.0,0.0,0.0,0.0,0.0,0.0,0.0,0.0,0.0,0.0,0.0,0.0,0.0,0.0,0.0,0.0,0.0,0.0,0.0,0.0,0.0,0.0,0.0,0.0,0.0,0.0,0.0,0.0,0.0,0.0,0.0,0.0,0.0,0.0,0.0,0.0,0.0,0.0,0.0,0.0,0.0,0.0,0.0,0.0,0.0,0.0,0.0,0.0,0.0,0.0,0.0,0.0,0.0,0.0,0.0,0.0,0.0,0.0,0.0,0.0,0.0,0.0,0.0,0.0,0.0,0.0,0.0,0.0,0.0,0.0,0.0,0.0,0.0,0.0,0.0,0.0,0.0,0.0,0.0,0.0,0.0,0.0,0.0,0.0,0.0,0.0,0.0,0.0,0.0,0.0,0.0,0.0,0.0,0.0,0.0,0.0,0.0,0.0,0.0,0.0,0.0,0.0,0.0,0.0,0.0,0.0,0.0,0.0,0.0,0.0,0.0,0.0,0.0,0.0,0.0,0.0,0.0,0.0,0.0,0.0,0.0,0.0,0.0,0.0,0.0,0.0,0.0,0.0,0.0,0.0,0.0,0.0,0.0,0.0,0.0,0.0,0.0,0.0,0.0,0.0,0.0,0.0,0.0,0.0,0.0,0.0,0.0,0.0,0.0,0.0,0.0,0.0,0.0,0.0,0.0,0.0,0.0,0.0,0.0,0.0,0.0,0.0,0.0,0.0,0.0,0.0,0.0,0.0,0.0,0.0,0.0,0.0,0.0,0.0,0.0,0.0,0.0,0.0,0.0,0.0,0.0,0.0,0.0,0.0,0.0,0.0,0.0,0.0,0.0,0.0,0.0,0.0,0.0,0.0,0.0,0.0,0.0,0.0,0.0,0.0,0.0,0.0,0.0,0.0,0.0,0.0,0.0,0.0,0.0,0.0,0.0,0.0,0.0,0.0,0.0,0.0,0.0,0.0,0.0,0.0,0.0,0.0,0.0,0.0,0.0,0.0,0.0,0.0,0.0,0.0,0.0,0.0,0.0,0.0,0.0,0.0,0.0,0.0,0.0,0.0,0.0,0.0,0.0,0.0,0.0,0.0,0.0,0.0,0.0,0.0,0.0,0.0,0.0,0.0,0.0,0.0,0.0,0.0,0.0,0.0,0.0,0.0,0.0,0.0,0.0,0.0,0.0,0.0,0.0,0.0,0.0,0.0,0.0,0.0,0.0,0.0,0.0,0.0,0.0,0.0,0.0,0.0,0.0,0.0,0.0,0.0,0.0,0.0,0.0,0.0,0.0,0.0,0.0,0.0,0.0,0.0,0.0,0.0,0.0,0.0,0.0,0.0,0.0,0.0,0.0,0.0,0.0,0.0,0.0,0.0,0.0,0.0,0.0,0.0,0.0,0.0,0.0,0.0,0.0,0.0,0.0,0.0,0.0,0.0,0.0,0.0,0.0,0.0,0.0,0.0,0.0,0.0,0.0,0.0,0.0,0.0,0.0,0.0,0.0,0.0,0.0,0.0,0.0,0.0,0.0,0.0,0.0,0.0,0.0,0.0,0.0,0.0,0.0,0.0,0.0,0.0,0.0,0.0,0.0,0.0,0.0,0.0,0.0,0.0,0.0,0.0,0.0,0.0,0.0,0.0,0.0,0.0,0.0,0.0,0.0,0.0,0.0,0.0,0.0,0.0,0.0,0.0,0.0,0.0,0.0,0.0,0.0,0.0,0.0,0.0,0.0,0.0,0.0,0.0,0.0,0.0,0.0,0.0,0.0,0.0,0.0,0.0,0.0,0.0,0.0,0.0,0.0,0.0,0.0,0.0,0.0,0.0,0.0,0.0,0.0,0.0,0.0,0.0,0.0,0.0,0.0,0.0,0.0,0.0,0.0,0.0,0.0,0.0,0.0,0.0,0.0,0.0,0.0,0.0,0.0,0.0,0.0,0.0,0.0,0.0,0.0,0.0,0.0,0.0,0.0,0.0,0.0,0.0,0.0,0.0,0.0,0.0,0.0,0.0,0.0,0.0,0.0,0.0,0.0,0.0,0.0,0.0,0.0,0.0,0.0,0.0,0.0,0.0,0.0,0.0,0.0,0.0,0.0,0.0,0.0,0.0,0.0,0.0,0.0,0.0,0.0,0.0,0.0,0.0,0.0,0.0,0.0,0.0,0.0,0.0,0.0,0.0,0.0,0.0,0.0,0.0,0.0,0.0,0.0,0.0,0.0,0.0,0.0,0.0,0.0,0.0,0.0,0.0,0.0,0.0,0.0,0.0,0.0,0.0,0.0,0.0,0.0,0.0,0.0,0.0,0.0,0.0,0.0,0.0,0.0,0.0,0.0,0.0,0.0,0.0,0.0,0.0,0.0,0.0,0.0,0.0,0.0,0.0,0.0,0.0,0.0,0.0,0.0,0.0,0.0,0.0,0.0,0.0,0.0,0.0,0.0,0.0,0.0,0.0,0.0,0.0,0.0,0.0,0.0,0.0,0.0,0.0,0.0,0.0,0.0,0.0,0.0,0.0,0.0,0.0,0.0,0.0,0.0,0.0,0.0,0.0,0.0,0.0,0.0,0.0,0.0,0.0,0.0,0.0,0.0,0.0,0.0,0.0,0.0,0.0,0.0,0.0,0.0,0.0,0.0,0.0,0.0,0.0,0.0,0.0,0.0,0.0,0.0,0.0,0.0,0.0,0.0,0.0,0.0,0.0,0.0,0.0,0.0,0.0,0.0,0.0,0.0,0.0,0.0,0.0,0.0,0.0,0.0,0.0,0.0,0.0,0.0,0.0,0.0,0.0,0.0,0.0,0.0,0.0,0.0,0.0,0.0,0.0,0.0,0.0,0.0,0.0,0.0,0.0,0.0,0.0,0.0,0.0,0.0,0.0,0.0,0.0,0.0,0.0,0.0,0.0,0.0,0.0,0.0,0.0,0.0,0.0,0.0,0.0,0.0,0.0,0.0,0.0,0.0,0.0,0.0,0.0,0.0,0.0,0.0,0.0,0.0,0.0,0.0,0.0,0.0,0.0,0.0,0.0,0.0,0.0,0.0,0.0,0.0,0.0,0.0,0.0,0.0,0.0,0.0,0.0,0.0,0.0,0.0,0.0,0.0,0.0,0.0,0.0,0.0,0.0,0.0,0.0,0.0,0.0,0.0,0.0,0.0,0.0,0.0,0.0,0.0,0.0,0.0,0.0,0.0,0.0,0.0,0.0,0.0,0.0,0.0,0.0,0.0,0.0,0.0,0.0,0.0,0.0,0.0,0.0,0.0,0.0,0.0,0.0,0.0,0.0,0.0,0.0,0.0,0.0,0.0,0.0,0.0,0.0,0.0,0.0,0.0,0.0,0.0,0.0,0.0,0.0,0.0,0.0,0.0,0.0,0.0,0.0,0.0,0.0,0.0,0.0,0.0,0.0,0.0,0.0,0.0,0.0,0.0,0.0,0.0,0.0,0.0,0.0,0.0,0.0,0.0,0.0,0.0,0.0,0.0,0.0,0.0,0.0,0.0,0.0,0.0,0.0,0.0,0.0,0.0,0.0,0.0,0.0,0.0,0.0,0.0,0.0,0.0,0.0,0.0,0.0,0.0,0.0,0.0,0.0,0.0,0.0,0.0,0.0,0.0,0.0,0.0,0.0,0.0,0.0,0.0,0.0,0.0,0.0,0.0,0.0,0.0,0.0,0.0,0.0,0.0,0.0,0.0,0.0,0.0,0.0,0.0,0.0,0.0,0.0,0.0,0.0,0.0,0.0,0.0,0.0,0.0,0.0,-0.5073,0.0,0.0,0.0,0.0,0.0,0.0,0.0,0.0,0.0,0.0,0.0,0.0,0.0,0.0,0.0,0.0,0.0,0.0,0.0,0.0,0.0,0.0,0.0,0.0,0.0,0.0,0.0,0.0,0.0,0.0,0.0,0.0,0.0,0.0,0.0,0.0,0.0,0.0,0.0,0.0,0.0,0.0,0.0,0.0,0.0,0.0,0.0,0.0,0.0,0.0,0.0,0.0,0.0,0.0,0.0,0.0,0.0,0.0,0.0,0.0,0.0,0.0,0.0,0.0,0.0,0.0,0.0,0.0,0.0,0.0,0.0,0.0,0.0,0.0,0.0,0.0,0.0,0.0,0.0,0.0,0.0,0.0,0.0,0.0,0.0,0.0,0.0,0.0,0.0,0.0,0.0,0.0,0.0,0.0,0.0,0.0,0.0,0.0,0.0,0.0,0.0,0.0,0.0,0.0,0.0,0.0,0.0,0.0,0.0,0.0,-0.5677,-0.5563,-0.5517,-0.5517,-0.5462,0.0,0.0,0.0,0.0,0.0,0.0,0.0,0.0,0.0,0.0,0.0,0.0,0.0,0.0,0.0,0.0,0.0,0.0,0.0,0.0,0.0,0.0,0.0,0.0,0.0,0.0,0.0,0.0,0.0,0.0,0.0,0.0,0.0,0.0,0.0,0.0,0.0,0.0,0.0,0.0,0.0,0.0,0.0,0.0,0.0,0.0,0.0,0.0,0.0,0.0,0.0,0.0,0.0,0.0,0.0,0.0,0.0,0.0,0.0,0.0,0.0,0.0,0.0,0.0,0.0,0.0,0.0,0.0,0.0,0.0,0.0,0.0,0.0,0.0,0.0,0.0,0.0,0.0,0.0,0.0,0.0,0.0,0.0,0.0,0.0,0.0,0.0,0.0,0.0,0.0,0.0,0.0,0.0,0.0,0.0,0.0,0.0,0.0,0.0,0.0,0.0,0.0,0.0,0.0,0.0,0.0,0.0,0.0,0.0,0.0,0.0,0.0,-0.5955,-0.5905,-0.5845,0.0,0.0,0.0,0.0,0.0,0.0,0.0,0.0,0.0,0.0,0.0,0.0,0.0,0.0,0.0,0.0,0.0,0.0,0.0,0.0,0.0,0.0,0.0,0.0,0.0,0.0,0.0,0.0,0.0,0.0,0.0,0.0,0.0,0.0,0.0,0.0,0.0,0.0,0.0,0.0,0.0,0.0,0.0,0.0,0.0,0.0,0.0,0.0,0.0,0.0,0.0,0.0,0.0,0.0,0.0,0.0,0.0,0.0,0.0,0.0,0.0,0.0,0.0,0.0,0.0,0.0,0.0,0.0,0.0,0.0,0.0,0.0,0.0,0.0,0.0,0.0,0.0,0.0,0.0,0.0,0.0,0.0,0.0,0.0,0.0,0.0,0.0,0.0,0.0,0.0,0.0,0.0,0.0,0.0,0.0,0.0,0.0,0.0,0.0,0.0,0.0,0.0,0.0,0.0,0.0,0.0,0.0,0.0,0.0,0.0,-0.6593,-0.6598,-0.6436,0.0,-0.6005,0.0,0.0,0.0,0.0,0.0,0.0,0.0,0.0,0.0,0.0,0.0,0.0,0.0,0.0,0.0,0.0,0.0,0.0,0.0,0.0,0.0,0.0,0.0,0.0,0.0,0.0,0.0,0.0,0.0,0.0,0.0,0.0,0.0,0.0,0.0,0.0,0.0,0.0,0.0,0.0,0.0,0.0,0.0,0.0,0.0,0.0,0.0,0.0,0.0,0.0,0.0,0.0,0.0,0.0,0.0,0.0,0.0,0.0,0.0,0.0,0.0,0.0,0.0,0.0,0.0,0.0,0.0,0.0,0.0,0.0,0.0,0.0,0.0,0.0,0.0,0.0,0.0,0.0,0.0,0.0,0.0,0.0,0.0,0.0,0.0,0.0,0.0,0.0,0.0,0.0,0.0,0.0,0.0,0.0,0.0,0.0,0.0,0.0,0.0,0.0,0.0,0.0,0.0,0.0,0.0,0.0,0.0,0.0,0.0,0.0,-0.6707,-0.6707,-0.6598,-0.6539,0.0,0.0,0.0,0.0,0.0,0.0,0.0,0.0,0.0,0.0,0.0,0.0,0.0,0.0,0.0,0.0,0.0,0.0,0.0,0.0,0.0,0.0,0.0,0.0,0.0,0.0,0.0,0.0,0.0,0.0,0.0,0.0,0.0,0.0,0.0,0.0,0.0,0.0,0.0,0.0,0.0,0.0,0.0,0.0,0.0,0.0,0.0,0.0,0.0,0.0,0.0,0.0,0.0,0.0,0.0,0.0,0.0,0.0,0.0,0.0,0.0,0.0,0.0,0.0,0.0,0.0,0.0,0.0,0.0,0.0,0.0,0.0,0.0,0.0,0.0,0.0,0.0,0.0,0.0,0.0,0.0,0.0,0.0,0.0,0.0,0.0,0.0,0.0,0.0,0.0,0.0,0.0,0.0,0.0,0.0,0.0,0.0,0.0,0.0,0.0,0.0,0.0,0.0,0.0,0.0,0.0,0.0,0.0,0.0,0.0,-0.6923,-0.6923,-0.6874,-0.6815,-0.6815,-0.6761,0.0,0.0,0.0,0.0,0.0,0.0,0.0,0.0,0.0,0.0,0.0,0.0,0.0,0.0,0.0,0.0,0.0,0.0,0.0,0.0,0.0,0.0,0.0,0.0,0.0,0.0,0.0,0.0,0.0,0.0,0.0,0.0,0.0,0.0,0.0,0.0,0.0,0.0,0.0,0.0,0.0,0.0,0.0,0.0,0.0,0.0,0.0,0.0,0.0,0.0,0.0,0.0,0.0,0.0,0.0,0.0,0.0,0.0,0.0,0.0,0.0,0.0,0.0,0.0,0.0,0.0,0.0,0.0,0.0,0.0,0.0,0.0,0.0,0.0,0.0,0.0,0.0,0.0,0.0,0.0,0.0,0.0,0.0,0.0,0.0,0.0,0.0,0.0,0.0,0.0,0.0,0.0,0.0,0.0,0.0,0.0,0.0,0.0,0.0,0.0,0.0,0.0,0.0,0.0,0.0,0.0,0.0,0.0,-0.7263,-0.7424,-0.7419,-0.7268,-0.7149,-0.7031,0.0,0.0,0.0,0.0,0.0,0.0,0.0,0.0,0.0,0.0,0.0,0.0,0.0,0.0,0.0,0.0,0.0,0.0,0.0,0.0,0.0,0.0,0.0,0.0,0.0,0.0,0.0,0.0,0.0,0.0,0.0,0.0,0.0,0.0,0.0,0.0,0.0,0.0,0.0,0.0,0.0,0.0,0.0,0.0,0.0,0.0,0.0,0.0,0.0,0.0,0.0,0.0,0.0,0.0,0.0,0.0,0.0,0.0,0.0,0.0,0.0,0.0,0.0,0.0,0.0,0.0,0.0,0.0,0.0,0.0,0.0,0.0,0.0,0.0,0.0,0.0,0.0,0.0,0.0,0.0,0.0,0.0,0.0,0.0,0.0,0.0,0.0,0.0,0.0,0.0,0.0,0.0,0.0,0.0,0.0,0.0,0.0,0.0,0.0,0.0,0.0,0.0,0.0,0.0,0.0,0.0,0.0,0.0,0.0,-0.7705,-0.7915,-0.792,-0.7716,-0.7644,-0.7516,0.0,0.0,0.0,0.0,0.0,0.0,0.0,0.0,0.0,0.0,0.0,0.0,0.0,0.0,0.0,0.0,0.0,0.0,0.0,0.0,0.0,0.0,0.0,0.0,0.0,0.0,0.0,0.0,0.0,0.0,0.0,0.0,0.0,0.0,0.0,0.0,0.0,0.0,0.0,0.0,0.0,0.0,0.0,0.0,0.0,0.0,0.0,0.0,0.0,0.0,0.0,0.0,0.0,0.0,0.0,0.0,0.0,0.0,0.0,0.0,0.0,0.0,0.0,0.0,0.0,0.0,0.0,0.0,0.0,0.0,0.0,0.0,0.0,0.0,0.0,0.0,0.0,0.0,0.0,0.0,0.0,0.0,0.0,0.0,0.0,0.0,0.0,0.0,0.0,0.0,0.0,0.0,0.0,0.0,0.0,0.0,0.0,0.0,0.0,0.0,0.0,0.0,0.0,0.0,0.0,0.0,0.0,0.0,0.0,-0.8171,0.0,-0.8294,-0.808,-0.7988,-0.7868,0.0,0.0,0.0,0.0,0.0,0.0,0.0,0.0,0.0,0.0,0.0,0.0,0.0,0.0,0.0,0.0,0.0,0.0,0.0,0.0,0.0,0.0,0.0,0.0,0.0,0.0,0.0,0.0,0.0,0.0,0.0,0.0,0.0,0.0,0.0,0.0,0.0,0.0,0.0,0.0,0.0,0.0,0.0,0.0,0.0,0.0,0.0,0.0,0.0,0.0,0.0,0.0,0.0,0.0,0.0,0.0,0.0,0.0,0.0,0.0,0.0,0.0,0.0,0.0,0.0,0.0,0.0,0.0,0.0,0.0,0.0,0.0,0.0,0.0,0.0,0.0,0.0,0.0,0.0,0.0,0.0,0.0,0.0,0.0,0.0,0.0,0.0,0.0,0.0,0.0,0.0,0.0,0.0,0.0,0.0,0.0,0.0,0.0,0.0,0.0,0.0,0.0,0.0,0.0,0.0,0.0,0.0,0.0,-0.8321,-0.8669,-0.8693,-0.8652,-0.851,-0.8281,-0.8084,0.0,0.0,0.0,0.0,0.0,0.0,0.0,0.0,0.0,0.0,0.0,0.0,0.0,0.0,0.0,0.0,0.0,0.0,0.0,0.0,0.0,0.0,0.0,0.0,0.0,0.0,0.0,0.0,0.0,0.0,0.0,0.0,0.0,0.0,0.0,0.0,0.0,0.0,0.0,0.0,0.0,0.0,0.0,0.0,0.0,0.0,0.0,0.0,0.0,0.0,0.0,0.0,0.0,0.0,0.0,0.0,0.0,0.0,0.0,0.0,0.0,0.0,0.0,0.0,0.0,0.0,0.0,0.0,0.0,0.0,0.0,0.0,0.0,0.0,0.0,0.0,0.0,0.0,0.0,0.0,0.0,0.0,0.0,0.0,0.0,0.0,0.0,0.0,0.0,0.0,0.0,0.0,0.0,0.0,0.0,0.0,0.0,0.0,0.0,0.0,0.0,0.0,0.0,0.0,0.0,0.0,0.0,0.0,0.0,-0.8944,-0.9136,-0.9142,-0.8896,-0.8807,-0.8663,0.0,0.0,0.0,0.0,0.0,0.0,0.0,0.0,0.0,0.0,0.0,0.0,0.0,0.0,0.0,0.0,0.0,0.0,0.0,0.0,0.0,0.0,0.0,0.0,0.0,0.0,0.0,0.0,0.0,0.0,0.0,0.0,0.0,0.0,0.0,0.0,0.0,0.0,0.0,0.0,0.0,0.0,0.0,0.0,0.0,0.0,0.0,0.0,0.0,0.0,0.0,0.0,0.0,0.0,0.0,0.0,0.0,0.0,0.0,0.0,0.0,0.0,0.0,0.0,0.0,0.0,0.0,0.0,0.0,0.0,0.0,0.0,0.0,0.0,0.0,0.0,0.0,0.0,0.0,0.0,0.0,0.0,0.0,0.0,0.0,0.0,0.0,0.0,0.0,0.0,0.0,0.0,0.0,0.0,0.0,0.0,0.0,0.0,0.0,0.0,0.0,0.0,0.0,0.0,0.0,0.0,0.0,0.0,0.0,-0.9475,-0.9578,-0.9591,-0.9407,-0.9371,-0.9178,-0.8852,0.0,0.0,0.0,0.0,0.0,0.0,0.0,0.0,0.0,0.0,0.0,0.0,0.0,0.0,0.0,0.0,0.0,0.0,0.0,0.0,0.0,0.0,0.0,0.0,0.0,0.0,0.0,0.0,0.0,0.0,0.0,0.0,0.0,0.0,0.0,0.0,0.0,0.0,0.0,0.0,0.0,0.0,0.0,0.0,0.0,0.0,0.0,0.0,0.0,0.0,0.0,0.0,0.0,0.0,0.0,0.0,0.0,0.0,0.0,0.0,0.0,0.0,0.0,0.0,0.0,0.0,0.0,0.0,0.0,0.0,0.0,0.0,0.0,0.0,0.0,0.0,0.0,0.0,0.0,0.0,0.0,0.0,0.0,0.0,0.0,0.0,0.0,0.0,0.0,0.0,0.0,0.0,0.0,0.0,0.0,0.0,0.0,0.0,0.0,0.0,0.0,0.0,0.0,0.0,0.0,0.0,0.0,0.0,-1.0098,-1.0098,-1.0021,-0.9977,-0.9799,-0.9586,0.0,0.0,0.0,0.0,0.0,0.0,0.0,0.0,0.0,0.0,0.0,0.0,0.0,0.0,0.0,0.0,0.0,0.0,0.0,0.0,0.0,0.0,0.0,0.0,0.0,0.0,0.0,0.0,0.0,0.0,0.0,0.0,0.0,0.0,0.0,0.0,0.0,0.0,0.0,0.0,0.0,0.0,0.0,0.0,0.0,0.0,0.0,0.0,0.0,0.0,0.0,0.0,0.0,0.0,0.0,0.0,0.0,0.0,0.0,0.0,0.0,0.0,0.0,0.0,0.0,0.0,0.0,0.0,0.0,0.0,0.0,0.0,0.0,0.0,0.0,0.0,0.0,0.0,0.0,0.0,0.0,0.0,0.0,0.0,0.0,0.0,0.0,0.0,0.0,0.0,0.0,0.0,0.0,0.0,0.0,0.0,0.0,0.0,0.0,0.0,0.0,0.0,0.0,0.0,0.0,0.0,0.0,0.0,0.0,-1.1055,-1.1068,-1.0731,-1.0072,-0.992,-0.9874,0.0,0.0,0.0,0.0,0.0,0.0,0.0,0.0,0.0,0.0,0.0,0.0,0.0,0.0,0.0,0.0,0.0,0.0,0.0,0.0,0.0,0.0,0.0,0.0,0.0,0.0,0.0,0.0,0.0,0.0,0.0,0.0,0.0,0.0,0.0,0.0,0.0,0.0,0.0,0.0,0.0,0.0,0.0,0.0,0.0,0.0,0.0,0.0,0.0,0.0,0.0,0.0,0.0,0.0,0.0,0.0,0.0,0.0,0.0,0.0,0.0,0.0,0.0,0.0,0.0,0.0,0.0,0.0,0.0,0.0,0.0,0.0,0.0,0.0,0.0,0.0,0.0,0.0,0.0,0.0,0.0,0.0,0.0,0.0,0.0,0.0,0.0,0.0,0.0,0.0,0.0,0.0,0.0,0.0,0.0,0.0,0.0,0.0,0.0,0.0,0.0,0.0,0.0,0.0,0.0,0.0,0.0,0.0,-1.1336,-1.1491,-1.1635,-1.1343,-1.069,-1.0484,-1.0351,0.0,0.0,0.0,0.0,0.0,0.0,0.0,0.0,0.0,0.0,0.0,0.0,0.0,0.0,0.0,0.0,0.0,0.0,0.0,0.0,0.0,0.0,0.0,0.0,0.0,0.0,0.0,0.0,0.0,0.0,0.0,0.0,0.0,0.0,0.0,0.0,0.0,0.0,0.0,0.0,0.0,0.0,0.0,0.0,0.0,0.0,0.0,0.0,0.0,0.0,0.0,0.0,0.0,0.0,0.0,0.0,0.0,0.0,0.0,0.0,0.0,0.0,0.0,0.0,0.0,0.0,0.0,0.0,0.0,0.0,0.0,0.0,0.0,0.0,0.0,0.0,0.0,0.0,0.0,0.0,0.0,0.0,0.0,0.0,0.0,0.0,0.0,0.0,0.0,0.0,0.0,0.0,0.0,0.0,0.0,0.0,0.0,0.0,0.0,0.0,0.0,0.0,0.0,0.0,0.0,0.0,0.0,0.0,-1.1657,-1.1792,-1.2005,-1.192,-1.1577,-1.12,-1.0863,0.0,0.0,0.0,0.0,0.0,0.0,0.0,0.0,0.0,0.0,0.0,0.0,0.0,0.0,0.0,0.0,0.0,0.0,0.0,0.0,0.0,0.0,0.0,0.0,0.0,0.0,0.0,0.0,0.0,0.0,0.0,0.0,0.0,0.0,0.0,0.0,0.0,0.0,0.0,0.0,0.0,0.0,0.0,0.0,0.0,0.0,0.0,0.0,0.0,0.0,0.0,0.0,0.0,0.0,0.0,0.0,0.0,0.0,0.0,0.0,0.0,0.0,0.0,0.0,0.0,0.0,0.0,0.0,0.0,0.0,0.0,0.0,0.0,0.0,0.0,0.0,0.0,0.0,0.0,0.0,0.0,0.0,0.0,0.0,0.0,0.0,0.0,0.0,0.0,0.0,0.0,0.0,0.0,0.0,0.0,0.0,0.0,0.0,0.0,0.0,0.0,0.0,0.0,0.0,0.0,0.0,0.0,0.0,-1.2151,-1.2611,-1.2697,-1.2438,-1.1892,-1.1581,-1.1281,0.0,0.0,0.0,0.0,0.0,0.0,0.0,0.0,0.0,0.0,0.0,0.0,0.0,0.0,0.0,0.0,0.0,0.0,0.0,0.0,0.0,0.0,0.0,0.0,0.0,0.0,0.0,0.0,0.0,0.0,0.0,0.0,0.0,0.0,0.0,0.0,0.0,0.0,0.0,0.0,0.0,0.0,0.0,0.0,0.0,0.0,0.0,0.0,-0.9869,0.0,0.0,0.0,0.0,0.0,0.0,0.0,0.0,0.0,0.0,0.0,0.0,0.0,0.0,0.0,0.0,0.0,0.0,0.0,0.0,0.0,0.0,0.0,0.0,0.0,0.0,0.0,0.0,0.0,0.0,0.0,0.0,0.0,0.0,0.0,0.0,0.0,0.0,0.0,0.0,0.0,0.0,0.0,0.0,0.0,0.0,0.0,0.0,0.0,0.0,0.0,0.0,0.0,0.0,0.0,0.0,0.0,0.0,0.0,-1.2486,-1.3018,-1.32,-1.3042,-1.2427,-1.2291,-1.1913,0.0,0.0,0.0,0.0,0.0,0.0,0.0,0.0,0.0,0.0,0.0,0.0,0.0,0.0,0.0,0.0,0.0,0.0,0.0,0.0,0.0,0.0,0.0,0.0,0.0,0.0,0.0,0.0,0.0,0.0,0.0,0.0,0.0,0.0,0.0,0.0,0.0,0.0,0.0,0.0,0.0,0.0,0.0,0.0,0.0,0.0,0.0,0.0,0.0,0.0,0.0,0.0,0.0,0.0,0.0,0.0,0.0,0.0,0.0,0.0,0.0,0.0,0.0,0.0,0.0,0.0,0.0,0.0,0.0,0.0,0.0,0.0,0.0,0.0,0.0,0.0,0.0,0.0,0.0,0.0,0.0,0.0,0.0,0.0,0.0,0.0,0.0,0.0,0.0,0.0,0.0,0.0,0.0,0.0,0.0,0.0,0.0,0.0,0.0,0.0,0.0,0.0,0.0,0.0,0.0,0.0,0.0,-1.2497,-1.2742,-1.3245,-1.3615,-1.3547,-1.2893,-1.3005,-1.2629,-1.1512,0.0,0.0,0.0,0.0,0.0,0.0,0.0,0.0,0.0,0.0,0.0,0.0,0.0,0.0,0.0,0.0,0.0,0.0,0.0,0.0,0.0,0.0,0.0,0.0,0.0,0.0,0.0,0.0,0.0,0.0,0.0,0.0,0.0,0.0,0.0,0.0,0.0,0.0,-1.1269,-1.1178,0.0,0.0,0.0,0.0,0.0,0.0,0.0,0.0,-1.0263,0.0,0.0,0.0,0.0,0.0,0.0,0.0,0.0,0.0,0.0,0.0,0.0,0.0,0.0,0.0,0.0,0.0,0.0,0.0,0.0,0.0,0.0,0.0,0.0,0.0,0.0,0.0,0.0,0.0,0.0,0.0,0.0,0.0,0.0,0.0,0.0,0.0,0.0,0.0,0.0,0.0,0.0,0.0,0.0,0.0,0.0,0.0,0.0,0.0,0.0,0.0,0.0,0.0,0.0,0.0,0.0,-1.2493,-1.2654,-1.2983,-1.3427,-1.3848,-1.3752,-1.3111,-1.3073,-1.2825,-1.2135,0.0,0.0,0.0,0.0,0.0,0.0,0.0,0.0,0.0,0.0,0.0,0.0,0.0,0.0,0.0,0.0,0.0,0.0,0.0,0.0,0.0,0.0,0.0,0.0,0.0,0.0,0.0,0.0,0.0,0.0,0.0,0.0,0.0,0.0,0.0,0.0,0.0,0.0,0.0,-1.1386,-1.1188,0.0,0.0,0.0,0.0,0.0,0.0,0.0,0.0,-1.023,0.0,0.0,0.0,0.0,0.0,0.0,0.0,0.0,0.0,0.0,0.0,0.0,0.0,0.0,0.0,0.0,0.0,0.0,0.0,0.0,0.0,0.0,0.0,0.0,0.0,0.0,0.0,0.0,0.0,0.0,0.0,0.0,0.0,0.0,0.0,0.0,0.0,0.0,0.0,0.0,0.0,0.0,0.0,0.0,0.0,0.0,0.0,0.0,0.0,0.0,0.0,0.0,0.0,0.0,0.0,-1.2588,-1.2838,-1.3165,-1.3615,-1.3925,-1.3917,-1.3483,-1.3425,-1.3204,0.0,0.0,0.0,0.0,0.0,0.0,0.0,0.0,0.0,0.0,0.0,0.0,0.0,0.0,0.0,0.0,0.0,0.0,0.0,0.0,0.0,0.0,0.0,0.0,0.0,0.0,0.0,0.0,0.0,0.0,0.0,0.0,0.0,0.0,0.0,0.0,0.0,0.0,0.0,0.0,-1.1772,-1.1532,-1.1539,0.0,0.0,0.0,0.0,0.0,0.0,-1.0599,-1.0647,0.0,0.0,0.0,0.0,0.0,0.0,0.0,0.0,0.0,0.0,0.0,0.0,0.0,0.0,0.0,0.0,0.0,0.0,0.0,0.0,0.0,0.0,0.0,0.0,0.0,0.0,0.0,0.0,0.0,0.0,0.0,0.0,0.0,0.0,0.0,0.0,0.0,0.0,0.0,0.0,0.0,0.0,0.0,0.0,0.0,0.0,0.0,0.0,0.0,0.0,0.0,0.0,0.0,0.0,0.0,-1.2822,-1.3068,-1.3395,-1.3844,-1.4005,-1.4074,-1.3924,-1.3768,-1.3489,0.0,0.0,0.0,0.0,0.0,0.0,0.0,0.0,0.0,0.0,0.0,0.0,0.0,0.0,0.0,0.0,0.0,0.0,0.0,0.0,0.0,0.0,0.0,0.0,0.0,0.0,0.0,0.0,0.0,0.0,0.0,0.0,0.0,0.0,0.0,0.0,0.0,0.0,0.0,0.0,0.0,-1.195,-1.1861,-1.1945,0.0,0.0,0.0,0.0,-1.1156,-1.1037,0.0,0.0,0.0,0.0,0.0,0.0,0.0,0.0,0.0,0.0,0.0,0.0,0.0,0.0,0.0,0.0,0.0,0.0,0.0,0.0,0.0,0.0,0.0,0.0,0.0,0.0,0.0,0.0,0.0,0.0,0.0,0.0,0.0,0.0,0.0,0.0,0.0,0.0,0.0,0.0,0.0,0.0,0.0,0.0,0.0,0.0,0.0,0.0,0.0,0.0,0.0,0.0,0.0,0.0,0.0,0.0,-1.296,-1.3163,-1.3575,-1.4032,-1.4114,-1.4173,-1.4329,-1.3961,-1.3566,0.0,0.0,0.0,0.0,0.0,0.0,0.0,0.0,0.0,0.0,0.0,0.0,0.0,0.0,0.0,0.0,0.0,0.0,0.0,0.0,0.0,0.0,0.0,0.0,0.0,0.0,0.0,0.0,0.0,0.0,0.0,0.0,0.0,0.0,0.0,0.0,0.0,0.0,0.0,0.0,0.0,-1.2234,-1.2494,-1.2378,-1.2104,0.0,0.0,-1.152,-1.1403,-1.1329,0.0,0.0,0.0,0.0,0.0,0.0,0.0,0.0,0.0,0.0,0.0,0.0,0.0,0.0,0.0,0.0,0.0,0.0,0.0,0.0,0.0,0.0,0.0,0.0,0.0,0.0,0.0,0.0,0.0,0.0,0.0,0.0,0.0,0.0,0.0,0.0,0.0,0.0,0.0,0.0,0.0,0.0,0.0,0.0,0.0,0.0,0.0,0.0,0.0,0.0,0.0,0.0,0.0,0.0,0.0,-1.2586,-1.3252,-1.3584,-1.3844,-1.4204,-1.4204,-1.4341,-1.4478,-1.4223,-1.3978,0.0,0.0,0.0,0.0,0.0,0.0,0.0,0.0,0.0,0.0,0.0,0.0,0.0,0.0,0.0,0.0,0.0,0.0,0.0,0.0,0.0,0.0,0.0,0.0,0.0,0.0,0.0,0.0,0.0,0.0,0.0,0.0,0.0,0.0,0.0,0.0,0.0,0.0,0.0,0.0,0.0,0.0,-1.2743,-1.2592,0.0,0.0,0.0,-1.1781,-1.1632,0.0,0.0,0.0,0.0,0.0,0.0,0.0,0.0,0.0,0.0,0.0,0.0,0.0,0.0,0.0,0.0,0.0,0.0,0.0,0.0,0.0,0.0,0.0,0.0,0.0,0.0,0.0,0.0,0.0,0.0,0.0,0.0,0.0,0.0,0.0,0.0,0.0,0.0,0.0,0.0,0.0,0.0,0.0,0.0,0.0,0.0,0.0,0.0,0.0,0.0,0.0,0.0,0.0,0.0,0.0,0.0,0.0,-1.3614,-1.3855,-1.4115,-1.4353,-1.4257,-1.4373,-1.4658,-1.4396,0.0,0.0,0.0,0.0,0.0,0.0,0.0,0.0,0.0,0.0,0.0,0.0,0.0,0.0,0.0,0.0,0.0,0.0,0.0,0.0,0.0,0.0,0.0,0.0,0.0,0.0,0.0,-1.2661,0.0,0.0,0.0,0.0,0.0,0.0,0.0,0.0,0.0,0.0,0.0,0.0,0.0,0.0,-1.2848,-1.2896,-1.2746,-1.2452,0.0,0.0,-1.1929,-1.1781,-1.1855,-1.2083,0.0,0.0,0.0,0.0,0.0,0.0,0.0,0.0,0.0,0.0,0.0,0.0,0.0,0.0,0.0,0.0,0.0,0.0,0.0,0.0,0.0,0.0,0.0,0.0,0.0,0.0,0.0,0.0,0.0,0.0,0.0,0.0,0.0,0.0,0.0,0.0,0.0,0.0,0.0,0.0,0.0,0.0,0.0,0.0,0.0,0.0,0.0,0.0,0.0,0.0,0.0,0.0,0.0,0.0,0.0,-1.3923,-1.3976,-1.4179,-1.4524,-1.4179,-1.4284,-1.4746,-1.4569,-1.4363,0.0,0.0,0.0,0.0,0.0,0.0,0.0,0.0,0.0,0.0,0.0,0.0,0.0,0.0,0.0,0.0,0.0,0.0,0.0,0.0,0.0,0.0,0.0,0.0,0.0,0.0,0.0,0.0,0.0,0.0,0.0,0.0,0.0,0.0,0.0,0.0,0.0,0.0,0.0,0.0,0.0,-1.3175,-1.2924,-1.2753,-1.2452,0.0,0.0,-1.2003,-1.2003,-1.2157,-1.2372,-1.282,0.0,0.0,0.0,0.0,0.0,0.0,0.0,0.0,0.0,0.0,0.0,0.0,0.0,0.0,0.0,0.0,0.0,0.0,0.0,0.0,0.0,0.0,0.0,0.0,0.0,0.0,0.0,0.0,0.0,0.0,0.0,0.0,0.0,0.0,0.0,0.0,0.0,0.0,0.0,0.0,0.0,0.0,0.0,0.0,0.0,0.0,0.0,0.0,0.0,0.0,0.0,0.0,0.0,-1.3985,-1.441,-1.4419,-1.4492,-1.4647,-1.4501,-1.4621,-1.4898,-1.4928,-1.4885,0.0,0.0,0.0,0.0,0.0,0.0,0.0,0.0,0.0,0.0,0.0,0.0,0.0,0.0,0.0,0.0,0.0,0.0,0.0,0.0,0.0,0.0,0.0,0.0,0.0,0.0,0.0,0.0,-1.3192,-1.3123,-1.357,0.0,0.0,0.0,0.0,0.0,0.0,0.0,0.0,0.0,0.0,-1.3338,-1.2931,-1.2826,0.0,0.0,-1.2157,-1.2157,-1.2157,-1.2224,-1.2452,-1.2826,-1.3165,0.0,0.0,0.0,0.0,0.0,0.0,0.0,0.0,0.0,0.0,0.0,0.0,0.0,0.0,0.0,0.0,0.0,0.0,0.0,0.0,0.0,0.0,0.0,0.0,0.0,0.0,0.0,0.0,0.0,0.0,0.0,0.0,0.0,0.0,0.0,0.0,0.0,0.0,0.0,0.0,0.0,0.0,0.0,0.0,0.0,0.0,0.0,0.0,0.0,0.0,0.0,0.0,-1.4506,-1.4775,-1.4775,-1.4775,-1.4784,-1.4775,-1.4843,-1.497,-1.5088,-1.5205,0.0,0.0,0.0,0.0,0.0,0.0,0.0,0.0,0.0,0.0,0.0,0.0,0.0,0.0,0.0,0.0,0.0,0.0,0.0,0.0,0.0,0.0,0.0,0.0,0.0,0.0,0.0,0.0,-1.3713,-1.3672,-1.4008,0.0,0.0,0.0,0.0,0.0,0.0,0.0,0.0,0.0,0.0,-1.3513,-1.3011,-1.29,-1.2753,-1.2372,-1.2305,-1.2305,-1.2305,-1.2378,-1.2526,-1.2826,0.0,0.0,0.0,0.0,0.0,0.0,0.0,0.0,0.0,0.0,0.0,0.0,0.0,0.0,0.0,0.0,0.0,0.0,0.0,0.0,0.0,0.0,0.0,0.0,0.0,0.0,0.0,-0.9525,0.0,0.0,-1.0637,0.0,0.0,0.0,0.0,0.0,0.0,0.0,0.0,0.0,0.0,0.0,0.0,0.0,0.0,0.0,0.0,0.0,0.0,0.0,0.0,0.0,0.0,-1.463,-1.497,-1.498,-1.498,-1.498,-1.498,-1.498,-1.5048,-1.5156,-1.5205,-1.5205,0.0,0.0,0.0,0.0,0.0,0.0,0.0,0.0,0.0,0.0,0.0,0.0,0.0,0.0,0.0,0.0,0.0,0.0,0.0,0.0,0.0,0.0,0.0,0.0,0.0,0.0,-1.4066,-1.4368,-1.4638,0.0,0.0,0.0,0.0,0.0,0.0,0.0,0.0,0.0,0.0,-1.3993,-1.3833,-1.3046,-1.29,-1.2753,-1.2378,-1.2305,-1.2305,-1.2305,-1.2459,-1.2673,0.0,0.0,0.0,0.0,0.0,0.0,0.0,0.0,0.0,0.0,0.0,0.0,0.0,0.0,0.0,0.0,0.0,0.0,0.0,0.0,0.0,0.0,0.0,0.0,0.0,0.0,0.0,-0.9995,-1.0397,0.0,0.0,0.0,0.0,0.0,0.0,0.0,0.0,0.0,0.0,0.0,-1.4321,-1.4781,0.0,0.0,0.0,0.0,0.0,0.0,0.0,0.0,0.0,0.0,0.0,0.0,-1.511,-1.5147,-1.5156,-1.5281,-1.5549,-1.53,-1.534,-1.573,-1.5449,-1.5303,-1.5371,0.0,0.0,0.0,0.0,0.0,0.0,0.0,0.0,0.0,0.0,0.0,0.0,0.0,0.0,0.0,0.0,0.0,0.0,0.0,0.0,0.0,0.0,0.0,0.0,0.0,-1.4061,0.0,0.0,0.0,0.0,0.0,0.0,0.0,0.0,0.0,0.0,0.0,-1.4637,-1.4371,-1.4204,-1.384,-1.3193,-1.3127,-1.2973,0.0,0.0,0.0,0.0,0.0,0.0,0.0,0.0,0.0,0.0,0.0,0.0,0.0,0.0,-1.5195,-1.5158,-1.4998,-1.4772,-1.4633,0.0,0.0,0.0,0.0,0.0,0.0,0.0,0.0,0.0,0.0,0.0,0.0,0.0,0.0,-1.077,0.0,-1.1518,0.0,0.0,0.0,0.0,0.0,0.0,0.0,0.0,-1.4092,-1.4479,-1.4971,-1.5441,-1.5631,0.0,-1.6143,-1.5955,0.0,0.0,0.0,0.0,0.0,0.0,0.0,0.0,-1.5439,-1.5526,-1.5486,-1.5689,-1.6085,-1.5708,-1.5731,-1.6045,-1.5635,-1.542,-1.542,-1.5452,-1.5345,0.0,0.0,0.0,0.0,0.0,0.0,0.0,0.0,0.0,0.0,0.0,0.0,0.0,0.0,0.0,0.0,0.0,0.0,0.0,0.0,0.0,0.0,0.0,-1.4463,0.0,0.0,0.0,0.0,0.0,0.0,0.0,0.0,0.0,-1.5698,-1.5197,-1.4808,-1.4609,-1.4281,-1.3958,-1.3564,0.0,0.0,0.0,0.0,0.0,0.0,0.0,-1.2983,-1.3124,-1.3365,-1.3653,-1.4216,-1.4606,-1.4947,-1.5146,0.0,0.0,-1.5221,-1.5075,-1.4917,-1.4778,-1.4712,-1.4704,-1.4704,-1.4712,-1.4564,0.0,0.0,0.0,0.0,0.0,0.0,0.0,0.0,-1.0893,-1.1505,0.0,-1.2189,0.0,0.0,0.0,0.0,-1.3545,-1.3744,0.0,0.0,-1.4809,-1.5205,-1.579,-1.6365,-1.6674,-1.6841,-1.7223,-1.7377,-1.7213,-1.6029,0.0,0.0,0.0,0.0,0.0,0.0,-1.5723,-1.6125,-1.6145,-1.636,-1.6728,-1.637,-1.6135,-1.6115,-1.5644,-1.542,-1.542,-1.572,-1.5713,-1.5235,-1.5636,0.0,0.0,0.0,0.0,0.0,0.0,0.0,0.0,0.0,0.0,0.0,0.0,0.0,0.0,0.0,0.0,0.0,0.0,0.0,0.0,-1.5257,0.0,0.0,0.0,0.0,0.0,0.0,0.0,0.0,0.0,0.0,-1.5718,-1.5339,-1.5062,-1.4641,0.0,0.0,0.0,0.0,-1.371,-1.3526,-1.3495,-1.3416,-1.3279,-1.3206,-1.3292,-1.3516,0.0,0.0,-1.4095,-1.4088,-1.4281,-1.4809,-1.4721,-1.4565,-1.4955,-1.4979,-1.4949,-1.4949,-1.4934,-1.4972,-1.4972,-1.4687,-1.4562,-0.7679,0.0,0.0,0.0,0.0,-0.9575,-1.0059,-1.0539,-1.1037,-1.1623,-1.2255,-1.2498,0.0,0.0,0.0,0.0,0.0,0.0,-1.4978,-1.5332,-1.546,-1.5864,-1.6534,-1.6967,-1.7154,-1.7262,-1.7556,-1.758,-1.7284,-1.696,-1.6608,-1.6317,0.0,0.0,0.0,0.0,-1.6838,-1.6948,-1.6959,-1.7169,-1.7536,-1.7189,-1.6808,-1.6487,-1.589,-1.5672,-1.573,-1.5856,-1.5901,-1.5873,-1.5801,0.0,0.0,0.0,0.0,0.0,0.0,0.0,0.0,0.0,0.0,0.0,0.0,0.0,0.0,0.0,0.0,0.0,0.0,0.0,-1.5251,-1.5696,-1.5982,0.0,0.0,0.0,0.0,0.0,0.0,0.0,0.0,0.0,-1.633,-1.593,-1.5434,0.0,0.0,-1.4528,-1.4268,-1.4256,-1.42,-1.4052,-1.3981,0.0,-1.3752,-1.3694,-1.383,-1.3824,-1.3995,-1.4221,-1.4303,-1.4385,-1.4585,-1.4759,-1.4703,-1.4646,-1.4775,-1.4576,-1.4394,-1.4365,-1.4209,-1.4123,-1.413,-1.413,-1.4066,-0.8222,-0.844,-0.8512,-0.8861,-0.9473,-0.9916,-1.0507,-1.1095,-1.1604,-1.223,-1.2906,-1.3119,-1.3536,-1.4061,-1.4313,0.0,0.0,0.0,-1.5586,-1.5992,-1.6244,-1.6675,-1.735,-1.7684,-1.7949,-1.8081,-1.8268,-1.8322,-1.8183,-1.8183,-1.7956,-1.7513,0.0,0.0,-1.6961,-1.7205,-1.7365,-1.7526,-1.7536,-1.7759,-1.8117,-1.7607,-1.7062,-1.6618,-1.6077,-1.5798,-1.5914,-1.5961,-1.6019,-1.6104,-1.6038,-1.5943,0.0,0.0,0.0,0.0,0.0,0.0,0.0,0.0,0.0,0.0,0.0,-1.584,-1.6106,0.0,0.0,0.0,-1.6036,-1.5818,-1.5578,-1.5973,0.0,0.0,0.0,0.0,0.0,0.0,0.0,-1.7461,-1.7254,-1.689,-1.6612,-1.6272,-1.5788,-1.5229,-1.5016,-1.4922,-1.4767,0.0,-1.4771,-1.4656,-1.4597,-1.4444,-1.4268,-1.426,-1.4214,-1.4131,-1.4268,-1.4391,-1.4398,-1.4482,-1.4566,-1.465,-1.4734,-1.4734,-1.4734,-1.4426,-1.4261,-1.4349,-1.4268,-1.4181,-1.4181,-1.4174,-1.41,-0.8678,-0.9053,-0.8904,-0.9175,-0.9695,-1.0293,-1.0968,-1.1781,-1.2372,-1.3046,-1.3768,-1.3878,-1.4226,-1.4778,-1.4964,0.0,-1.5343,-1.566,-1.6057,-1.6455,-1.7129,-1.7684,-1.8066,-1.8405,-1.8741,-1.9131,-1.9142,-1.9264,-1.9594,-1.9594,-1.9381,-1.8956,-1.8019,-1.7553,-1.7595,-1.7553,-1.764,-1.8035,-1.8046,-1.8183,-1.8519,-1.7725,-1.7133,-1.6668,-1.6185,-1.5954,-1.5924,-1.6077,-1.6124,-1.6114,-1.6306,-1.6244,-1.5949,0.0,0.0,0.0,0.0,0.0,0.0,0.0,0.0,0.0,0.0,0.0,0.0,0.0,0.0,0.0,-1.6472,0.0,-1.6138,-1.6267,0.0,0.0,0.0,-1.7116,-1.7461,-1.7539,-1.7461,-1.7461,0.0,0.0,-1.6682,-1.65,-1.6184,-1.5681,-1.543,-1.5273,-1.5459,-1.5408,-1.5397,-1.5403,-1.5235,-1.5075,-1.4761,-1.4699,-1.4622,-1.4448,-1.4391,-1.4398,-1.4398,-1.4391,-1.4482,-1.4566,-1.465,-1.465,-1.465,-1.4461,-1.4398,-1.4622,-1.4629,-1.4643,-1.4608,-1.4601,-1.4511,-0.9172,-0.9464,-0.981,-0.9853,-0.9922,-1.0663,-1.126,-1.1781,-1.2526,-1.3193,-1.3783,-1.4268,-1.4806,-1.559,-1.6189,-1.6478,-1.6487,-1.6896,-1.7282,-1.7581,-1.7784,-1.8103,-1.8607,-1.8875,-1.9075,-1.9274,-1.9407,-1.9615,-1.9802,-1.9802,-1.9814,-1.9803,-1.9555,-1.9137,-1.8638,-1.8901,-1.9068,-1.9173,-1.9173,-1.9159,-1.9065,-1.8601,-1.804,-1.7451,-1.6879,-1.6481,-1.628,-1.6192,-1.6181,-1.6316,-1.6374,-1.6379,-1.6275,-1.6053,0.0,0.0,0.0,0.0,0.0,0.0,0.0,0.0,0.0,-1.6797,-1.6684,0.0,-1.7071,0.0,-1.6912,-1.6949,-1.693,-1.712,0.0,0.0,-1.7245,-1.7451,-1.7657,-1.752,-1.7461,-1.7461,-1.7314,-1.7097,-1.6839,-1.6892,-1.6794,-1.637,-1.6013,-1.5835,-1.596,-1.5905,-1.5823,-1.5636,-1.5575,-1.5492,-1.5257,-1.509,-1.4915,-1.465,-1.4482,-1.4398,-1.4398,-1.4243,-1.4166,-1.425,-1.425,-1.425,-1.425,-1.4173,-1.4166,-1.425,-1.425,-1.425,-1.425,-1.425,-1.425,-0.9814,-1.0036,-1.0423,-1.0612,-1.0608,-1.1166,-1.1632,-1.2157,-1.282,-1.3484,-1.4145,-1.4856,-1.5576,-1.6289,-1.67,-1.7047,-1.7304,-1.7598,-1.7872,-1.8144,-1.8405,-1.8674,-1.8942,-1.9264,-1.9539,-1.9671,-1.9868,-2.0074,-2.027,-2.0259,-2.0259,-2.0377,-2.0442,-2.018,-1.9757,-1.9792,-1.9857,-1.9846,-1.9736,-1.9605,-1.9396,-1.9029,-1.8501,-1.7864,-1.7274,-1.6829,-1.6394,-1.6316,-1.6306,-1.6384,-1.6374,-1.6374,-1.6363,-1.6259,-1.6158,0.0,0.0,0.0,0.0,0.0,0.0,0.0,0.0,0.0,0.0,0.0,-1.7338,-1.7331,-1.7358,-1.7331,-1.7364,-1.7392,-1.747,-1.7323,-1.747,-1.7529,-1.7716,-1.7588,-1.7529,-1.7598,-1.7373,-1.7241,-1.7296,-1.7224,-1.7297,-1.7397,-1.6945,-1.653,-1.6348,-1.6346,-1.6245,-1.6064,-1.5906,-1.5824,-1.5582,-1.534,-1.5173,-1.4915,-1.4824,-1.4657,-1.4566,-1.4405,-1.4243,-1.4243,-1.4166,-1.4088,-1.4088,-1.4088,-1.4088,-1.4088,-1.4088,-1.4088,-1.4088,-1.4088,-1.4088,-1.0267,-1.0669,-1.0903,-1.1232,-1.1636,-1.1771,-1.215,-1.268,-1.3273,-1.3928,-1.4649,-1.5513,-1.6219,-1.6908,-1.6978,-1.7304,-1.7706,-1.7998,-1.8212,-1.8405,-1.8875,-1.9142,-1.9264,-1.9726,-1.9998,-2.0172,-2.0388,-2.0529,-2.0733,-2.0797,-2.0797,-2.0797,-2.0978,-2.0967,-2.0797,-2.0506,-2.0302,-2.0237,-2.0064,-1.9868,-1.966,-1.9254,-1.8775,-1.8194,-1.773,-1.7158,-1.6602,-1.653,-1.6431,-1.6431,-1.6431,-1.6431,-1.6374,-1.6374,-1.6509,0.0,-1.6722,0.0,0.0,0.0,0.0,0.0,0.0,0.0,0.0,-1.7521,-1.7644,-1.7745,-1.7706,-1.7716,-1.7608,-1.7539,-1.7539,-1.7529,-1.7539,-1.7598,-1.7716,-1.7666,-1.7617,-1.7783,-1.7517,-1.7479,-1.781,-1.7633,-1.7732,-1.8168,-1.7969,-1.7473,-1.6867,-1.679,-1.6738,-1.6476,-1.6245,-1.5997,-1.5824,-1.5582,-1.534,-1.5173,-1.509,-1.5006,-1.4817,-1.4559,-1.4398,-1.4398,-1.4237,-1.4166,-1.4166,-1.4082,-1.4088,-1.4088,-1.4088,-1.4088,-1.4088,-1.4088,-1.4088,-1.0616,-1.1134,-1.1291,-1.173,-1.228,-1.2381,-1.2599,-1.2893,-1.363,-1.4569,-1.5513,-1.6,-1.6482,-1.6908,-1.7529,-1.7872,-1.8008,-1.8405,-1.8741,-1.8942,-1.9142,-1.9462,-1.9911,-2.0031,-2.0248,-2.0593,-2.0722,-2.0903,-2.1106,-2.121,-2.1348,-2.1509,-2.1561,-2.1509,-2.1509,0.0,0.0,0.0,-2.0453,-2.0194,-2.0042,-1.989,-1.9619,-1.8964,-1.8513,0.0,-1.753,-1.7031,-1.6648,-1.6581,-1.6581,0.0,0.0,0.0,0.0,0.0,0.0,0.0,0.0,0.0,0.0,0.0,-1.8006,-1.7856,-1.7775,-1.7846,-1.792,-1.793,-1.793,-1.794,-1.7872,-1.7949,-1.794,-1.7881,-1.7881,-1.794,-1.794,-1.794,-1.8007,-1.8225,-1.8193,-1.8204,-1.8311,-1.849,-1.8598,-1.8493,-1.8608,-1.847,-1.776,-1.7423,-1.7147,-1.6738,-1.6327,-1.6087,-1.5997,-1.5831,-1.5658,-1.5575,-1.5333,-1.509,-1.4999,-1.4824,-1.465,-1.465,-1.4489,-1.4314,-1.4314,-1.4243,-1.4082,-1.4088,-1.4088,-1.4088,-1.4088,-1.4088,-1.4088,-1.1068,-1.1621,-1.1642,-1.216,0.0,-1.2791,-1.3039,-1.3557,-1.4065,-1.4856,-1.6,-1.6421,-1.6839,-1.7263,-1.7735,-1.8144,-1.8405,-1.8808,-1.9075,-1.9341,-1.9594,-1.9846,-2.0096,-2.0366,-2.0646,-2.099,-2.1083,-2.1296,-2.1423,-2.1486,-2.1624,-2.171,-2.1749,-2.1761,-2.171,-2.171,-2.1498,-2.1019,-2.0903,-2.0658,-2.0377,-2.0388,-2.0081,-1.9482,-1.9251,0.0,0.0,0.0,0.0,0.0,0.0,0.0,0.0,-1.7263,0.0,-1.7708,-1.768,-1.7725,-1.7945,-1.803,-1.8196,-1.8361,-1.8469,-1.8329,-1.8085,-1.816,-1.8144,-1.8008,-1.8008,-1.8008,-1.8008,-1.8008,-1.8008,-1.8008,-1.8008,-1.8008,-1.8027,-1.8193,-1.8329,-1.8482,-1.8643,-1.8778,-1.8957,-1.8938,-1.9019,-1.899,-1.8946,-1.8922,-1.8514,-1.804,-1.7554,-1.6984,-1.6656,-1.6335,-1.6245,-1.6079,-1.5906,-1.5831,-1.5575,-1.5416,-1.5416,-1.5159,-1.4908,-1.4908,-1.4734,-1.4566,-1.4398,-1.4321,-1.4243,-1.4173,-1.4088,-1.4088,-1.4088,-1.4088,-1.4088,-1.1499,-1.2145,-1.205,-1.2485,-1.3239,-1.3084,-1.3477,-1.4274,0.0,0.0,0.0,-1.6691,-1.7176,-1.7608,-1.794,-1.8347,-1.8875,-1.9075,-1.9341,-1.966,-1.9987,-2.0237,-2.0302,-2.0764,-2.1094,-2.1296,-2.1411,-2.1537,-2.1761,-2.1761,-2.1824,-2.1812,-2.1925,-2.1937,-2.1824,-2.1812,-2.1686,-2.1348,-2.1285,-2.1094,-2.085,-2.085,-2.0542,-1.999,-1.9901,-1.9605,-1.9105,-1.8791,-1.8616,-1.8555,-1.8373,-1.8312,-1.8251,-1.8251,-1.8233,-1.8307,-1.8205,-1.8185,-1.828,-1.8426,-1.857,-1.8506,-1.8726,-1.8741,-1.8405,-1.8337,-1.8279,-1.8076,-1.8086,-1.8076,-1.8086,-1.8008,-1.8008,-1.8008,-1.8076,-1.8125,-1.8144,-1.8496,-1.8789,-1.8806,-1.9054,-1.9274,-1.9678,-1.944,-1.9313,-1.9474,-1.9311,-1.9082,-1.8922,-1.8362,-1.7789,-1.7294,-1.6976,-1.6738,-1.6566,-1.6319,-1.617,-1.617,-1.5906,-1.5741,-1.5658,-1.5409,-1.5249,-1.5173,-1.4915,-1.4741,-1.4566,-1.4482,-1.4321,-1.4166,-1.4173,-1.4088,-1.4088,-1.4088,-1.4088,-1.1757,-1.2571,-1.2469,-1.287,-1.3604,-1.3465,-1.4065,-1.5062,-1.5443,-1.5921,-1.6533,-1.6959,-1.7451,-1.7949,-1.8279,-1.8684,-1.9075,-1.9407,-1.9726,-2.0042,-2.0259,-2.0582,-2.1031,-2.1094,-2.1308,-2.1635,-2.1749,-2.1862,-2.1874,-2.2073,-2.2185,-2.2297,-2.2297,-2.2297,-2.2297,-2.2297,-2.2111,-2.18,-2.1526,-2.1336,-2.1273,-2.1273,-2.1187,-2.098,-2.0579,-2.0193,-1.9991,-1.9414,-1.9059,-1.8939,-1.8747,-1.8566,-1.8495,-1.8334,-1.8371,-1.8754,-1.8807,-1.8913,-1.9316,-1.927,-1.9104,-1.9048,-1.9034,-1.8942,-1.8741,-1.8539,-1.8482,-1.8414,-1.8347,-1.8269,-1.8269,-1.8154,-1.8037,-1.8066,-1.835,-1.8545,-1.8555,-1.8926,-1.9316,-1.9629,-1.9701,-1.9839,-2.013,-2.0149,-1.9915,-1.9696,-1.9566,-1.9408,-1.9002,-1.8442,-1.7951,-1.7619,-1.7465,-1.7221,-1.6976,-1.6812,-1.6566,-1.6402,-1.6162,-1.5997,-1.5824,-1.5658,-1.5575,-1.534,-1.5173,-1.5082,-1.4999,-1.4657,-1.4482,-1.4321,-1.4243,-1.4088,-1.4082,-1.4088,-1.4088,-1.2192,-1.3068,-1.2875,-1.3351,-1.408,-1.4347,-1.4856,-1.5568,-1.614,-1.656,-1.6821,-1.7226,-1.7647,-1.8008,-1.8607,-1.8942,-1.9208,-1.966,-1.9987,-2.0259,-2.0658,-2.0978,-2.1233,-2.1371,-2.1624,-2.1812,-2.1999,-2.2111,-2.2173,-2.2359,-2.2494,-2.2555,-2.2543,-2.2555,-2.2555,-2.2555,-2.2482,-2.2309,-2.1913,-2.16,-2.1537,-2.1549,-2.1549,-2.1486,-2.1202,-2.1086,-2.1012,-2.0545,-2.0222,-2.0222,-1.9923,-1.9725,-1.9725,-1.9473,-1.9508,-1.9662,-1.9544,-1.9501,-1.9715,-1.955,-1.9407,-1.9341,-1.9407,-1.9389,-1.9437,-1.8951,-1.8617,-1.8482,-1.8414,-1.8504,-1.8744,-1.8705,-1.8725,-1.8823,-1.9019,-1.9056,-1.9043,-1.9365,-1.9707,-1.9902,-2.0127,-2.0352,-2.0469,-2.0342,-2.0264,-1.996,-1.9803,-1.9478,-1.9082,-1.8763,-1.8362,-1.7951,-1.7789,-1.7635,-1.731,-1.7147,-1.6976,-1.6804,-1.6566,-1.6319,-1.6147,-1.5989,-1.5824,-1.5575,-1.5499,-1.5333,-1.5173,-1.4922,-1.4741,-1.4398,-1.4321,-1.4243,-1.4166,-1.4088,-1.4088,-1.2662,-1.3419,-1.3333,-1.3669,-1.45,-1.5082,-1.5568,-1.5938,-1.663,-1.6978,-1.7185,-1.7579,-1.792,-1.8279,-1.8875,-1.9264,-1.9539,-1.9911,-2.0313,-2.0593,-2.1042,-2.1221,-2.136,-2.1624,-2.1812,-2.1987,-2.2185,-2.2309,-2.2494,-2.2616,-2.2739,-2.2739,-2.28,-2.2812,-2.2739,-2.2739,-2.2751,-2.2678,-2.2309,-2.1999,-2.1886,-2.1886,-2.1824,-2.1761,-2.1761,-2.1761,-2.1698,-2.1434,-2.1296,-2.1296,-2.0978,-2.0786,-2.0797,-2.0604,-2.0475,-2.0399,-2.0205,-2.0074,-1.9933,-1.9802,-1.9724,-1.9764,-1.9764,-1.9899,-2.0165,-1.9661,-1.9172,-1.8978,-1.896,-1.9081,-1.9374,-1.9364,-1.9424,-1.9683,-1.974,-1.9727,-1.961,-1.9879,-2.0134,-2.0098,-2.0361,-2.0566,-2.0566,-2.0498,-2.0342,-2.0274,-1.9951,-1.9557,-1.924,-1.9161,-1.8834,-1.8442,-1.8201,-1.7959,-1.7635,-1.7554,-1.7392,-1.7221,-1.6984,-1.673,-1.6484,-1.6319,-1.6162,-1.5906,-1.5733,-1.5575,-1.5333,-1.5166,-1.4999,-1.4657,-1.4489,-1.4321,-1.4166,-1.4088,-1.4088,-1.2993,-1.3566,-1.3646,-1.4015,-1.4623,-1.5396,-1.5929,-1.6281,-1.67,-1.7254,-1.7881,-1.794,-1.8347,-1.8931,-1.9075,-1.9462,-1.9977,-2.0107,-2.0495,-2.1094,-2.1169,-2.1423,-2.1812,-2.1862,-2.2049,-2.2285,-2.2371,-2.2494,-2.2678,-2.2678,-2.2751,-2.2909,-2.303,-2.2982,-2.2921,-2.2946,-2.2812,-2.269,-2.2616,-2.2555,-2.2359,-2.2359,-2.2173,-2.1862,-2.1874,-2.1812,-2.1698,-2.1698,-2.1635,-2.1635,-2.1296,-2.1169,-2.1106,-2.085,-2.0669,-2.0669,-2.0669,-2.0453,-2.0118,-1.9987,-2.0028,-2.0201,-2.0243,-2.0456,-2.0871,-2.0881,-2.0649,-2.0296,-2.0104,-2.0002,-2.0104,-1.995,-1.9909,-1.9978,-2.028,-2.0416,-2.0212,-2.0569,-2.076,-2.0585,-2.0605,-2.0576,-2.0566,-2.0576,-2.0489,-2.0342,-2.0098,-1.9794,-1.9557,-1.9478,-1.9399,-1.9002,-1.8763,-1.8451,-1.804,-1.7959,-1.7797,-1.7473,-1.7392,-1.7147,-1.682,-1.6648,-1.6566,-1.6162,-1.5906,-1.5741,-1.5575,-1.5409,-1.509,-1.4915,-1.4657,-1.4321,-1.4166,-1.4088,-1.4088,-1.3477,-1.3926,-1.4108,-1.4441,-1.5031,-1.5709,-1.6211,-1.6691,-1.7166,-1.7657,-1.8202,-1.8539,-1.8798,-1.9142,-1.9528,-1.9846,-2.0107,-2.056,-2.0892,-2.1221,-2.1486,-2.1737,-2.1925,-2.2111,-2.2297,-2.242,-2.2604,-2.2739,-2.286,-2.2909,-2.2969,-2.3067,-2.3403,-2.3591,-2.3554,-2.3842,-2.4016,-2.3953,-2.3953,-2.3903,-2.3626,-2.2935,-2.2494,-2.2359,-2.2235,-2.2173,-2.2123,-2.1937,-2.1812,-2.1812,-2.1612,-2.1498,-2.1498,-2.1169,-2.0978,-2.099,-2.1057,-2.1018,-2.0864,-2.1085,-2.1283,-2.1424,-2.1424,-2.1552,-2.1707,-2.1761,-2.1725,-2.1565,-2.0896,-2.0606,-2.0866,-2.0762,-2.0645,-2.0825,-2.1059,-2.1075,-2.0857,-2.0931,-2.0974,-2.0819,-2.0819,-2.0731,-2.0654,-2.0576,-2.0489,-2.0342,-2.0186,-2.0029,-1.9794,-1.9784,-1.9636,-1.9399,-1.925,-1.9011,-1.8531,-1.8451,-1.821,-1.7878,-1.7797,-1.7635,-1.7229,-1.6984,-1.6812,-1.6492,-1.6237,-1.5982,-1.5733,-1.5567,-1.5409,-1.5159,-1.4824,-1.4489,-1.4321,-1.4237,-1.4243,-1.3781,-1.4271,-1.451,-1.4887,-1.5434,-1.6061,-1.6621,-1.7038,-1.7579,-1.8056,-1.8539,-1.8942,-1.9274,-1.9386,-1.9911,-2.0172,-2.0313,-2.0903,-2.1233,-2.136,-2.1737,-2.1925,-2.2061,-2.2297,-2.2482,-2.2543,-2.2787,-2.2909,-2.2982,-2.3278,-2.3376,-2.3464,-2.4003,-2.428,-2.4331,-2.476,-2.4936,-2.4936,-2.4936,-2.4872,-2.4707,-2.3854,-2.3306,-2.3132,-2.2995,-2.2933,-2.2933,-2.2606,-2.248,-2.2492,-2.2301,-2.2174,-2.2174,-2.1905,-2.1788,-2.1811,-2.1772,-2.1777,-2.1789,-2.2003,-2.2284,-2.2396,-2.2408,-2.2481,-2.2573,-2.2622,-2.2692,-2.2626,-2.1837,-2.149,-2.1597,-2.1523,-2.1541,-2.169,-2.1655,-2.1578,-2.1349,-2.1282,-2.1205,-2.0984,-2.0906,-2.0829,-2.0654,-2.0566,-2.0566,-2.0411,-2.042,-2.0264,-2.0098,-2.002,-1.9951,-1.9715,-1.9724,-1.9399,-1.8931,-1.878,-1.8612,-1.8371,-1.8201,-1.7959,-1.7635,-1.7383,-1.7139,-1.6804,-1.664,-1.6394,-1.6064,-1.5899,-1.5567,-1.5242,-1.4908,-1.4741,-1.4573,-1.4482,-1.4398,-1.3884,-1.4477,-1.4967,-1.5413,-1.5797,-1.6491,-1.7047,-1.7451,-1.7794,-1.8405,-1.9008,-1.9208,-1.9594,-2.0031,-2.0107,-2.0313,-2.0669,-2.1042,-2.1423,-2.1635,-2.1874,-2.2049,-2.2359,-2.242,-2.2543,-2.2787,-2.2909,-2.2994,-2.3153,-2.3678,-2.3954,-2.4004,-2.4697,-2.5027,-2.5103,-2.5243,-2.5333,-2.5371,-2.5358,-2.5294,-2.5282,-2.509,-2.4732,-2.4344,-2.4202,-2.414,-2.4165,-2.3993,-2.3838,-2.385,-2.355,-2.3375,-2.3387,-2.3254,-2.3097,-2.312,-2.2831,-2.265,-2.2582,-2.2457,-2.2464,-2.2812,-2.2962,-2.3093,-2.3436,-2.3492,-2.3452,-2.3508,-2.304,-2.2648,-2.2456,-2.2211,-2.2167,-2.208,-2.2035,-2.1883,-2.1502,-2.1512,-2.1436,-2.1205,-2.1061,-2.0896,-2.0654,-2.0576,-2.0644,-2.0566,-2.0576,-2.0489,-2.0342,-2.0264,-2.0186,-1.9951,-1.9872,-1.9706,-1.9161,-1.9011,-1.8931,-1.8692,-1.8442,-1.8273,-1.8031,-1.7789,-1.7456,-1.7212,-1.6886,-1.664,-1.6386,-1.5982,-1.5658,-1.5333,-1.5166,-1.4999,-1.4741,-1.4734,-1.4566,-1.4295,-1.4865,-1.5355,-1.5788,-1.614,-1.67,-1.7245,-1.7794,-1.8192,-1.8596,-1.9131,-1.9594,-1.9901,-2.0096,-2.0624,-2.0903,-2.1053,-2.1371,-2.1624,-2.1874,-2.2111,-2.2297,-2.242,-2.2604,-2.2787,-2.2909,-2.2957,-2.3314,-2.3763,-2.4052,-2.4405,-2.4874,-2.5525,-2.5806,-2.5857,-2.6229,-2.6396,-2.6396,-2.6409,-2.6409,-2.637,-2.6343,-2.6209,-2.5958,-2.5053,-2.4508,-2.4508,-2.43,-2.4222,-2.4222,-2.3947,-2.3815,-2.3815,-2.3561,-2.3372,-2.3341,-2.3464,-2.349,-2.3537,-2.3758,-2.3943,-2.4105,-2.414,-2.4031,-2.3998,-2.397,-2.3897,-2.3677,-2.3519,-2.3298,-2.315,-2.2703,-2.2402,-2.2327,-2.2241,-2.2176,-2.1949,-2.1873,-2.1731,-2.1425,-2.1215,-2.1061,-2.0809,-2.0819,-2.0741,-2.0654,-2.0576,-2.0566,-2.0489,-2.0489,-2.0411,-2.0255,-2.0098,-2.0029,-1.9627,-1.9487,-1.9329,-1.9011,-1.8763,-1.8692,-1.8442,-1.8121,-1.7789,-1.7619,-1.7294,-1.6886,-1.664,-1.6237,-1.5824,-1.5575,-1.5492,-1.5249,-1.4992,-1.4992,-1.4824,-1.4751,-1.5219,-1.5757,-1.614,-1.6551,-1.7047,-1.7588,-1.8202,-1.8519,-1.8988,-1.9452,-1.9901,-2.0226,-2.0495,-2.0967,-2.136,-2.1549,-2.1698,-2.1874,-2.1999,-2.2297,-2.2482,-2.2592,-2.2787,-2.2909,-2.2994,-2.3326,-2.3786,-2.4264,-2.4695,-2.5128,-2.5589,-2.6231,-2.6567,-2.6644,-2.6966,-2.7146,-2.7146,-2.7146,-2.7134,-2.7146,-2.7146,-2.7079,-2.6909,-2.5949,-2.536,-2.5294,-2.5016,-2.4895,-2.4883,-2.4749,-2.4603,-2.4524,-2.4321,-2.413,-2.4029,-2.4188,-2.4377,-2.4401,-2.4661,-2.479,-2.479,-2.479,-2.4646,-2.4418,-2.4418,-2.4273,-2.4043,-2.3813,-2.3813,-2.3677,-2.3224,-2.2777,-2.2628,-2.2553,-2.2478,-2.2252,-2.2101,-2.1873,-2.1589,-2.1359,-2.1205,-2.1051,-2.0906,-2.0829,-2.0741,-2.0644,-2.0576,-2.0576,-2.0566,-2.0566,-2.0411,-2.042,-2.0255,-2.002,-1.9872,-1.9645,-1.9408,-1.9011,-1.8931,-1.8851,-1.8442,-1.8201,-1.7951,-1.7627,-1.7221,-1.6812,-1.6492,-1.6237,-1.5899,-1.565,-1.5484,-1.5325,-1.5257,-1.5082,-1.5121,-1.5317,-1.5991,-1.6551,-1.6968,-1.7598,-1.8202,-1.8509,-1.8921,-1.9462,-1.9977,-2.0096,-2.0571,-2.1031,-2.1221,-2.1549,-2.1999,-2.1999,-2.2061,-2.2247,-2.2359,-2.2604,-2.2848,-2.2909,-2.3067,-2.3238,-2.3862,-2.4325,-2.4653,-2.5589,-2.6115,-2.6321,-2.6932,-2.7232,-2.7297,-2.7443,-2.7523,-2.7523,-2.7523,-2.7536,-2.7469,-2.7403,-2.7335,-2.7268,-2.6989,-2.6735,-2.6625,-2.6308,-2.6064,-2.6089,-2.5881,-2.5804,-2.5554,-2.5472,-2.5463,-2.5192,-2.5146,-2.5087,-2.5075,-2.4897,-2.4861,-2.4861,-2.4861,-2.4861,-2.479,-2.479,-2.4718,-2.4646,-2.4418,-2.42,-2.4127,-2.3824,-2.3446,-2.3075,-2.299,-2.2852,-2.2478,-2.2252,-2.1949,-2.1655,-2.1512,-2.1436,-2.1205,-2.1061,-2.0906,-2.0819,-2.0731,-2.0576,-2.0576,-2.0576,-2.0576,-2.0566,-2.0566,-2.0411,-2.0333,-2.0264,-1.996,-1.9724,-1.9329,-1.9082,-1.9002,-1.8763,-1.8523,-1.8282,-1.8031,-1.7546,-1.7066,-1.6738,-1.6484,-1.6229,-1.5982,-1.5816,-1.5665,-1.559,-1.534,-1.5312,-1.5726,-1.6412,-1.6899,-1.7314,-1.7803,-1.8337,-1.8921,-1.9274,-1.9726,-2.0096,-2.0624,-2.0967,-2.1285,-2.1675,-2.1999,-2.2197,-2.2371,-2.2506,-2.2555,-2.2665,-2.2787,-2.2909,-2.3163,-2.3533,-2.4045,-2.4298,-2.4934,-2.5729,-2.6168,-2.6648,-2.7236,-2.7498,-2.7723,-2.7815,-2.7881,-2.7947,-2.7934,-2.7881,-2.7934,-2.7868,-2.7736,-2.7656,-2.759,-2.7335,-2.7201,-2.7066,-2.6726,-2.6533,-2.6396,-2.6201,-2.598,-2.5828,-2.5828,-2.5758,-2.5688,-2.5535,-2.5465,-2.5394,-2.5253,-2.5182,-2.5182,-2.5182,-2.5111,-2.4981,-2.4992,-2.4921,-2.4861,-2.4657,-2.4646,-2.4574,-2.4345,-2.397,-2.3446,-2.3298,-2.315,-2.2777,-2.2402,-2.2101,-2.1959,-2.1807,-2.1655,-2.1425,-2.1205,-2.1061,-2.0916,-2.0731,-2.0644,-2.0566,-2.0576,-2.0576,-2.0576,-2.0566,-2.0566,-2.0489,-2.042,-2.0186,-1.9951,-1.9636,-1.932,-1.924,-1.9161,-1.8843,-1.8603,-1.8273,-1.787,-1.7392,-1.7066,-1.6812,-1.6566,-1.6394,-1.6154,-1.5997,-1.5831,-1.5665,-1.5709,-1.614,-1.683,-1.7323,-1.7657,-1.8202,-1.8751,-1.9274,-1.966,-2.0053,-2.0571,-2.0955,-2.1348,-2.1624,-2.1999,-2.2309,-2.2494,-2.2739,-2.2909,-2.2921,-2.2969,-2.303,-2.314,-2.3619,-2.4029,-2.461,-2.5071,-2.574,-2.6557,-2.6883,-2.7302,-2.7802,-2.7921,-2.7934,-2.8079,-2.8079,-2.8079,-2.8079,-2.8079,-2.8079,-2.8079,-2.8,-2.7921,-2.7855,-2.7669,-2.7469,-2.7323,-2.7066,-2.6794,-2.6589,-2.6396,-2.6188,-2.6062,-2.5992,-2.5992,-2.591,-2.5758,-2.5688,-2.5688,-2.5606,-2.5535,-2.5535,-2.5535,-2.5465,-2.5324,-2.5265,-2.5194,-2.5064,-2.4921,-2.4933,-2.4849,-2.4718,-2.4418,-2.397,-2.3677,-2.3372,-2.3075,-2.2628,-2.2252,-2.2101,-2.1949,-2.1797,-2.1655,-2.1425,-2.1282,-2.1061,-2.0819,-2.0644,-2.0644,-2.0576,-2.0576,-2.0576,-2.0566,-2.0566,-2.0566,-2.0489,-2.0411,-2.0177,-1.9942,-1.9715,-1.9478,-1.9399,-1.9161,-1.8843,-1.8523,-1.8193,-1.7716,-1.7465,-1.7212,-1.6968,-1.673,-1.6484,-1.6327,-1.6079,-1.5914,-1.614,-1.6673,-1.7235,-1.7657,-1.8144,-1.8798,-1.9264,-1.9671,-1.9977,-2.0506,-2.1094,-2.1296,-2.1612,-2.2061,-2.2247,-2.2543,-2.2848,-2.309,-2.3198,-2.3271,-2.3271,-2.3368,-2.3628,-2.4179,-2.4671,-2.513,-2.6112,-2.6737,-2.7103,-2.7629,-2.8145,-2.8131,-2.8145,-2.8145,-2.8276,-2.821,-2.821,-2.8276,-2.821,-2.821,-2.821,-2.8145,-2.8145,-2.8145,-2.7934,-2.7723,-2.7523,-2.7335,-2.7066,-2.6726,-2.6521,-2.6396,-2.627,-2.6201,-2.6131,-2.5992,-2.5923,-2.591,-2.591,-2.5828,-2.5828,-2.584,-2.584,-2.5828,-2.5618,-2.5618,-2.5535,-2.5312,-2.5182,-2.5123,-2.5052,-2.4909,-2.4706,-2.449,-2.4055,-2.3593,-2.3075,-2.2852,-2.2553,-2.2252,-2.2101,-2.2025,-2.1807,-2.1578,-2.1425,-2.1205,-2.0974,-2.0809,-2.0644,-2.0576,-2.0576,-2.0576,-2.0576,-2.0576,-2.0576,-2.0576,-2.0489,-2.0411,-2.0255,-2.0029,-1.9794,-1.9645,-1.9408,-1.9002,-1.8763,-1.8353,-1.8031,-1.7789,-1.7619,-1.7383,-1.7057,-1.6812,-1.6648,-1.6492,-1.6327,-1.6482,-1.7097,-1.7588,-1.8144,-1.8607,-1.9054,-1.9518,-1.9977,-2.0506,-2.0903,-2.1285,-2.1749,-2.1999,-2.2247,-2.2665,-2.2957,-2.3078,-2.3318,-2.3509,-2.3556,-2.3747,-2.4077,-2.4361,-2.4702,-2.5419,-2.6251,-2.6837,-2.7349,-2.7761,-2.7986,-2.8276,-2.8471,-2.8471,-2.8587,-2.878,-2.878,-2.8844,-2.8844,-2.8858,-2.8794,-2.878,-2.8522,-2.8471,-2.8457,-2.8197,-2.7921,-2.7723,-2.7469,-2.7134,-2.6714,-2.6589,-2.6465,-2.6396,-2.6396,-2.6396,-2.6327,-2.6188,-2.6131,-2.6131,-2.598,-2.5923,-2.5923,-2.598,-2.591,-2.5828,-2.5828,-2.5758,-2.5535,-2.5465,-2.5394,-2.5253,-2.5123,-2.4909,-2.4562,-2.42,-2.3751,-2.3298,-2.3001,-2.2852,-2.2553,-2.2252,-2.2111,-2.1959,-2.1731,-2.1436,-2.1205,-2.1061,-2.0819,-2.0654,-2.0576,-2.0576,-2.0576,-2.0576,-2.0576,-2.0576,-2.0576,-2.0576,-2.0566,-2.0489,-2.0333,-2.0029,-1.9803,-1.9478,-1.9082,-1.8922,-1.8683,-1.8362,-1.8112,-1.7878,-1.7716,-1.7473,-1.7229,-1.7229,-1.7066,-1.6812,-1.7038,-1.7588,-1.8134,-1.8607,-1.9054,-1.9441,-1.9966,-2.0431,-2.0839,-2.1296,-2.1612,-2.1999,-2.2371,-2.2604,-2.2957,-2.3198,-2.3318,-2.3688,-2.3819,-2.3929,-2.4374,-2.4767,-2.5109,-2.5524,-2.6347,-2.698,-2.7477,-2.7862,-2.8274,-2.8341,-2.8522,-2.878,-2.878,-2.8908,-2.9049,-2.9113,-2.9113,-2.9113,-2.9113,-2.9113,-2.9113,-2.8908,-2.8794,-2.8665,-2.8406,-2.8197,-2.7855,-2.7469,-2.7134,-2.6782,-2.6658,-2.6602,-2.6533,-2.6521,-2.6521,-2.6521,-2.6396,-2.6327,-2.6339,-2.6188,-2.6188,-2.6176,-2.6176,-2.6119,-2.605,-2.605,-2.598,-2.5758,-2.5688,-2.5535,-2.5394,-2.5253,-2.4981,-2.4646,-2.4345,-2.397,-2.3457,-2.3224,-2.3001,-2.2703,-2.2478,-2.2176,-2.2101,-2.1807,-2.1502,-2.1282,-2.1128,-2.0886,-2.0644,-2.0644,-2.0576,-2.0576,-2.0576,-2.0576,-2.0576,-2.0576,-2.0576,-2.0576,-2.0566,-2.0489,-2.0264,-1.996,-1.9636,-1.932,-1.9161,-1.8922,-1.8603,-1.8442,-1.8282,-1.804,-1.7797,-1.7635,-1.7635,-1.7554,-1.7302,-1.7588,-1.8076,-1.8617,-1.9065,-1.9441,-1.9966,-2.0431,-2.0903,-2.1221,-2.1624,-2.2061,-2.2247,-2.2604,-2.3065,-2.3198,-2.3378,-2.3688,-2.3982,-2.4236,-2.4563,-2.5169,-2.5675,-2.6015,-2.6636,-2.7207,-2.7514,-2.8072,-2.8441,-2.8651,-2.878,-2.8908,-2.9099,-2.9162,-2.9162,-2.9289,-2.9303,-2.9226,-2.9289,-2.9352,-2.9289,-2.9303,-2.9162,-2.9099,-2.8908,-2.8651,-2.8327,-2.7921,-2.7523,-2.7188,-2.6782,-2.6714,-2.6658,-2.6521,-2.6521,-2.6521,-2.6521,-2.6452,-2.6452,-2.6465,-2.6465,-2.6465,-2.6452,-2.6452,-2.6396,-2.627,-2.6201,-2.6131,-2.591,-2.5758,-2.5618,-2.5453,-2.5253,-2.5052,-2.479,-2.4562,-2.4273,-2.3751,-2.3446,-2.315,-2.2777,-2.2563,-2.2338,-2.2176,-2.1949,-2.1655,-2.1282,-2.1128,-2.0964,-2.0722,-2.0644,-2.0576,-2.0576,-2.0576,-2.0576,-2.0576,-2.0576,-2.0576,-2.0576,-2.0576,-2.0566,-2.0411,-2.0108,-1.9794,-1.9557,-1.932,-1.9161,-1.8922,-1.8763,-1.8603,-1.8451,-1.821,-1.804,-1.787,-1.7797,-1.7635,-1.7901,-1.8442,-1.8967,-1.9507,-1.9966,-2.0506,-2.0903,-2.1158,-2.1749,-2.2061,-2.2309,-2.2665,-2.2957,-2.3138,-2.3616,-2.3936,-2.4041,-2.4358,-2.4834,-2.5603,-2.6188,-2.6924,-2.7387,-2.7686,-2.7859,-2.8275,-2.8684,-2.8972,-2.8972,-2.9035,-2.9226,-2.9477,-2.9477,-2.9602,-2.9803,-2.9803,-2.9865,-2.9865,-2.9865,-2.9789,-2.9588,-2.9526,-2.9415,-2.9226,-2.8844,-2.8392,-2.8066,-2.7789,-2.7523,-2.7201,-2.6863,-2.6645,-2.6521,-2.6521,-2.6521,-2.6521,-2.6521,-2.6521,-2.6521,-2.6521,-2.6521,-2.6521,-2.6521,-2.6465,-2.6465,-2.6396,-2.6339,-2.6131,-2.598,-2.5688,-2.5382,-2.53,-2.5111,-2.4861,-2.4718,-2.4429,-2.3824,-2.3593,-2.3372,-2.3075,-2.2703,-2.2413,-2.2327,-2.1949,-2.1655,-2.1292,-2.1128,-2.0964,-2.0809,-2.0654,-2.0576,-2.0576,-2.0576,-2.0576,-2.0576,-2.0576,-2.0576,-2.0576,-2.0576,-2.0576,-2.0411,-2.0342,-2.0029,-1.9794,-1.9566,-1.932,-1.9152,-1.9002,-1.8922,-1.8772,-1.862,-1.8451,-1.8282,-1.8201,-1.804,-1.8365,-1.8911,-1.9441,-1.9966,-2.0506,-2.0892,-2.1285,-2.1675,-2.2111,-2.2432,-2.2665,-2.3138,-2.3437,-2.3556,-2.4028,-2.4274,-2.4447,-2.4748,-2.5331,-2.6089,-2.6736,-2.7412,-2.8188,-2.8491,-2.8746,-2.8894,-2.8972,-2.9162,-2.9289,-2.9352,-2.9477,-2.9803,-2.9803,-2.9927,-3.005,-3.0111,-3.005,-3.005,-3.0111,-3.005,-2.9913,-2.9775,-2.9526,-2.9289,-2.8844,-2.8471,-2.8145,-2.7934,-2.7656,-2.7335,-2.6998,-2.6726,-2.6589,-2.6521,-2.6521,-2.6521,-2.6521,-2.6521,-2.6521,-2.6521,-2.6521,-2.6521,-2.6521,-2.6521,-2.6521,-2.6521,-2.6452,-2.6339,-2.605,-2.577,-2.5394,-2.5312,-2.5123,-2.4933,-2.4801,-2.4502,-2.3897,-2.3666,-2.3446,-2.315,-2.2703,-2.2478,-2.2252,-2.2025,-2.1655,-2.1282,-2.1215,-2.1041,-2.0731,-2.0576,-2.0576,-2.0576,-2.0576,-2.0576,-2.0576,-2.0576,-2.0576,-2.0576,-2.0576,-2.0576,-2.0566,-2.042,-2.0342,-2.0029,-1.9794,-1.9636,-1.9478,-1.932,-1.9161,-1.8931,-1.8772,-1.8772,-1.8692,-1.8531,-1.8451,-1.8911,-1.9441,-1.9966,-2.0431,-2.0967,-2.1233,-2.1675,-2.2185,-2.242,-2.2787,-2.3198,-2.3509,-2.3806,-2.4099,-2.4305,-2.4593,-2.4932,-2.5336,-2.5862,-2.6699,-2.7308,-2.8038,-2.8655,-2.926,-2.9484,-2.9289,-2.9352,-2.9477,-2.9602,-2.9665,-2.9803,-3.005,-3.0111,-3.0158,-3.0172,-3.0172,-3.0219,-3.0219,-3.0233,-3.0172,-3.0111,-2.996,-2.9651,-2.9226,-2.8908,-2.8587,-2.8276,-2.8,-2.7723,-2.739,-2.7134,-2.6943,-2.6726,-2.6589,-2.6521,-2.6521,-2.6521,-2.6521,-2.6521,-2.6521,-2.6521,-2.6521,-2.6521,-2.6521,-2.6521,-2.6521,-2.6452,-2.6396,-2.6119,-2.577,-2.5394,-2.5241,-2.5111,-2.4849,-2.479,-2.449,-2.397,-2.3677,-2.3446,-2.315,-2.2703,-2.2478,-2.2252,-2.2035,-2.1665,-2.1282,-2.1205,-2.1051,-2.0809,-2.0576,-2.0576,-2.0576,-2.0576,-2.0576,-2.0576,-2.0576,-2.0576,-2.0576,-2.0576,-2.0576,-2.0576,-2.0576,-2.042,-2.0264,-2.0108,-1.9872,-1.9715,-1.9636,-1.9399,-1.9161,-1.9082,-1.9082,-1.9011,-1.8772,-1.8772,-1.932,-1.9868,-2.0324,-2.0764,-2.1221,-2.18,-2.2111,-2.242,-2.2836,-2.3198,-2.3569,-2.3865,-2.4144,-2.4363,-2.4721,-2.5075,-2.5409,-2.5895,-2.6662,-2.7449,-2.811,-2.8788,-2.9492,-2.9813,-2.9941,-2.9988,-2.9927,-2.9927,-2.9988,-3.005,-3.0097,-3.0205,-3.0266,-3.0326,-3.0462,-3.0522,-3.0522,-3.0462,-3.0462,-3.0401,-3.028,-3.0111,-2.9789,-2.9352,-2.9099,-2.878,-2.8522,-2.821,-2.7934,-2.7723,-2.739,-2.7146,-2.6943,-2.6671,-2.6533,-2.6521,-2.6521,-2.6521,-2.6521,-2.6521,-2.6521,-2.6521,-2.6521,-2.6521,-2.6521,-2.6452,-2.6452,-2.6314,-2.6119,-2.5688,-2.5312,-2.5253,-2.5052,-2.4861,-2.4646,-2.4273,-2.3824,-2.3604,-2.3446,-2.315,-2.2703,-2.2402,-2.2252,-2.2035,-2.1665,-2.1359,-2.1215,-2.1041,-2.0722,-2.0566,-2.0576,-2.0576,-2.0576,-2.0576,-2.0576,-2.0576,-2.0576,-2.0576,-2.0576,-2.0576,-2.0576,-2.0576,-2.0498,-2.042,-2.0264,-2.0108,-2.0029,-1.9872,-1.9715,-1.9478,-1.9478,-1.9399,-1.932,-1.9161,-1.9011,-1.9802,-2.0259,-2.07,-2.1221,-2.1737,-2.2111,-2.2494,-2.2836,-2.3258,-2.3628,-2.3923,-2.4332,-2.4607,-2.4765,-2.5075,-2.5425,-2.58,-2.654,-2.7272,-2.8009,-2.8647,-2.933,-3.0054,-3.0158,-3.0219,-3.0219,-3.028,-3.0294,-3.0205,-3.0219,-3.0326,-3.0507,-3.0568,-3.0628,-3.0821,-3.0836,-3.0836,-3.0762,-3.0702,-3.0642,-3.0447,-3.0233,-2.9927,-2.954,-2.9226,-2.8972,-2.8587,-2.8276,-2.8013,-2.7789,-2.7456,-2.7214,-2.7011,-2.6807,-2.6602,-2.6521,-2.6521,-2.6521,-2.6521,-2.6521,-2.6521,-2.6521,-2.6521,-2.6521,-2.6521,-2.6452,-2.6396,-2.6188,-2.5968,-2.5606,-2.5312,-2.517,-2.4981,-2.479,-2.4502,-2.4127,-2.3751,-2.353,-2.3298,-2.3075,-2.2617,-2.2327,-2.2187,-2.1959,-2.1665,-2.1436,-2.1215,-2.0964,-2.0644,-2.0566,-2.0576,-2.0576,-2.0576,-2.0576,-2.0576,-2.0576,-2.0576,-2.0576,-2.0576,-2.0576,-2.0576,-2.0576,-2.0566,-2.0489,-2.042,-2.0342,-2.0264,-2.0108,-1.9951,-1.9794,-1.9784,-1.9706,-1.9627,-1.9548,-1.9399,-2.0259,-2.0764,-2.1158,-2.1675,-2.2247,-2.2482,-2.2836,-2.3258,-2.3675,-2.4041,-2.4345,-2.4791,-2.5018,-2.5188,-2.5411,-2.5757,-2.6073,-2.6958,-2.7769,-2.8326,-2.9113,-2.9743,-3.0151,-3.0341,-3.0447,-3.0582,-3.0642,-3.0582,-3.0447,-3.0447,-3.0568,-3.0762,-3.0881,-3.0955,-3.1028,-3.1028,-3.0955,-3.0895,-3.0836,-3.0702,-3.0522,-3.0233,-2.9988,-2.9665,-2.9275,-2.8972,-2.8716,-2.8341,-2.8079,-2.7802,-2.7523,-2.7281,-2.7024,-2.6875,-2.6658,-2.6533,-2.6521,-2.6521,-2.6521,-2.6521,-2.6521,-2.6521,-2.6521,-2.6521,-2.6452,-2.6396,-2.6327,-2.598,-2.5688,-2.5535,-2.5241,-2.5123,-2.4921,-2.4706,-2.4345,-2.397,-2.3677,-2.3372,-2.3086,-2.2777,-2.2478,-2.2252,-2.2111,-2.1807,-2.1512,-2.1282,-2.1138,-2.0974,-2.0644,-2.0644,-2.0576,-2.0576,-2.0576,-2.0576,-2.0576,-2.0576,-2.0576,-2.0576,-2.0576,-2.0576,-2.0576,-2.0576,-2.0566,-2.0566,-2.0566,-2.0498,-2.042,-2.0352,-2.0186,-2.0108,-2.002,-1.9932,-1.9775,-1.9784,-1.9706,-2.0658,-2.1169,-2.1628,-2.2013,-2.242,-2.2836,-2.3318,-2.3734,-2.3982,-2.4376,-2.4848,-2.5005,-2.5188,-2.5481,-2.5743,-2.6016,-2.6546,-2.7454,-2.8225,-2.8584,-2.9622,-3.0288,-3.0628,-3.0702,-3.0762,-3.0881,-3.0955,-3.0955,-3.0762,-3.0747,-3.0821,-3.1014,-3.1073,-3.1087,-3.1146,-3.1146,-3.1087,-3.1014,-3.0881,-3.0642,-3.0387,-3.0219,-3.0036,-2.9713,-2.9401,-2.9099,-2.8935,-2.8525,-2.8238,-2.808,-2.7735,-2.7374,-2.7079,-2.6943,-2.6807,-2.6602,-2.6521,-2.6521,-2.6533,-2.6521,-2.6521,-2.6521,-2.6521,-2.6521,-2.6465,-2.6258,-2.6119,-2.591,-2.5688,-2.5465,-2.5182,-2.4992,-2.479,-2.4502,-2.42,-2.3897,-2.353,-2.3224,-2.2852,-2.2553,-2.2327,-2.2176,-2.2025,-2.1731,-2.1425,-2.1205,-2.1051,-2.0809,-2.0731,-2.0654,-2.0576,-2.0576,-2.0576,-2.0576,-2.0576,-2.0576,-2.0576,-2.0576,-2.0576,-2.0576,-2.0576,-2.0576,-2.0576,-2.0576,-2.0576,-2.0576,-2.0498,-2.0498,-2.042,-2.0342,-2.0255,-2.0098,-1.9942,-1.9942,-1.9942,-2.1336,-2.1639,-2.2013,-2.2396,-2.2848,-2.3305,-2.3675,-2.4028,-2.4447,-2.4734,-2.5061,-2.5384,-2.5688,-2.5921,-2.6165,-2.6312,-2.6691,-2.7891,-2.8623,-2.8984,-3.0003,-3.0821,-3.0955,-3.0955,-3.1014,-3.1073,-3.1087,-3.1132,-3.1073,-3.0999,-3.1073,-3.1176,-3.1234,-3.1234,-3.1307,-3.1307,-3.1307,-3.1176,-3.094,-3.0762,-3.0582,-3.0326,-3.0144,-2.996,-2.9602,-2.9303,-2.9118,-2.9032,-2.8758,-2.8652,-2.8554,-2.8503,-2.8239,-2.8042,-2.7831,-2.7582,-2.715,-2.6873,-2.6596,-2.6546,-2.6521,-2.6521,-2.6452,-2.6452,-2.6339,-2.6131,-2.591,-2.5758,-2.5535,-2.5324,-2.5123,-2.4933,-2.4634,-2.4345,-2.3982,-2.3604,-2.3298,-2.3001,-2.2703,-2.2402,-2.2176,-2.2025,-2.1883,-2.1655,-2.1359,-2.1205,-2.0974,-2.0819,-2.0654,-2.0654,-2.0576,-2.0576,-2.0576,-2.0576,-2.0576,-2.0576,-2.0576,-2.0576,-2.0576,-2.0576,-2.0576,-2.0576,-2.0576,-2.0576,-2.0576,-2.0576,-2.0576,-2.0576,-2.0498,-2.0498,-2.0489,-2.0333,-2.0177,-2.0255,-2.0255,-2.1963,-2.2187,-2.2469,-2.2823,-2.3318,-2.3688,-2.4041,-2.439,-2.4778,-2.5061,-2.5328,-2.5729,-2.6111,-2.6326,-2.6472,-2.6592,-2.6732,-2.8236,-2.8814,-2.9427,-3.0249,-3.0984,-3.1132,-3.1132,-3.119,-3.119,-3.1249,-3.1249,-3.1307,-3.1307,-3.1249,-3.1351,-3.1351,-3.1409,-3.1467,-3.1467,-3.1409,-3.1278,-3.1014,-3.0895,-3.0702,-3.0447,-3.028,-3.0036,-2.9817,-2.9498,-2.9375,-2.9367,-2.9241,-2.9265,-2.9353,-2.9232,-2.8892,-2.8582,-2.8451,-2.8172,-2.7763,-2.7356,-2.6992,-2.6753,-2.6584,-2.6521,-2.6452,-2.6396,-2.6213,-2.5992,-2.5828,-2.5606,-2.5394,-2.5182,-2.5064,-2.4861,-2.449,-2.4189,-2.3824,-2.3457,-2.3086,-2.2777,-2.2553,-2.2252,-2.2035,-2.1807,-2.1655,-2.1512,-2.1359,-2.1128,-2.0974,-2.0819,-2.0731,-2.0654,-2.0644,-2.0644,-2.0644,-2.0644,-2.0654,-2.0654,-2.0576,-2.0654,-2.0654,-2.0654,-2.0654,-2.0576,-2.0576,-2.0576,-2.0576,-2.0576,-2.0576,-2.0576,-2.0576,-2.0566,-2.0566,-2.0566,-2.0566,-2.0576,-2.0576,-2.2482,-2.3017,-2.3078,-2.3318,-2.3734,-2.3995,-2.4447,-2.4835,-2.5005,-2.5342,-2.5839,-2.6111,-2.6312,-2.6525,-2.6712,-2.6832,-2.701,-2.8414,-2.898,-2.9525,-3.0336,-3.1087,-3.1234,-3.1292,-3.1351,-3.1409,-3.1409,-3.1409,-3.1467,-3.1409,-3.1424,-3.1482,-3.1467,-3.1467,-3.1467,-3.1467,-3.1467,-3.1292,-3.1132,-3.0955,-3.0762,-3.0522,-3.028,-3.0111,-2.986,-2.9729,-2.9886,-2.9843,-2.9727,-2.9744,-2.9857,-2.9724,-2.9431,-2.9117,-2.8912,-2.8702,-2.8318,-2.7984,-2.777,-2.7155,-2.659,-2.649,-2.6502,-2.6471,-2.6213,-2.5992,-2.5828,-2.5606,-2.5324,-2.5052,-2.4861,-2.4646,-2.4345,-2.397,-2.3677,-2.3298,-2.2927,-2.2628,-2.2402,-2.2187,-2.1959,-2.1731,-2.1512,-2.1359,-2.1205,-2.1051,-2.0886,-2.0654,-2.0731,-2.0654,-2.0644,-2.0644,-2.0644,-2.0644,-2.0654,-2.0654,-2.0731,-2.0731,-2.0731,-2.0654,-2.0654,-2.0654,-2.0566,-2.0576,-2.0576,-2.0576,-2.0576,-2.0576,-2.0576,-2.0576,-2.0576,-2.0576,-2.0576,-2.0576,-2.0576,-2.2775,-2.333,-2.3569,-2.3806,-2.4041,-2.4447,-2.4791,-2.5061,-2.5397,-2.5825,-2.6258,-2.6365,-2.6592,-2.6765,-2.6884,-2.6989,-2.7321,-2.8645,-2.9129,-2.9763,-3.055,-3.1246,-3.1409,-3.1409,-3.1482,-3.1467,-3.1467,-3.1467,-3.1467,-3.1467,-3.1467,-3.1467,-3.1467,-3.1467,-3.1467,-3.1467,-3.1467,-3.1366,-3.1264,-3.1028,-3.0955,-3.0642,-3.0401,-3.0111,-3.0458,-3.0235,-3.0145,-3.0636,-3.0595,-3.0499,-3.0663,-3.0467,-3.0116,-2.9835,-2.9612,-2.9412,-2.8999,-2.8637,-2.8511,-2.7883,-2.7356,-2.6992,-2.6954,-2.6714,-2.6223,-2.5959,-2.577,-2.5465,-2.5325,-2.5123,-2.4825,-2.4513,-2.42,-2.3824,-2.349,-2.3238,-2.2982,-2.268,-2.2379,-2.2203,-2.1956,-2.1655,-2.1436,-2.1282,-2.1128,-2.0896,-2.0731,-2.0644,-2.0731,-2.0809,-2.0809,-2.0886,-2.0886,-2.0886,-2.0896,-2.0886,-2.0964,-2.0886,-2.0809,-2.0809,-2.0809,-2.0644,-2.0566,-2.0566,-2.0576,-2.0576,-2.0576,-2.0576,-2.0576,-2.0576,-2.0576,-2.0576,-2.0576,-2.0576,-2.0576,-2.309,-2.3641,-2.4028,-2.4274,-2.4332,-2.4791,-2.5118,-2.5342,-2.5674,-2.6165,-2.6578,-2.6645,-2.6817,-2.7003,-2.7107,-2.7144,-2.7639,-2.8649,-2.9307,-2.9963,-3.0735,-3.1362,-3.1467,-3.1467,-3.1467,-3.1467,-3.1467,-3.1467,-3.1467,-3.1467,-3.1467,-3.1467,-3.1467,-3.1467,-3.1467,-3.1467,-3.1467,-3.1424,-3.1307,-3.1146,-3.1073,-3.0821,-3.0507,-3.0319,-3.0668,-3.0821,-3.0745,-3.1143,-3.143,-3.1317,-3.1336,-3.1355,-3.1035,-3.0748,-3.052,-3.0164,-2.9758,-2.9265,-2.9026,-2.8486,-2.7959,-2.7582,-2.746,-2.7046,-2.6572,-2.6306,-2.6238,-2.5985,-2.5648,-2.5347,-2.5213,-2.4985,-2.4659,-2.4363,-2.3973,-2.37,-2.3283,-2.3006,-2.2573,-2.2226,-2.1989,-2.1881,-2.1635,-2.1433,-2.1308,-2.1103,-2.0829,-2.0819,-2.0974,-2.0974,-2.1051,-2.1051,-2.1128,-2.1138,-2.1215,-2.1128,-2.1118,-2.1051,-2.1051,-2.1051,-2.0974,-2.0799,-2.0722,-2.0731,-2.0741,-2.0654,-2.0566,-2.0566,-2.0566,-2.0576,-2.0576,-2.0576,-2.0576,-2.0576,-2.0576,-2.3509,-2.4099,-2.4363,-2.4593,-2.4778,-2.4948,-2.5328,-2.5784,-2.5948,-2.6272,-2.6779,-2.6884,-2.7041,-2.7181,-2.7299,-2.735,-2.7654,-2.8823,-2.952,-2.9879,-3.0675,-3.1345,-3.1467,-3.1467,-3.1467,-3.1467,-3.1467,-3.1467,-3.1467,-3.1467,-3.1467,-3.1467,-3.1467,-3.1467,-3.1467,-3.1467,-3.1467,-3.1467,-3.1351,-3.1234,-3.1073,-3.0895,-3.0582,-3.047,-3.084,-3.1154,-3.1264,-3.1667,-3.1926,-3.1893,-3.1636,-3.1508,-3.1198,-3.0836,-3.0609,-3.0343,-3.019,-2.9922,-2.9666,-2.8699,-2.8285,-2.8134,-2.795,-2.7618,-2.7397,-2.7225,-2.6881,-2.649,-2.6324,-2.6182,-2.596,-2.5655,-2.5179,-2.4825,-2.4393,-2.3991,-2.3556,-2.3308,-2.2872,-2.26,-2.2459,-2.2298,-2.191,-2.1683,-2.1567,-2.134,-2.0985,-2.1033,-2.1298,-2.1457,-2.1625,-2.1653,-2.1673,-2.1561,-2.1561,-2.1332,-2.1205,-2.1205,-2.1205,-2.1205,-2.1128,-2.1041,-2.0974,-2.0906,-2.0819,-2.0731,-2.0644,-2.0634,-2.0566,-2.0576,-2.0576,-2.0576,-2.0576,-2.0576,-2.0576,-2.3688,-2.4171,-2.4593,-2.4948,-2.5118,-2.5453,-2.5729,-2.5948,-2.6286,-2.6659,-2.6899,-2.7093,-2.7196,-2.7335,-2.7386,-2.7452,-2.7718,-2.8345,-2.9041,-2.9669,-3.0522,-3.1091,-3.1375,-3.1437,-3.1467,-3.1467,-3.1467,-3.1467,-3.1467,-3.1467,-3.1467,-3.1467,-3.1467,-3.1467,-3.1467,-3.1467,-3.1467,-3.1467,-3.1351,-3.1234,-3.1087,-3.0895,-3.0657,-3.0384,-3.1146,-3.1531,-3.1541,-3.2027,-3.2299,-3.2214,-3.189,-3.1508,-3.1272,-3.0911,-3.0609,-3.0444,-3.0228,-3.0011,-2.9831,-2.9327,-2.9051,-2.8737,-2.8413,-2.8126,-2.7619,-2.7285,-2.7136,-2.6908,-2.6688,-2.6512,-2.6206,-2.5592,-2.5093,-2.4926,-2.4591,-2.4129,-2.3722,-2.3572,-2.3259,-2.3067,-2.2925,-2.2845,-2.2582,-2.2451,-2.2291,-2.2302,-2.212,-2.209,-2.222,-2.2371,-2.2522,-2.2459,-2.2457,-2.2251,-2.2019,-2.1869,-2.1696,-2.1624,-2.1486,-2.1425,-2.1272,-2.1205,-2.1128,-2.1051,-2.0974,-2.0819,-2.0731,-2.0731,-2.0644,-2.0576,-2.0576,-2.0576,-2.0576,-2.0576,-2.0576,-2.3982,-2.4403,-2.4835,-2.523,-2.5453,-2.5784,-2.6002,-2.6218,-2.6674,-2.6937,-2.7144,-2.7248,-2.7335,-2.7437,-2.7488,-2.7488,-2.77,-2.8293,-2.8697,-2.9355,-3.0163,-3.0702,-3.1091,-3.1435,-3.1467,-3.1467,-3.1467,-3.1467,-3.1467,-3.1467,-3.1467,-3.1467,-3.1467,-3.1467,-3.1467,-3.1467,-3.1467,-3.1467,-3.1409,-3.1292,-3.1132,-3.0984,-3.0893,-3.1011,-3.1389,-3.1857,-3.203,-3.2305,-3.2632,-3.23,-3.195,-3.1582,-3.136,-3.1136,-3.0761,-3.0533,-3.0228,-3.0011,-2.9844,-2.9754,-2.9465,-2.9277,-2.8986,-2.8647,-2.8147,-2.7956,-2.7791,-2.7471,-2.7044,-2.6901,-2.6745,-2.6006,-2.5588,-2.544,-2.5051,-2.46,-2.4275,-2.4143,-2.3803,-2.3597,-2.3422,-2.335,-2.3268,-2.3217,-2.3114,-2.3227,-2.3329,-2.3258,-2.3074,-2.3145,-2.3145,-2.3103,-2.3039,-2.2842,-2.2608,-2.2525,-2.2309,-2.2087,-2.1958,-2.1871,-2.1502,-2.1425,-2.1359,-2.1282,-2.1128,-2.0974,-2.0906,-2.0829,-2.0741,-2.0654,-2.0576,-2.0576,-2.0576,-2.0576,-2.0576,-2.4403,-2.4835,-2.5118,-2.5453,-2.5839,-2.5948,-2.6286,-2.6779,-2.6951,-2.7144,-2.7401,-2.7401,-2.7488,-2.7575,-2.7575,-2.7575,-2.7634,-2.8218,-2.8517,-2.8981,-2.9834,-3.0298,-3.0776,-3.1168,-3.1407,-3.1467,-3.1467,-3.1467,-3.1467,-3.1467,-3.1467,-3.1467,-3.1467,-3.1467,-3.1467,-3.1467,-3.1467,-3.1467,-3.1467,-3.1351,-3.119,-3.1087,-3.1203,-3.1395,-3.1746,-3.2225,-3.25,-3.2737,-3.2763,-3.2503,-3.2155,-3.189,-3.1596,-3.1434,-3.1061,-3.0685,-3.0305,-3.0011,-2.9869,-2.9856,-2.9779,-2.9628,-2.9499,-2.9316,-2.8995,-2.8578,-2.8361,-2.8095,-2.7767,-2.7817,-2.7648,-2.7036,-2.6431,-2.6102,-2.5782,-2.546,-2.5114,-2.4798,-2.4493,-2.4221,-2.4013,-2.3888,-2.3804,-2.3846,-2.3835,-2.4053,-2.4084,-2.4013,-2.3836,-2.3588,-2.3659,-2.3618,-2.3473,-2.3348,-2.3213,-2.3168,-2.295,-2.2746,-2.2626,-2.2507,-2.2139,-2.1727,-2.1671,-2.1604,-2.1379,-2.1205,-2.1061,-2.0906,-2.0819,-2.0731,-2.0654,-2.0576,-2.0576,-2.0576,-2.0576,-2.4549,-2.4948,-2.5397,-2.566,-2.5948,-2.634,-2.6674,-2.6951,-2.7093,-2.7248,-2.7401,-2.7488,-2.7575,-2.756,-2.756,-2.756,-2.7649,-2.7829,-2.8203,-2.8757,-2.943,-3.0013,-3.0582,-3.1106,-3.142,-3.1467,-3.1467,-3.1467,-3.1467,-3.1467,-3.1467,-3.1467,-3.1467,-3.1467,-3.1467,-3.1467,-3.1467,-3.1467,-3.1467,-3.1351,-3.1249,-3.1132,-3.138,-3.1722,-3.1974,-3.2428,-3.2834,-3.3058,-3.296,-3.2632,-3.23,-3.1963,-3.1596,-3.136,-3.1136,-3.0698,-3.0394,-3.0088,-2.9998,-2.9856,-2.9779,-2.9779,-2.9689,-2.9443,-2.9197,-2.8961,-2.8724,-2.8419,-2.8203,-2.8042,-2.78,-2.7301,-2.6809,-2.6479,-2.6146,-2.5728,-2.5464,-2.5168,-2.4788,-2.4672,-2.4388,-2.4303,-2.4324,-2.4345,-2.4355,-2.4607,-2.4713,-2.463,-2.4493,-2.4325,-2.4158,-2.4116,-2.4115,-2.4,-2.3924,-2.3868,-2.3646,-2.3446,-2.3335,-2.3129,-2.2715,-2.2408,-2.2195,-2.1896,-2.1543,-2.1359,-2.1205,-2.1051,-2.0974,-2.0819,-2.0731,-2.0654,-2.0576,-2.0576,-2.0576,-2.4765,-2.5118,-2.5564,-2.5948,-2.6286,-2.6674,-2.7003,-2.7144,-2.7233,-2.7335,-2.7488,-2.756,-2.756,-2.756,-2.756,-2.756,-2.7575,-2.7619,-2.7844,-2.8173,-2.8936,-2.9505,-3.0178,-3.0821,-3.121,-3.139,-3.1467,-3.1467,-3.1467,-3.1467,-3.1467,-3.1467,-3.1467,-3.1467,-3.1467,-3.1467,-3.1467,-3.1467,-3.1467,-3.1409,-3.1292,-3.122,-3.1543,-3.205,-3.2225,-3.2594,-3.3182,-3.3394,-3.3058,-3.2775,-3.2444,-3.2096,-3.1743,-3.1434,-3.1136,-3.0773,-3.047,-3.0228,-3.0075,-2.9869,-2.9792,-2.9779,-2.9779,-2.9611,-2.9287,-2.904,-2.8816,-2.851,-2.8191,-2.7962,-2.7719,-2.7383,-2.6974,-2.6644,-2.6229,-2.5906,-2.5644,-2.538,-2.5189,-2.502,-2.4925,-2.4829,-2.4765,-2.4786,-2.4775,-2.4946,-2.5031,-2.4978,-2.4904,-2.484,-2.4788,-2.4766,-2.4776,-2.4681,-2.4676,-2.4609,-2.4388,-2.4228,-2.3981,-2.371,-2.334,-2.2903,-2.2583,-2.2189,-2.1741,-2.1589,-2.1379,-2.1282,-2.1205,-2.1051,-2.0896,-2.0819,-2.0731,-2.0654,-2.0654,-2.5118,-2.5272,-2.577,-2.6272,-2.6794,-2.6937,-2.7159,-2.7401,-2.7401,-2.7473,-2.7575,-2.756,-2.761,-2.7625,-2.764,-2.7675,-2.7675,-2.769,-2.7705,-2.7685,-2.8479,-2.9154,-2.9768,-3.0238,-3.0971,-3.1345,-3.1467,-3.1467,-3.1467,-3.1467,-3.1467,-3.1467,-3.1467,-3.1467,-3.1467,-3.1467,-3.1467,-3.1467,-3.1467,-3.1467,-3.1307,-3.1353,-3.1602,-3.246,-3.2579,-3.2694,-3.3482,-3.3536,-3.3171,-3.286,-3.2489,-3.23,-3.1877,-3.1508,-3.1136,-3.0836,-3.0609,-3.0381,-3.0152,-3.0011,-2.9869,-2.9792,-2.9779,-2.9611,-2.9365,-2.9131,-2.8895,-2.8578,-2.8351,-2.8042,-2.78,-2.7452,-2.7115,-2.6798,-2.6479,-2.6146,-2.5812,-2.5549,-2.5295,-2.52,-2.5115,-2.5031,-2.5031,-2.5031,-2.5041,-2.52,-2.5285,-2.5285,-2.5369,-2.5369,-2.5369,-2.5359,-2.5368,-2.5355,-2.5427,-2.538,-2.5161,-2.497,-2.4737,-2.448,-2.4106,-2.3577,-2.2942,-2.2597,-2.2199,-2.189,-2.1696,-2.1533,-2.1369,-2.1205,-2.1128,-2.0974,-2.0896,-2.0731,-2.0654,-2.5286,-2.5784,-2.6204,-2.6592,-2.6951,-2.7093,-2.7233,-2.7401,-2.7524,-2.759,-2.7575,-2.7625,-2.7675,-2.774,-2.774,-2.779,-2.784,-2.784,-2.789,-2.8022,-2.8454,-2.9034,-2.9672,-3.0203,-3.0836,-3.1315,-3.1467,-3.1467,-3.1467,-3.1467,-3.1467,-3.1467,-3.1467,-3.1467,-3.1467,-3.1467,-3.1467,-3.1467,-3.1467,-3.1467,-3.1409,-3.1427,-3.1602,-3.2405,-3.2771,-3.3013,-3.3604,-3.3882,-3.3536,-3.3241,-3.2789,-3.2359,-3.1963,-3.1495,-3.1272,-3.1123,-3.0836,-3.052,-3.0305,-3.0164,-3.0011,-2.9869,-2.9779,-2.9611,-2.9443,-2.9209,-2.8973,-2.8736,-2.8419,-2.8191,-2.7881,-2.7603,-2.7267,-2.7044,-2.6727,-2.6396,-2.6063,-2.5812,-2.5549,-2.538,-2.5285,-2.5285,-2.5285,-2.5285,-2.5295,-2.5464,-2.5644,-2.5812,-2.5979,-2.6052,-2.5968,-2.5884,-2.5968,-2.6019,-2.6052,-2.603,-2.5815,-2.5804,-2.5694,-2.5338,-2.4941,-2.4277,-2.3667,-2.3101,-2.2713,-2.2422,-2.2112,-2.1696,-2.1533,-2.1446,-2.1282,-2.1128,-2.1051,-2.0974,-2.0809,-2.5467,-2.5948,-2.6433,-2.6803,-2.7093,-2.7248,-2.7386,-2.7488,-2.764,-2.7675,-2.769,-2.7675,-2.779,-2.789,-2.789,-2.7905,-2.8005,-2.7955,-2.7955,-2.8122,-2.8394,-2.9055,-2.9652,-3.0147,-3.0844,-3.1327,-3.1465,-3.1467,-3.1467,-3.1467,-3.1467,-3.1467,-3.1467,-3.1467,-3.1467,-3.1467,-3.1467,-3.1467,-3.1467,-3.1467,-3.1526,-3.1649,-3.1988,-3.2706,-3.3147,-3.347,-3.371,-3.3937,-3.3675,-3.3255,-3.2789,-3.2431,-3.2096,-3.173,-3.1508,-3.1272,-3.0986,-3.0761,-3.0533,-3.0381,-3.0164,-3.0011,-2.9934,-2.9831,-2.9611,-2.9456,-2.9118,-2.8803,-2.8724,-2.8498,-2.8179,-2.7846,-2.751,-2.7196,-2.7033,-2.6787,-2.6467,-2.6229,-2.6135,-2.6052,-2.5968,-2.5968,-2.6052,-2.6052,-2.6052,-2.6052,-2.6229,-2.6229,-2.6396,-2.6561,-2.6479,-2.6479,-2.6479,-2.6396,-2.6396,-2.6396,-2.6445,-2.6456,-2.6479,-2.598,-2.544,-2.4875,-2.433,-2.3874,-2.3428,-2.3023,-2.2678,-2.2247,-2.1901,-2.1849,-2.1599,-2.1359,-2.1282,-2.1205,-2.0974,-2.5757,-2.6071,-2.6621,-2.6989,-2.7233,-2.7335,-2.7488,-2.7625,-2.774,-2.784,-2.784,-2.7825,-2.7955,-2.8005,-2.8005,-2.8005,-2.8069,-2.8118,-2.8054,-2.8054,-2.8084,-2.8997,-2.9576,-3.0023,-3.0744,-3.1336,-3.1567,-3.1539,-3.1467,-3.1467,-3.1467,-3.1467,-3.1467,-3.1467,-3.1467,-3.1467,-3.1467,-3.1467,-3.1467,-3.1467,-3.1735,-3.2005,-3.2509,-3.296,-3.3416,-3.3849,-3.398,-3.4005,-3.373,-3.3382,-3.2945,-3.2516,-3.2228,-3.2023,-3.173,-3.1508,-3.1211,-3.0986,-3.0761,-3.0533,-3.0381,-3.0228,-3.0152,-2.9998,-2.9844,-2.9611,-2.9275,-2.9028,-2.8961,-2.8724,-2.8407,-2.8087,-2.7765,-2.7441,-2.7278,-2.7103,-2.6869,-2.6633,-2.6561,-2.6561,-2.6561,-2.6561,-2.6561,-2.6561,-2.6644,-2.6644,-2.6644,-2.6644,-2.6715,-2.688,-2.6962,-2.6974,-2.7056,-2.6974,-2.6809,-2.6727,-2.6809,-2.6798,-2.6764,-2.6352,-2.5998,-2.5643,-2.5168,-2.4774,-2.4353,-2.3885,-2.3434,-2.3065,-2.2703,-2.2342,-2.2102,-2.1881,-2.1502,-2.1349,-2.1205,-2.6125,-2.6674,-2.6899,-2.7093,-2.7335,-2.7386,-2.7539,-2.7725,-2.779,-2.789,-2.8088,-2.8137,-2.8137,-2.8201,-2.8137,-2.8201,-2.8266,-2.8266,-2.8314,-2.8299,-2.8201,-2.9057,-2.9892,-3.0312,-3.0809,-3.1302,-3.1597,-3.1524,-3.1467,-3.1467,-3.1467,-3.1467,-3.1467,-3.1467,-3.1467,-3.1467,-3.1467,-3.1467,-3.1467,-3.1467,-3.1676,-3.202,-3.2585,-3.3037,-3.3466,-3.401,-3.4292,-3.4182,-3.4005,-3.366,-3.3227,-3.2789,-3.2431,-3.2228,-3.2023,-3.173,-3.1434,-3.1211,-3.0986,-3.0761,-3.0609,-3.0368,-3.0292,-3.0152,-3.0011,-2.9856,-2.9599,-2.9341,-2.9118,-2.8816,-2.8578,-2.8327,-2.8007,-2.7777,-2.7534,-2.736,-2.7115,-2.6869,-2.6715,-2.6727,-2.6727,-2.6727,-2.6727,-2.6727,-2.6727,-2.6809,-2.6891,-2.6974,-2.7126,-2.729,-2.7371,-2.7464,-2.7545,-2.7534,-2.736,-2.7138,-2.7149,-2.7126,-2.7103,-2.6803,-2.6606,-2.6521,-2.611,-2.5628,-2.5198,-2.4825,-2.4357,-2.3917,-2.3402,-2.2991,-2.2741,-2.247,-2.2035,-2.1706,-2.1604]}]]